[[{"header":{"parameterUnit":"m.s-1","parameterCategory":1,"la1":30.6,"la2":28.766,"lo1":-90.7593,"lo2":-88.6598,"dx":0.0162,"dy":0.0183,"nx":116,"ny":114,"refTime":"2023-02-03T06:00:00:Z","depth":0,"parameterNumber":2,"parameterNumberName":"U-component_of_WINDS"},"data":[0.0,0.0,0.0,0.0,0.0,0.0,0.0,0.0,0.0,0.0,0.0,0.0,0.0,0.0,0.0,0.0,0.0,0.0,0.0,0.0,0.0,0.0,0.0,0.0,0.0,0.0,0.0,0.0,0.0,0.0,0.0,0.0,0.0,0.0,0.0,0.0,0.0,0.0,0.0,0.0,0.0,0.0,0.0,0.0,0.0,0.0,0.0,0.0,0.0,0.0,0.0,0.0,0.0,0.0,0.0,0.0,0.0,0.0,0.0,0.0,0.0,0.0,0.0,0.0,0.0,0.0,0.0,0.0,0.0,0.0,0.0,0.0,0.0,0.0,0.0,0.0,0.0,0.0,0.0,0.0,0.0,0.0,0.0,0.0,0.0,0.0,0.0,0.0,0.0,0.0,0.0,0.0,0.0,0.0,0.0,0.0,0.0,0.0,0.0,0.0,0.0,0.0,0.0,0.0,0.0,0.0,0.0,0.0,0.0,0.0,0.0,0.0,0.0,0.0,0.0,0.0,0.0,0.0,0.0,0.0,0.0,0.0,0.0,0.0,0.0,0.0,0.0,0.0,0.0,0.0,0.0,0.0,0.0,0.0,0.0,0.0,0.0,0.0,0.0,0.0,0.0,0.0,0.0,0.0,0.0,0.0,0.0,0.0,0.0,0.0,0.0,0.0,0.0,0.0,0.0,0.0,0.0,0.0,0.0,0.0,0.0,0.0,0.0,0.0,0.0,0.0,0.0,0.0,0.0,0.0,0.0,0.0,0.0,0.0,0.0,0.0,0.0,0.0,0.0,0.0,0.0,0.0,0.0,0.0,0.0,0.0,0.0,0.0,0.0,0.0,0.0,0.0,0.0,0.0,0.0,0.0,0.0,0.0,0.0,0.0,0.0,0.0,0.0,0.0,0.0,0.0,0.0,0.0,0.0,0.0,0.0,0.0,0.0,0.0,0.0,0.0,0.0,0.0,0.0,0.0,0.0,0.0,0.0,0.0,0.0,0.0,0.0,0.0,0.0,0.0,0.0,0.0,0.0,0.0,0.0,0.0,0.0,0.0,0.0,0.0,0.0,0.0,0.0,0.0,0.0,0.0,0.0,0.0,0.0,0.0,0.0,0.0,0.0,0.0,0.0,0.0,0.0,0.0,0.0,0.0,0.0,0.0,0.0,0.0,0.0,0.0,0.0,0.0,0.0,0.0,0.0,0.0,0.0,0.0,0.0,0.0,0.0,0.0,0.0,0.0,0.0,0.0,0.0,0.0,0.0,0.0,0.0,0.0,0.0,0.0,0.0,0.0,0.0,0.0,0.0,0.0,0.0,0.0,0.0,0.0,0.0,0.0,0.0,0.0,0.0,0.0,0.0,0.0,0.0,0.0,0.0,0.0,0.0,0.0,0.0,0.0,0.0,0.0,0.0,0.0,0.0,0.0,0.0,0.0,0.0,0.0,0.0,0.0,0.0,0.0,0.0,0.0,0.0,0.0,0.0,0.0,0.0,0.0,0.0,0.0,0.0,0.0,0.0,0.0,0.0,0.0,0.0,0.0,0.0,0.0,0.0,0.0,0.0,0.0,0.0,0.0,0.0,0.0,0.0,0.0,0.0,0.0,0.0,0.0,0.0,0.0,0.0,0.0,0.0,0.0,0.0,0.0,0.0,0.0,0.0,0.0,0.0,0.0,0.0,0.0,0.0,0.0,0.0,0.0,0.0,0.0,0.0,0.0,0.0,0.0,0.0,0.0,0.0,0.0,0.0,0.0,0.0,0.0,0.0,0.0,0.0,0.0,0.0,0.0,0.0,0.0,0.0,0.0,0.0,0.0,0.0,0.0,0.0,0.0,0.0,0.0,0.0,0.0,0.0,0.0,0.0,0.0,0.0,0.0,0.0,0.0,0.0,0.0,0.0,0.0,0.0,0.0,0.0,0.0,0.0,0.0,0.0,0.0,0.0,0.0,0.0,0.0,0.0,0.0,0.0,0.0,0.0,0.0,0.0,0.0,0.0,0.0,0.0,0.0,0.0,0.0,0.0,0.0,0.0,0.0,0.0,0.0,0.0,0.0,0.0,0.0,0.0,0.0,0.0,0.0,0.0,0.0,0.0,0.0,0.0,0.0,0.0,0.0,0.0,0.0,0.0,0.0,0.0,0.0,0.0,0.0,0.0,0.0,0.0,0.0,0.0,0.0,0.0,0.0,0.0,0.0,0.0,0.0,0.0,0.0,0.0,0.0,0.0,0.0,0.0,0.0,0.0,0.0,0.0,0.0,0.0,0.0,0.0,0.0,0.0,0.0,0.0,0.0,0.0,0.0,0.0,0.0,0.0,0.0,0.0,0.0,0.0,0.0,0.0,0.0,0.0,0.0,0.0,0.0,0.0,0.0,0.0,0.0,0.0,0.0,0.0,0.0,0.0,0.0,0.0,0.0,0.0,0.0,0.0,0.0,0.0,0.0,0.0,0.0,0.0,0.0,0.0,0.0,0.0,0.0,0.0,0.0,0.0,0.0,0.0,0.0,0.0,0.0,0.0,0.0,0.0,0.0,0.0,0.0,0.0,0.0,0.0,0.0,0.0,0.0,0.0,0.0,0.0,0.0,0.0,0.0,0.0,0.0,0.0,0.0,0.0,0.0,0.0,0.0,0.0,0.0,0.0,0.0,0.0,0.0,0.0,0.0,0.0,0.0,0.0,0.0,0.0,0.0,0.0,0.0,0.0,0.0,0.0,0.0,0.0,0.0,0.0,0.0,0.0,0.0,0.0,0.0,0.0,0.0,0.0,0.0,0.0,0.0,0.0,0.0,0.0,0.0,0.0,0.0,0.0,0.0,0.0,0.0,0.0,0.0,0.0,0.0,0.0,0.0,0.0,0.0,0.0,0.0,0.0,0.0,0.0,0.0,0.0,0.0,0.0,0.0,0.0,0.0,0.0,0.0,0.0,0.0,0.0,0.0,0.0,0.0,0.0,0.0,0.0,0.0,0.0,0.0,0.0,0.0,0.0,0.0,0.0,0.0,0.0,0.0,0.0,0.0,0.0,0.0,0.0,0.0,0.0,0.0,0.0,0.0,0.0,0.0,0.0,0.0,0.0,0.0,0.0,0.0,0.0,0.0,0.0,0.0,0.0,0.0,0.0,0.0,0.0,0.0,0.0,0.0,0.0,0.0,0.0,0.0,0.0,0.0,0.0,0.0,0.0,0.0,0.0,0.0,0.0,0.0,0.0,0.0,0.0,0.0,0.0,0.0,0.0,0.0,0.0,0.0,0.0,0.0,0.0,0.0,0.0,0.0,0.0,0.0,0.0,0.0,0.0,0.0,0.0,0.0,0.0,0.0,0.0,0.0,0.0,0.0,0.0,0.0,0.0,0.0,0.0,0.0,0.0,0.0,0.0,0.0,0.0,0.0,0.0,0.0,0.0,0.0,0.0,0.0,0.0,0.0,0.0,0.0,0.0,0.0,0.0,0.0,0.0,0.0,0.0,0.0,0.0,0.0,0.0,0.0,0.0,0.0,0.0,0.0,0.0,0.0,0.0,0.0,0.0,0.0,0.0,0.0,0.0,0.0,0.0,0.0,0.0,0.0,0.0,0.0,0.0,0.0,0.0,0.0,0.0,0.0,0.0,0.0,0.0,0.0,0.0,0.0,0.0,0.0,0.0,0.0,0.0,0.0,0.0,0.0,0.0,0.0,0.0,0.0,0.0,0.0,0.0,0.0,0.0,0.0,0.0,0.0,0.0,0.0,0.0,0.0,0.0,0.0,0.0,0.0,0.0,0.0,0.0,0.0,0.0,0.0,0.0,0.0,0.0,0.0,0.0,0.0,0.0,0.0,0.0,0.0,0.0,0.0,0.0,0.0,0.0,0.0,0.0,0.0,0.0,0.0,0.0,0.0,0.0,0.0,0.0,0.0,0.0,0.0,0.0,0.0,0.0,0.0,0.0,0.0,0.0,0.0,0.0,0.0,0.0,0.0,0.0,0.0,0.0,0.0,0.0,0.0,0.0,0.0,0.0,0.0,0.0,0.0,0.0,0.0,0.0,0.0,0.0,0.0,0.0,0.0,0.0,0.0,0.0,0.0,0.0,0.0,0.0,0.0,0.0,0.0,0.0,0.0,0.0,0.0,0.0,0.0,0.0,0.0,0.0,0.0,0.0,0.0,0.0,0.0,0.0,0.0,0.0,0.0,0.0,0.0,0.0,0.0,0.0,0.0,0.0,0.0,0.0,0.0,0.0,0.0,0.0,0.0,0.0,0.0,0.0,0.0,0.0,0.0,0.0,0.0,0.0,0.0,0.0,0.0,0.0,0.0,0.0,0.0,0.0,0.0,0.0,0.0,0.0,0.0,0.0,0.0,0.0,0.0,0.0,0.0,0.0,0.0,0.0,0.0,0.0,0.0,0.0,0.0,0.0,0.0,0.0,0.0,0.0,0.0,0.0,0.0,0.0,0.0,0.0,0.0,0.0,0.0,0.0,0.0,0.0,0.0,0.0,0.0,0.0,0.0,0.0,0.0,0.0,0.0,0.0,0.0,0.0,0.0,0.0,0.0,0.0,0.0,0.0,0.0,0.0,0.0,0.0,0.0,0.0,0.0,0.0,0.0,0.0,0.0,0.0,0.0,0.0,0.0,0.0,0.0,0.0,0.0,0.0,0.0,0.0,0.0,0.0,0.0,0.0,0.0,0.0,0.0,0.0,0.0,0.0,0.0,0.0,0.0,0.0,0.0,0.0,0.0,0.0,0.0,0.0,0.0,0.0,0.0,0.0,0.0,0.0,0.0,0.0,0.0,0.0,0.0,0.0,0.0,0.0,0.0,0.0,0.0,0.0,0.0,0.0,0.0,0.0,0.0,0.0,0.0,0.0,0.0,0.0,0.0,0.0,0.0,0.0,0.0,0.0,0.0,0.0,0.0,0.0,0.0,0.0,0.0,0.0,0.0,0.0,0.0,0.0,0.0,0.0,0.0,0.0,0.0,0.0,0.0,0.0,0.0,0.0,0.0,0.0,0.0,0.0,0.0,0.0,0.0,0.0,0.0,0.0,0.0,0.0,0.0,0.0,0.0,0.0,0.0,0.0,0.0,0.0,0.0,0.0,0.0,0.0,0.0,0.0,0.0,0.0,0.0,0.0,0.0,0.0,0.0,0.0,0.0,0.0,0.0,0.0,0.0,0.0,0.0,0.0,0.0,0.0,0.0,0.0,0.0,0.0,0.0,0.0,0.0,0.0,0.0,0.0,0.0,0.0,0.0,0.0,0.0,0.0,0.0,0.0,0.0,0.0,0.0,0.0,0.0,0.0,0.0,0.0,0.0,0.0,0.0,0.0,0.0,0.0,0.0,0.0,0.0,0.0,0.0,0.0,0.0,0.0,0.0,0.0,0.0,0.0,0.0,0.0,0.0,0.0,0.0,0.0,0.0,0.0,0.0,0.0,0.0,0.0,0.0,0.0,0.0,0.0,0.0,0.0,0.0,0.0,0.0,0.0,0.0,0.0,0.0,0.0,0.0,0.0,0.0,0.0,0.0,0.0,0.0,0.0,0.0,0.0,0.0,0.0,0.0,0.0,0.0,0.0,0.0,0.0,0.0,0.0,0.0,0.0,0.0,0.0,0.0,0.0,0.0,0.0,0.0,0.0,0.0,0.0,0.0,0.0,0.0,0.0,0.0,0.0,0.0,0.0,0.0,0.0,0.0,0.0,0.0,0.0,0.0,0.0,0.0,0.0,0.0,0.0,0.0,0.0,0.0,0.0,0.0,0.0,0.0,0.0,0.0,0.0,0.0,0.0,0.0,0.0,0.0,0.0,0.0,0.0,0.0,0.0,0.0,0.0,0.0,0.0,0.0,0.0,0.0,0.0,0.0,0.0,0.0,0.0,0.0,0.0,0.0,0.0,0.0,0.0,0.0,0.0,0.0,0.0,0.0,0.0,0.0,0.0,0.0,0.0,0.0,0.0,0.0,0.0,0.0,0.0,0.0,0.0,0.0,0.0,0.0,0.0,0.0,0.0,0.0,0.0,0.0,0.0,0.0,0.0,0.0,0.0,0.0,0.0,0.0,0.0,0.0,0.0,0.0,0.0,0.0,0.0,0.0,0.0,0.0,0.0,0.0,0.0,0.0,0.0,0.0,-0.7988,0.0,0.0,0.0,0.0,0.0,0.0,0.0,0.0,0.0,0.0,0.0,0.0,0.0,0.0,0.0,0.0,0.0,0.0,0.0,0.0,0.0,0.0,0.0,0.0,0.0,0.0,0.0,0.0,0.0,0.0,0.0,0.0,0.0,0.0,0.0,0.0,0.0,0.0,0.0,0.0,0.0,0.0,0.0,0.0,0.0,0.0,0.0,0.0,0.0,0.0,0.0,0.0,0.0,0.0,0.0,0.0,0.0,0.0,0.0,0.0,0.0,0.0,0.0,0.0,0.0,0.0,0.0,0.0,0.0,0.0,0.0,0.0,0.0,0.0,0.0,0.0,0.0,0.0,0.0,0.0,0.0,0.0,0.0,0.0,0.0,0.0,0.0,0.0,0.0,0.0,0.0,0.0,0.0,0.0,0.0,0.0,0.0,0.0,0.0,0.0,0.0,0.0,0.0,0.0,0.0,0.0,0.0,0.0,0.0,0.0,0.0,0.0,0.0,0.0,0.0,0.0,-0.7988,0.0,0.0,0.0,0.0,0.0,0.0,0.0,0.0,0.0,0.0,0.0,0.0,0.0,0.0,0.0,0.0,0.0,0.0,0.0,0.0,0.0,0.0,0.0,0.0,0.0,0.0,0.0,0.0,0.0,0.0,0.0,0.0,0.0,0.0,0.0,0.0,0.0,0.0,0.0,0.0,0.0,0.0,0.0,0.0,0.0,0.0,0.0,0.0,0.0,0.0,0.0,0.0,0.0,0.0,0.0,0.0,0.0,0.0,0.0,0.0,0.0,0.0,0.0,0.0,0.0,0.0,0.0,0.0,0.0,0.0,0.0,0.0,0.0,0.0,0.0,0.0,0.0,0.0,0.0,0.0,0.0,0.0,0.0,0.0,0.0,0.0,0.0,0.0,0.0,0.0,0.0,0.0,0.0,0.0,0.0,0.0,0.0,0.0,0.0,0.0,0.0,0.0,0.0,0.0,0.0,0.0,0.0,0.0,0.0,-0.7988,-0.7988,-0.7988,-0.7988,-0.7988,-0.7988,-0.7988,-0.7988,0.0,0.0,0.0,0.0,0.0,0.0,0.0,0.0,0.0,0.0,0.0,0.0,0.0,0.0,0.0,0.0,0.0,0.0,0.0,0.0,0.0,0.0,0.0,0.0,0.0,0.0,0.0,0.0,0.0,0.0,0.0,0.0,0.0,0.0,0.0,0.0,0.0,0.0,0.0,-0.7988,-0.7988,-0.7988,-0.7988,-0.7988,0.0,0.0,0.0,0.0,0.0,0.0,0.0,0.0,0.0,0.0,0.0,0.0,0.0,0.0,0.0,0.0,0.0,0.0,0.0,0.0,0.0,0.0,0.0,0.0,0.0,0.0,0.0,0.0,0.0,0.0,0.0,0.0,0.0,0.0,0.0,0.0,0.0,0.0,0.0,0.0,0.0,0.0,0.0,-0.8428,-0.8283,0.0,0.0,0.0,0.0,0.0,0.0,0.0,0.0,0.0,0.0,0.0,0.0,0.0,0.0,-0.7988,-0.7988,-0.7988,-0.7988,-0.7988,-0.7988,-0.7988,-0.7988,-0.7988,-0.7988,-0.7988,0.0,-0.7988,-0.7988,0.0,0.0,0.0,0.0,0.0,0.0,0.0,0.0,0.0,0.0,0.0,0.0,0.0,0.0,0.0,0.0,0.0,0.0,0.0,0.0,0.0,0.0,0.0,0.0,0.0,0.0,0.0,0.0,0.0,0.0,0.0,0.0,0.0,0.0,0.0,0.0,-0.7988,-0.7988,-0.7988,-0.7988,-0.7988,-0.7988,-0.7988,-0.7988,-0.7988,-0.7988,0.0,0.0,0.0,0.0,0.0,0.0,0.0,0.0,0.0,0.0,0.0,0.0,0.0,0.0,0.0,0.0,0.0,0.0,0.0,0.0,0.0,0.0,0.0,0.0,0.0,0.0,0.0,0.0,0.0,0.0,0.0,0.0,0.0,0.0,0.0,0.0,0.0,0.0,0.0,-0.8825,-0.7988,-0.7988,-0.7988,-0.7988,0.0,0.0,0.0,0.0,0.0,0.0,0.0,0.0,0.0,-0.7988,-0.7988,-0.7988,-0.7988,-0.7988,-0.7988,-0.7988,-0.7988,-0.7988,-0.7988,-0.7988,-0.7988,-0.7988,-0.7988,-0.7988,-0.7988,-0.7988,-0.7988,-0.7988,0.0,0.0,0.0,0.0,0.0,-0.8871,0.0,0.0,0.0,0.0,0.0,0.0,0.0,0.0,0.0,0.0,0.0,0.0,0.0,0.0,0.0,-0.7988,0.0,0.0,0.0,0.0,0.0,0.0,0.0,0.0,0.0,0.0,0.0,-0.7487,-0.7839,-0.7988,-0.7988,-0.7988,-0.7988,-0.7988,-0.7988,-0.7988,-0.7988,-0.7988,-0.8775,0.0,0.0,0.0,0.0,0.0,0.0,0.0,0.0,0.0,0.0,0.0,0.0,0.0,0.0,0.0,0.0,0.0,0.0,0.0,0.0,0.0,0.0,0.0,0.0,0.0,0.0,0.0,0.0,0.0,0.0,0.0,0.0,0.0,0.0,0.0,0.0,0.0,0.0,-0.8627,-0.7988,-0.7988,-0.7988,-0.7988,0.0,0.0,0.0,0.0,0.0,0.0,-0.7988,-0.7988,-0.7988,-0.7988,-0.7988,-0.7988,-0.7988,-0.7988,-0.7988,-0.7988,-0.7988,-0.7988,-0.7988,-0.7988,-0.7988,-0.7988,-0.7988,-0.7988,-0.7988,-0.7988,-0.7988,-0.7988,-0.7988,-0.7988,-0.7988,-0.7988,-0.7988,-0.7988,0.0,0.0,0.0,0.0,0.0,0.0,0.0,0.0,0.0,0.0,0.0,0.0,0.0,0.0,-0.7988,-0.7988,-0.7988,-0.7988,0.0,0.0,0.0,0.0,0.0,0.0,0.0,0.0,0.0,-0.6079,-0.7385,-0.7988,-0.7988,-0.7988,-0.7988,-0.7988,-0.7988,-0.7988,-0.7988,-0.7988,-0.8775,-0.9998,0.0,0.0,0.0,0.0,0.0,0.0,0.0,0.0,0.0,0.0,0.0,0.0,0.0,0.0,0.0,0.0,0.0,0.0,0.0,0.0,0.0,0.0,0.0,0.0,0.0,0.0,0.0,0.0,0.0,0.0,0.0,0.0,0.0,0.0,0.0,0.0,0.0,0.0,0.0,-0.7988,-0.7988,0.0,0.0,0.0,0.0,-0.7988,-0.7988,-0.7988,-0.7988,-0.7988,-0.7988,-0.7988,-0.7988,-0.7988,-0.7988,-0.7988,-0.7988,-0.7988,-0.7988,-0.7988,-0.7988,-0.7988,-0.7988,-0.7988,-0.7988,-0.7988,-0.7988,-0.7988,-0.7988,-0.7988,-0.7988,-0.7988,-0.7988,-0.7988,-0.7988,-0.7988,0.0,0.0,0.0,0.0,0.0,0.0,0.0,0.0,0.0,0.0,0.0,0.0,0.0,-0.7988,-0.7988,-0.7988,-0.7988,-0.7988,-0.7988,0.0,0.0,0.0,0.0,0.0,0.0,0.0,-0.7786,-0.7285,-0.7786,-0.7988,-0.7988,-0.7988,-0.7988,-0.7988,-0.7988,-0.7988,-0.7988,-0.7988,-0.8283,-0.8726,-0.8726,-0.897,0.0,0.0,0.0,0.0,0.0,0.0,0.0,0.0,0.0,0.0,0.0,0.0,0.0,0.0,0.0,0.0,0.0,0.0,0.0,0.0,0.0,0.0,0.0,0.0,0.0,0.0,0.0,0.0,0.0,0.0,0.0,0.0,0.0,0.0,0.0,0.0,0.0,-0.7988,-0.7988,0.0,-0.7988,-0.7988,-0.7988,-0.7988,-0.7988,-0.7988,-0.7988,-0.7988,-0.7988,-0.7988,-0.7988,-0.7988,-0.7988,-0.814,-0.8187,-0.8187,-0.8279,-0.8323,-0.8323,-0.8323,-0.8323,-0.8323,-0.8323,-0.8323,-0.8323,-0.8323,-0.8211,-0.7988,-0.7988,-0.7988,-0.7988,-0.7988,-0.7988,-0.7988,0.0,0.0,0.0,0.0,0.0,0.0,0.0,0.0,0.0,0.0,0.0,-0.7988,-0.7988,-0.7988,-0.7988,-0.7988,-0.7988,-0.7988,-0.7988,0.0,0.0,0.0,0.0,0.0,0.0,-0.7534,-0.7534,-0.6625,-0.7534,-0.7988,-0.7988,-0.7988,-0.7988,-0.7988,-0.7988,-0.7988,-0.7988,-0.7988,-0.7988,-0.7988,-0.7988,-0.7988,-0.8088,0.0,0.0,0.0,0.0,0.0,0.0,0.0,0.0,0.0,0.0,0.0,0.0,0.0,0.0,0.0,0.0,0.0,0.0,0.0,0.0,0.0,0.0,0.0,0.0,0.0,0.0,0.0,0.0,0.0,0.0,0.0,0.0,0.0,0.0,0.0,-0.7988,-0.7988,-0.7988,-0.7988,-0.7988,-0.7988,-0.7988,-0.7988,-0.7988,-0.7988,-0.7988,-0.8039,-0.8116,-0.8116,-0.8163,-0.8187,-0.8187,-0.8292,-0.8391,-0.8395,-0.8438,-0.8482,-0.8482,-0.8482,-0.8482,-0.8482,-0.8482,-0.8482,-0.8482,-0.8482,-0.8367,-0.8187,-0.8187,-0.8187,-0.8187,-0.8187,-0.8187,-0.8187,0.0,0.0,0.0,0.0,0.0,0.0,0.0,0.0,0.0,0.0,-0.7988,-0.7988,-0.7988,-0.7988,-0.7988,-0.7988,-0.7939,-0.7939,-0.7988,-0.7939,0.0,0.0,0.0,0.0,-0.4166,-0.6678,-0.6728,-0.4116,-0.6728,-0.7988,-0.7988,-0.7988,-0.7988,-0.7988,-0.7988,-0.7988,-0.7988,-0.7988,-0.7988,-0.7988,-0.7988,-0.7988,-0.7988,0.0,0.0,0.0,0.0,0.0,0.0,0.0,0.0,0.0,0.0,0.0,0.0,0.0,0.0,0.0,0.0,0.0,0.0,0.0,0.0,0.0,0.0,0.0,0.0,0.0,0.0,0.0,0.0,0.0,0.0,0.0,0.0,0.0,-0.7988,-0.7988,-0.7988,-0.7988,-0.7988,-0.7988,-0.7988,-0.7988,-0.7992,-0.7995,-0.7995,-0.7998,-0.8005,-0.8197,-0.833,-0.833,-0.8411,-0.8482,-0.8482,-0.8486,-0.8489,-0.8489,-0.8492,-0.8499,-0.8503,-0.8503,-0.8506,-0.8509,-0.8509,-0.8509,-0.8509,-0.8509,-0.8509,-0.8509,-0.8489,-0.8482,-0.8482,-0.8482,-0.8482,-0.8482,0.0,0.0,0.0,0.0,0.0,0.0,0.0,0.0,0.0,0.0,-0.7988,-0.7988,-0.7988,-0.7988,-0.7988,-0.7988,-0.7132,-0.6983,-0.7939,0.0,0.0,0.0,0.0,0.0,-0.6927,-0.7637,-0.7637,-0.6877,-0.7637,-0.7988,-0.7988,-0.7988,-0.7988,-0.7988,-0.7988,-0.7988,-0.7988,-0.7988,-0.7988,-0.7988,-0.7988,-0.7988,-0.8088,0.0,0.0,0.0,0.0,0.0,0.0,0.0,0.0,0.0,0.0,0.0,0.0,0.0,0.0,0.0,0.0,0.0,0.0,0.0,0.0,0.0,0.0,0.0,0.0,0.0,0.0,0.0,0.0,0.0,0.0,0.0,0.0,-0.7988,-0.7988,-0.7988,-0.7988,-0.7988,-0.7988,-0.7988,-0.7988,-0.7988,-0.8035,-0.8201,-0.8208,-0.8252,-0.8353,-0.8401,-0.8425,-0.8425,-0.8462,-0.8482,-0.8482,-0.8591,-0.8648,-0.8648,-0.876,-0.8869,-0.9026,-0.9026,-0.9084,-0.9133,-0.9133,-0.9133,-0.9133,-0.9133,-0.9133,-0.9089,-0.8652,-0.8482,-0.8482,-0.8482,-0.8482,-0.8482,0.0,0.0,0.0,0.0,0.0,0.0,0.0,0.0,0.0,0.0,-0.7988,-0.7988,-0.7988,-0.7988,-0.7786,-0.7235,-0.6431,-0.6331,-0.7132,0.0,0.0,0.0,0.0,-0.7739,-0.7182,-0.7736,-0.7736,-0.7182,-0.7736,-0.7988,-0.7988,-0.7988,-0.7988,-0.7988,-0.7988,-0.7988,-0.7988,-0.7988,-0.7988,-0.7988,-0.7988,-0.7988,-0.8088,-0.8871,-0.9509,-1.0096,-1.0828,-1.1799,-1.2721,-1.2721,0.0,0.0,0.0,0.0,0.0,0.0,0.0,0.0,0.0,0.0,0.0,0.0,0.0,0.0,0.0,0.0,0.0,0.0,0.0,0.0,0.0,0.0,0.0,0.0,-0.7988,-0.7988,-0.7988,-0.7988,-0.7988,-0.7988,-0.7988,-0.8015,-0.813,-0.8136,-0.8197,-0.8347,-0.836,-0.8394,-0.8479,-0.8543,-0.8577,-0.8577,-0.8638,-0.8703,-0.8818,-0.8852,-0.8927,-0.8991,-0.9083,-0.9167,-0.9306,-0.9306,-0.9354,0.0,-0.9381,-0.9381,-0.9381,-0.9381,-0.9381,0.0,0.0,0.0,0.0,0.0,-0.8859,-0.8859,0.0,0.0,0.0,0.0,0.0,0.0,0.0,0.0,0.0,0.0,0.0,-0.7988,-0.7988,-0.7889,-0.7285,-0.6079,-0.5727,-0.5627,0.0,0.0,0.0,-0.7988,-0.7988,-0.7437,-0.6229,-0.7385,-0.7434,-0.6232,-0.7434,-0.7988,-0.7988,-0.7988,-0.7988,-0.7988,-0.7988,-0.7988,-0.7988,-0.7988,-0.7988,-0.7988,-0.7988,-0.7988,-0.7988,-0.7988,-0.8726,-0.9801,-0.9948,-1.1502,-1.3488,-1.3632,0.0,0.0,0.0,0.0,0.0,0.0,0.0,0.0,0.0,0.0,0.0,0.0,0.0,0.0,0.0,0.0,0.0,0.0,0.0,0.0,0.0,0.0,0.0,0.0,-0.7988,-0.7988,-0.7988,-0.8005,-0.8015,-0.8015,-0.8015,-0.8126,-0.8279,-0.8347,-0.8353,-0.8499,-0.8509,-0.8516,-0.8533,0.0,0.0,0.0,0.0,-0.9032,-0.9234,-0.9234,-0.9303,-0.9381,-0.9381,-0.9391,-0.9408,-0.9408,-0.9415,-0.9432,-0.9432,-0.9432,-0.9432,-0.9432,-0.9432,-0.9429,-0.9395,-0.9381,-0.9381,-0.9381,-0.9381,0.0,0.0,0.0,0.0,0.0,0.0,0.0,0.0,0.0,0.0,-0.7988,-0.7988,-0.7988,-0.7988,-0.7033,-0.6279,-0.6029,-0.4021,-0.3217,0.0,0.0,-0.7988,-0.7988,-0.7988,-0.7889,-0.7637,-0.7889,-0.7889,-0.7637,-0.7889,-0.7988,-0.7988,-0.7988,-0.7988,-0.7988,-0.7988,-0.7988,-0.7988,-0.7988,-0.7988,-0.7988,-0.7988,-0.7988,-0.7988,-0.7988,-0.8137,-0.8531,-0.9608,-1.0337,-1.0921,-1.1945,-1.3156,-1.4262,-1.4262,0.0,0.0,0.0,0.0,0.0,0.0,0.0,0.0,0.0,0.0,0.0,0.0,0.0,0.0,0.0,0.0,0.0,0.0,0.0,0.0,-0.7988,-0.7988,-0.7988,-0.7988,-0.8147,-0.8225,-0.8225,-0.8225,-0.8282,-0.8428,-0.8442,-0.8503,-0.8655,-0.8665,-0.872,-0.8845,-0.8824,0.0,-0.9122,-0.9152,-0.9241,-0.9337,-0.9337,-0.9351,-0.9381,0.0,0.0,-0.9564,-0.9564,-0.9629,-0.9737,-0.9737,-0.9737,-0.9737,-0.9737,-0.9737,-0.9713,-0.9476,-0.9381,-0.9381,-0.9381,-0.9381,-0.9381,0.0,0.0,0.0,0.0,0.0,0.0,0.0,0.0,0.0,0.0,-0.7988,-0.7988,-0.7988,-0.6783,-0.5979,-0.5979,-0.4169,0.0,0.0,-0.6279,-0.7285,-0.7988,-0.7988,-0.7988,-0.7988,-0.7988,-0.7988,-0.7988,-0.7988,-0.7988,-0.7988,-0.7988,-0.7988,-0.7988,-0.7988,-0.7988,-0.7988,-0.7988,-0.7988,-0.7988,-0.7988,-0.7988,-0.7988,-0.7988,-0.8432,-0.9069,-0.9756,-1.0823,-1.2032,-1.2668,-1.3782,-1.4752,-1.4118,-1.4316,-1.4704,0.0,0.0,0.0,0.0,0.0,0.0,0.0,0.0,0.0,0.0,0.0,0.0,0.0,0.0,-0.9019,0.0,0.0,-0.7988,-0.7988,-0.7988,-0.8015,-0.8143,-0.8221,-0.8323,-0.8323,-0.8333,-0.8435,-0.8581,-0.8598,-0.8659,-0.8815,-0.8889,-0.8964,-0.9042,-0.9117,-0.9195,-0.9323,-0.9323,-0.934,-0.9493,-0.9496,-0.953,-0.9602,-0.9602,-0.9642,-0.9717,-0.9717,-0.9754,-0.9822,-0.9822,-0.9822,-0.9822,-0.9822,-0.9822,-0.9805,-0.9659,-0.9602,-0.9602,-0.9602,-0.9602,-0.9602,0.0,0.0,0.0,0.0,0.0,0.0,0.0,0.0,0.0,0.0,-0.7988,-0.7988,-0.7988,-0.6783,-0.5879,0.0,0.0,0.0,0.0,-0.6232,-0.6883,-0.7939,-0.7988,-0.7988,-0.7988,-0.7988,-0.7988,-0.7988,-0.7988,-0.7988,-0.7988,-0.7988,-0.7988,-0.7988,-0.7988,-0.7988,-0.7988,-0.7988,-0.7988,-0.7988,-0.7988,-0.7988,-0.7988,-0.7988,-0.8676,-0.9657,-0.9899,-1.1356,-1.3199,-1.344,-1.437,-1.5242,-1.4214,-1.407,-1.4076,-1.2963,-1.2673,0.0,0.0,0.0,0.0,0.0,0.0,0.0,0.0,0.0,-0.9312,-0.8233,-0.7988,-0.7988,-0.7988,-0.7988,-0.8002,-0.8029,-0.8032,-0.8136,-0.8289,-0.8336,-0.8357,-0.8357,-0.8459,-0.8584,-0.874,-0.8754,-0.8818,-0.8971,-0.9086,-0.9221,-0.9251,-0.9313,-0.9395,-0.9425,-0.9425,-0.9496,-0.9649,-0.9649,-0.9707,-0.9822,-0.9822,-0.9822,-0.9822,-0.9822,-0.9822,-0.9822,-0.9852,-0.9866,-0.9869,-0.99,-0.991,-0.991,-0.991,-0.991,-0.9903,-0.9842,-0.9822,-0.9822,0.0,0.0,0.0,0.0,0.0,0.0,0.0,0.0,0.0,0.0,0.0,0.0,0.0,0.0,0.0,0.0,0.0,0.0,-0.5979,-0.7135,-0.7839,-0.7988,-0.7988,-0.7988,-0.7988,-0.7988,-0.7988,-0.7988,-0.7988,-0.7988,-0.7988,-0.7988,-0.7988,-0.7988,-0.7988,-0.7988,-0.7988,-0.7988,-0.7988,-0.7988,-0.7988,-0.7988,-0.7988,-0.7988,-0.8088,-0.8382,-0.9558,-1.0194,-1.0632,-1.175,-1.3006,-1.407,-1.3926,-1.4657,-1.5581,-1.5391,0.0,-1.5343,-1.5343,-1.3692,-1.1653,-1.0681,-0.941,-0.8432,0.0,0.0,-0.8184,-0.8038,-0.7988,-0.7988,-0.7988,-0.7988,-0.8032,-0.8221,-0.8245,-0.8296,-0.8438,-0.8574,-0.8662,-0.8662,-0.8676,-0.8747,-0.8844,-0.8858,-0.8974,-0.9173,-0.92,-0.9268,-0.9347,-0.9371,-0.9442,-0.9581,-0.9585,-0.9652,-0.9795,-0.9798,-0.9805,-0.9822,-0.9822,-0.9822,-0.9822,-0.9822,-0.9822,-0.9829,-0.9903,-0.996,-0.997,-1.0171,-1.0229,-1.0229,-1.0229,-1.0229,-1.0195,-0.992,-0.9822,-0.9822,0.0,0.0,0.0,0.0,0.0,0.0,0.0,0.0,0.0,0.0,0.0,0.0,0.0,0.0,0.0,0.0,0.0,0.0,-0.7135,-0.6983,-0.7185,-0.7988,-0.7988,-0.7988,-0.7988,-0.7988,-0.7988,-0.7988,-0.7988,-0.7988,-0.7988,-0.7988,-0.7988,-0.7988,-0.7988,-0.7988,-0.7988,-0.7988,-0.7988,-0.7988,-0.7988,-0.7988,-0.8088,-0.8871,-0.9167,-0.9316,-1.0632,-1.1604,0.0,0.0,-1.4561,-1.4902,-1.4118,-1.4262,-1.4561,-1.374,-1.3547,0.0,-1.3547,-1.2188,-1.0828,-1.1068,-0.9558,-0.8187,-0.897,-0.8577,-0.7988,-0.7988,-0.7988,-0.7988,-0.7988,-0.7988,-0.8092,0.0,-0.8323,-0.835,-0.8581,-0.8669,-0.8743,-0.8832,-0.8916,-0.8994,-0.9055,-0.9062,-0.9127,-0.933,-0.9367,-0.9445,-0.951,-0.9591,-0.9666,-0.973,-0.9734,-0.9761,-0.9822,-0.9822,-0.9822,-0.9822,-0.9822,-0.9822,-0.9825,-0.9852,-1.0002,-1.009,-1.0158,-1.0185,-1.0188,-1.0253,-1.028,-1.028,-1.028,-1.028,-1.0263,-1.0134,-1.0086,-1.0086,0.0,0.0,0.0,0.0,0.0,0.0,0.0,0.0,0.0,0.0,0.0,0.0,0.0,0.0,0.0,0.0,0.0,0.0,0.0,-0.7083,-0.6983,-0.7939,-0.7988,-0.7988,-0.7988,-0.7988,-0.7988,-0.7988,-0.7988,-0.7988,-0.7988,-0.7988,-0.7988,-0.7988,-0.7988,-0.7988,-0.8038,-0.8382,-0.8528,-0.8577,-0.892,-0.9065,-0.9167,-1.0141,-1.0534,-1.0632,-1.156,-1.2522,0.0,0.0,-1.4956,-1.5092,-1.4166,-1.4118,-1.422,-1.3253,-1.2969,-1.2915,-1.2528,-1.1507,-1.0681,-1.1219,-0.9948,-0.8825,-0.9756,-0.9509,-0.897,-0.8627,-0.8528,-0.8432,-0.8088,-0.8025,-0.8153,-0.8303,-0.8364,-0.8482,-0.8737,-0.8774,-0.8828,-0.8981,-0.9089,-0.9245,-0.9326,-0.9299,-0.9337,-0.9432,-0.9547,-0.9629,-0.9666,-0.9764,-0.9822,-0.9822,-0.9822,-0.9822,-0.9822,-0.9822,-0.9822,-0.9822,-0.9863,-0.9883,-0.989,-0.998,-1.0175,-1.0283,-1.0321,-1.0337,-1.0341,-1.0385,-1.0402,-1.0402,-1.0402,-1.0402,-1.0463,-1.097,-1.0792,-1.028,0.0,0.0,0.0,0.0,0.0,0.0,0.0,0.0,0.0,0.0,0.0,0.0,0.0,0.0,0.0,0.0,0.0,0.0,0.0,-0.7939,-0.7939,-0.7988,-0.7988,-0.7988,-0.7988,-0.7988,-0.7988,-0.7988,-0.7988,-0.7988,-0.7988,-0.7988,-0.7988,-0.7988,-0.7988,-0.7988,-0.8088,-0.941,-0.9953,-1.0047,-1.1263,-1.1799,-1.1799,-1.1848,-1.1853,-1.1848,-1.1896,0.0,0.0,0.0,-1.2866,-1.3974,-1.3926,-1.4752,0.0,-1.5683,-1.5683,0.0,0.0,0.0,-1.1556,-1.0342,-0.9998,-0.9948,-0.9998,-1.0925,-1.1409,-1.0194,-0.9953,-0.9558,-0.8237,-0.8163,-0.8309,-0.8452,-0.8601,-0.8754,-0.8854,-0.8875,-0.8984,-0.9187,-0.9207,-0.9326,0.0,-0.9462,-0.9439,-0.9591,-0.9608,-0.9669,-0.9805,-0.9819,-0.9822,-0.9822,-0.9822,-0.9822,-0.9822,-0.9822,-0.9822,-0.9822,-0.9909,-0.998,-0.9984,-1.0202,-1.0276,-1.0287,-1.0426,-1.0483,-1.0497,-1.0646,-1.0707,-1.0707,-1.0707,-1.0707,-1.0902,-1.259,-1.1995,-1.028,0.0,0.0,0.0,0.0,0.0,0.0,0.0,0.0,0.0,0.0,0.0,0.0,0.0,0.0,0.0,0.0,0.0,0.0,0.0,-0.7988,-0.7988,-0.7988,-0.7988,-0.7988,-0.7988,-0.7988,-0.7988,-0.7988,-0.7988,-0.7988,-0.7988,-0.7988,-0.7988,-0.7988,-0.7988,-0.8482,-0.9361,-0.9805,-1.0485,-1.1317,-1.1755,-1.1896,-1.1994,-1.2909,-1.3247,-1.3343,0.0,0.0,0.0,0.0,0.0,0.0,-1.5146,0.0,0.0,-1.5784,0.0,0.0,0.0,0.0,-1.3102,-1.2711,-1.194,-1.1268,-1.1268,-1.1604,-1.1799,-1.1361,-1.1427,-1.1473,-1.0975,-1.0382,-0.9952,-1.0075,-0.9308,-0.8764,-0.8861,-0.8885,-0.8991,-0.919,-0.9299,0.0,0.0,0.0,0.0,-0.9737,-0.9751,-0.9771,-0.9819,-0.9822,-0.9822,-0.9822,-0.9822,-0.9822,-0.9822,-0.9859,-0.9909,-0.9913,-1.0131,-1.0253,-1.0344,-1.0395,-1.0477,-1.064,-1.185,-1.2388,-1.2457,-1.3622,-1.4166,-1.4166,-1.4166,-1.4166,-1.4232,-1.4814,-1.46,-1.4033,0.0,0.0,0.0,0.0,0.0,0.0,0.0,0.0,0.0,0.0,0.0,0.0,0.0,0.0,0.0,0.0,0.0,0.0,0.0,0.0,-0.7988,-0.7988,-0.7988,-0.7988,-0.7988,-0.7988,-0.8233,-0.8726,-0.8233,-0.8237,-0.8726,-0.8233,-0.8237,-0.8726,-0.8726,-0.946,-1.073,-1.1214,-1.1891,-1.2673,-1.3108,-1.3307,-1.3403,-1.4268,-1.4561,0.0,0.0,0.0,0.0,0.0,0.0,0.0,0.0,0.0,0.0,0.0,0.0,0.0,0.0,-1.4513,-1.3776,-1.3295,-1.2909,-1.2624,-1.2624,-1.2963,-1.3156,-1.2721,-1.2861,-1.2922,-1.2479,-1.1499,-1.0941,-1.1539,-1.0452,-0.9791,-1.0386,-1.0021,-0.978,-0.9993,-0.9662,-0.9462,0.0,0.0,0.0,-0.9815,-0.9822,-0.9822,-0.9822,-0.9822,-0.9822,-0.9822,-0.9822,-0.9846,-0.99,-0.9936,-1.0041,-1.0209,-1.0307,-1.0432,-1.0571,-1.1218,-1.153,-1.1762,-1.3451,-1.4232,-1.4297,-1.5459,-1.5913,-1.5913,-1.5913,-1.5913,-1.5978,-1.6625,-1.6824,-1.6754,0.0,0.0,0.0,0.0,0.0,0.0,0.0,0.0,0.0,0.0,0.0,0.0,0.0,0.0,0.0,0.0,0.0,0.0,0.0,0.0,0.0,-0.7988,-0.7988,-0.8038,-0.8088,-0.8088,-0.8775,-1.0096,-0.8821,-0.8874,-1.0047,-0.8775,-0.8874,-1.0096,-1.0096,-1.0828,-1.2091,-1.3343,-1.3926,-1.4118,-1.5289,-1.5784,-1.5784,-1.5784,0.0,0.0,0.0,0.0,0.0,0.0,0.0,0.0,0.0,0.0,0.0,0.0,0.0,-1.5534,-1.4316,-1.4022,-1.3686,-1.2431,-1.306,-1.4022,-1.4022,-1.4949,-1.5439,-1.4268,-1.4224,-1.4063,0.0,0.0,-1.1562,-1.2883,-1.2056,-1.1701,-1.3102,-1.2032,-1.1198,0.0,0.0,0.0,0.0,0.0,0.0,-0.9822,0.0,-0.9822,-0.9822,-0.9822,-0.9822,-0.9822,-0.9829,-0.99,-0.9984,-1.0004,-1.0219,-1.0504,-1.063,-1.0709,-1.0916,-1.2606,-1.3451,-1.3517,-1.5269,-1.6043,-1.6043,-1.6108,-1.6172,-1.6172,-1.6172,-1.6172,-1.6366,-1.7988,-1.8634,-1.8378,0.0,0.0,0.0,0.0,0.0,0.0,0.0,0.0,0.0,0.0,0.0,0.0,0.0,0.0,0.0,0.0,0.0,0.0,0.0,0.0,0.0,0.0,0.0,0.0,0.0,0.0,0.0,0.0,-1.1068,-1.1068,-1.1414,-1.1068,-1.1068,-1.1414,-1.1414,-1.2134,-1.3392,-1.3728,-1.4459,-1.5337,0.0,-1.5784,-1.5784,0.0,0.0,0.0,0.0,0.0,0.0,0.0,0.0,0.0,0.0,-1.5784,-1.5784,0.0,0.0,-1.573,-1.5384,-1.5343,-1.5242,-1.4902,-1.5051,-1.5343,-1.5343,-1.5581,-1.573,-1.5391,-1.557,-1.5731,0.0,0.0,0.0,-1.4699,-1.3659,0.0,-1.3264,-1.2147,0.0,-1.1453,0.0,-0.9622,-0.9802,-0.9822,0.0,0.0,-0.9822,-0.9822,-0.9822,-0.9822,-0.9822,-0.9822,-0.9869,-0.995,-0.9987,-1.027,-1.0473,-1.066,-1.1957,-1.2628,-1.2672,-1.4423,-1.5269,-1.5329,-1.7082,-1.7859,-1.7923,-1.9221,-1.9744,-1.9744,-1.9744,-1.9744,-1.9807,-2.0259,-2.0456,-2.0392,0.0,0.0,0.0,0.0,0.0,0.0,0.0,0.0,0.0,0.0,0.0,0.0,0.0,0.0,0.0,0.0,0.0,0.0,0.0,0.0,0.0,0.0,0.0,0.0,0.0,0.0,0.0,0.0,0.0,0.0,-1.2764,-1.2188,-1.2188,-1.277,-1.277,-1.3494,-1.4752,-1.4752,0.0,0.0,0.0,0.0,0.0,0.0,0.0,0.0,0.0,0.0,0.0,0.0,0.0,-1.5784,-1.5784,-1.5784,-1.5784,-1.5784,0.0,-1.5784,-1.5784,-1.5784,-1.5784,-1.5784,-1.5784,-1.5784,-1.5784,-1.5784,-1.5784,-1.5784,-1.6066,-1.6375,-1.6486,-1.5668,0.0,0.0,0.0,0.0,-1.5097,-1.4102,-1.339,0.0,-1.2458,0.0,-1.19,-1.1916,-1.1916,0.0,-1.06,-0.9822,-0.9822,-0.9822,-0.9852,-0.9859,-0.9943,-1.0048,-1.0243,-1.1242,-1.1799,-1.1828,-1.3582,-1.4423,-1.4488,-1.6242,-1.7017,-1.7146,0.0,-1.961,-1.9737,-2.0716,-2.1109,-2.1109,-2.1109,-2.1109,-2.1109,-2.1109,-2.1109,-2.1109,0.0,0.0,0.0,0.0,0.0,0.0,0.0,0.0,0.0,0.0,0.0,0.0,0.0,0.0,0.0,0.0,0.0,0.0,0.0,0.0,0.0,0.0,0.0,0.0,0.0,0.0,0.0,0.0,0.0,0.0,0.0,0.0,0.0,0.0,0.0,0.0,0.0,0.0,0.0,0.0,0.0,0.0,0.0,0.0,0.0,0.0,0.0,0.0,0.0,0.0,-1.5784,-1.5784,-1.5784,-1.5784,-1.5784,-1.5784,-1.5784,-1.5784,-1.5784,-1.5784,-1.5784,-1.5784,-1.5784,-1.5784,-1.5784,-1.5784,-1.5784,-1.5784,-1.6039,-1.6239,-1.6319,-1.5765,-1.5692,-1.7033,0.0,-1.6121,-1.7417,-1.6607,-1.5995,-1.6113,-1.5137,-1.4445,-1.4584,-1.4426,-1.4366,-1.4604,-1.1796,-1.0119,-1.0119,-0.9961,-0.993,-1.0041,-1.0044,-1.0302,-1.0839,-1.2465,-1.3386,-1.3648,-1.5394,-1.6242,-1.6302,-1.8052,-1.8832,-1.896,0.0,0.0,-2.1109,-2.1109,-2.1109,-2.1109,-2.1109,-2.1109,-2.1109,-2.1109,-2.1109,-2.1109,0.0,0.0,0.0,0.0,0.0,0.0,0.0,0.0,0.0,0.0,0.0,0.0,0.0,0.0,0.0,0.0,0.0,0.0,0.0,0.0,0.0,0.0,0.0,0.0,0.0,0.0,0.0,0.0,0.0,0.0,0.0,0.0,0.0,0.0,0.0,0.0,0.0,0.0,0.0,0.0,0.0,0.0,0.0,0.0,0.0,0.0,0.0,0.0,0.0,0.0,-1.5784,-1.5784,-1.5784,-1.5784,-1.5784,-1.5784,-1.5784,-1.5784,-1.5784,-1.5784,-1.5784,-1.5784,-1.5784,-1.5784,-1.5784,-1.5784,0.0,-1.5784,-1.5872,-1.6052,-1.654,-1.6506,-1.6629,-1.7428,-1.7331,-1.7312,-1.7582,-1.6714,-1.6089,0.0,-1.5167,-1.4559,-1.4599,-1.3407,0.0,0.0,0.0,-1.1796,-1.1796,-1.0606,-1.0071,-1.0405,-1.0415,-1.1203,-1.282,-1.3111,-1.4036,-1.5464,-1.7211,-1.8052,-1.8122,-1.9871,-2.0652,-2.0652,0.0,0.0,-2.1109,-2.1109,-2.1109,-2.1109,-2.1109,-2.1109,-2.1109,-2.1109,-2.1109,-2.1109,0.0,0.0,0.0,0.0,0.0,0.0,0.0,0.0,0.0,0.0,0.0,0.0,0.0,0.0,0.0,0.0,0.0,0.0,0.0,0.0,0.0,0.0,0.0,0.0,0.0,0.0,0.0,0.0,0.0,0.0,0.0,0.0,0.0,0.0,0.0,0.0,0.0,0.0,0.0,0.0,0.0,0.0,0.0,0.0,0.0,0.0,0.0,0.0,0.0,0.0,-1.5784,-1.5784,-1.5784,-1.5784,-1.5784,-1.5784,-1.5784,-1.5784,-1.5784,-1.5784,-1.5784,-1.5784,-1.5784,-1.5784,-1.5784,0.0,0.0,-1.5784,-1.5784,-1.5959,-1.64,-1.6607,0.0,-1.734,-1.7482,-1.7582,-1.7582,-1.7486,-1.7346,-1.7346,-1.7192,-1.7097,0.0,0.0,0.0,0.0,0.0,-1.4401,-1.3681,-1.3239,-1.3045,-1.3225,-1.3264,-1.3747,-1.4619,-1.5524,-1.6436,-1.7275,-1.9024,-1.9871,-1.9871,-2.0716,-2.1109,-2.1109,-2.1109,0.0,-2.1109,-2.1109,-2.1109,-2.1109,-2.1109,-2.1109,-2.1109,-2.1109,-2.1109,-2.1129,0.0,0.0,0.0,0.0,0.0,0.0,0.0,0.0,0.0,0.0,0.0,0.0,0.0,0.0,0.0,0.0,0.0,0.0,0.0,0.0,0.0,0.0,0.0,0.0,0.0,0.0,0.0,0.0,0.0,0.0,0.0,0.0,0.0,0.0,0.0,0.0,0.0,0.0,0.0,0.0,0.0,0.0,0.0,0.0,0.0,0.0,0.0,0.0,0.0,0.0,-1.5784,-1.5784,-1.5784,-1.5784,-1.5784,-1.5784,-1.5784,-1.5784,-1.5784,-1.5784,-1.5784,-1.5784,-1.5784,-1.5784,-1.5784,-1.5784,0.0,-1.5784,-1.5879,-1.6012,-1.6313,-1.66,-1.6894,0.0,-1.7435,-1.7582,-1.7582,-1.8103,-1.849,0.0,-1.9011,0.0,-1.9424,0.0,0.0,0.0,0.0,0.0,-1.5171,-1.5492,-1.5727,-1.5709,-1.5822,-1.6108,-1.6431,-1.7795,-1.8704,-1.9094,-2.0456,-2.1109,-2.1109,-2.1109,-2.1109,-2.1109,-2.1109,0.0,0.0,-2.1109,-2.1109,-2.1109,-2.1109,-2.1109,-2.1116,-2.1182,-2.1203,-2.1243,0.0,0.0,0.0,0.0,0.0,0.0,0.0,0.0,0.0,0.0,0.0,0.0,0.0,0.0,0.0,0.0,0.0,0.0,0.0,0.0,0.0,0.0,0.0,0.0,0.0,0.0,0.0,0.0,0.0,0.0,0.0,0.0,0.0,0.0,0.0,0.0,0.0,0.0,0.0,0.0,0.0,0.0,0.0,0.0,0.0,0.0,0.0,0.0,0.0,0.0,0.0,-1.5784,-1.5784,-1.5784,-1.5784,-1.5784,0.0,0.0,-1.5784,-1.5784,-1.5784,-1.5784,-1.5784,-1.5784,-1.5784,0.0,-1.5784,-1.5784,-1.6046,-1.6319,-1.6613,-1.6907,-1.7253,-1.7495,0.0,-1.7582,-1.7582,-1.8103,-1.849,-1.849,0.0,0.0,-1.9424,0.0,0.0,0.0,0.0,0.0,0.0,-1.5511,-1.5734,-1.5878,-1.5903,-1.663,-1.825,-1.8442,-1.9285,-2.0849,-2.1046,-2.1109,-2.1109,-2.1109,-2.1109,-2.1109,0.0,0.0,0.0,-2.1109,-2.1109,-2.1109,-2.1109,-2.1109,-2.1142,-2.141,-2.1574,-2.1614,0.0,0.0,0.0,0.0,0.0,0.0,0.0,0.0,0.0,0.0,0.0,0.0,0.0,0.0,0.0,0.0,0.0,0.0,0.0,0.0,0.0,0.0,0.0,0.0,0.0,0.0,0.0,0.0,0.0,0.0,0.0,0.0,0.0,0.0,0.0,0.0,0.0,0.0,0.0,0.0,0.0,0.0,0.0,0.0,0.0,0.0,0.0,0.0,0.0,0.0,0.0,0.0,-1.5784,-1.5784,0.0,0.0,-1.5784,-1.5784,-1.5784,-1.5784,-1.5784,-1.5784,-1.5784,-1.5784,-1.5784,0.0,-1.5784,-1.5784,-1.6066,-1.6359,-1.6653,-1.6947,-1.7293,-1.7535,0.0,0.0,-1.7582,-1.8103,-1.849,-1.849,-1.9011,0.0,0.0,0.0,0.0,0.0,0.0,0.0,0.0,-1.8785,-1.8979,-1.9024,-1.903,-1.9355,-2.0068,-2.0068,-2.0392,-2.1109,-2.1109,-2.1109,-2.1109,-2.1109,-2.1109,-2.1109,0.0,0.0,0.0,-2.1109,-2.1109,-2.1109,-2.1109,-2.1223,-2.139,-2.1574,-2.1728,-2.1857,0.0,0.0,0.0,0.0,0.0,0.0,0.0,0.0,0.0,0.0,0.0,0.0,0.0,0.0,0.0,0.0,0.0,0.0,0.0,0.0,0.0,0.0,0.0,0.0,0.0,0.0,0.0,0.0,0.0,0.0,0.0,0.0,0.0,0.0,0.0,0.0,0.0,0.0,0.0,0.0,0.0,0.0,0.0,0.0,0.0,0.0,0.0,0.0,0.0,0.0,0.0,0.0,-1.5784,0.0,0.0,0.0,-1.5784,-1.5784,-1.5784,-1.5784,-1.5784,-1.5784,-1.5784,-1.5784,0.0,0.0,-1.5804,-1.5945,-1.6192,-1.6493,-1.678,-1.7132,-1.7393,0.0,0.0,-1.7582,-1.7582,-1.8103,-1.849,0.0,0.0,0.0,0.0,0.0,0.0,0.0,0.0,0.0,0.0,-2.0995,-2.1109,-2.1109,-2.1109,-2.1109,-2.1109,-2.1109,-2.1109,-2.1109,-2.1109,-2.1109,-2.1109,-2.1109,-2.1109,-2.1109,0.0,0.0,0.0,-2.1109,-2.1109,-2.1116,-2.1203,-2.137,-2.1641,-2.1809,-2.1937,-2.2158,0.0,0.0,0.0,0.0,0.0,0.0,0.0,0.0,0.0,0.0,0.0,0.0,0.0,0.0,0.0,0.0,0.0,0.0,0.0,0.0,0.0,0.0,0.0,0.0,0.0,0.0,0.0,0.0,0.0,0.0,0.0,0.0,0.0,0.0,0.0,0.0,0.0,0.0,0.0,0.0,0.0,0.0,0.0,0.0,0.0,0.0,0.0,0.0,0.0,0.0,0.0,0.0,0.0,0.0,0.0,0.0,-1.5784,-1.5784,-1.5784,-1.5784,-1.5784,-1.5784,-1.5784,-1.5784,0.0,-1.5784,-1.5912,-1.6206,-1.65,-1.6794,-1.7139,-1.7434,-1.7582,-1.7582,-1.7582,0.0,-1.7582,-1.8103,-1.849,0.0,0.0,0.0,0.0,0.0,0.0,0.0,0.0,0.0,0.0,-2.1109,-2.1109,-2.1109,-2.1109,-2.1109,-2.1109,-2.1109,-2.1109,-2.1109,-2.1109,-2.1109,-2.1109,-2.1109,-2.1109,0.0,0.0,0.0,0.0,-2.1109,-2.1109,-2.1136,-2.1501,-2.1614,-2.1688,-2.2198,-2.2412,-2.2452,0.0,0.0,0.0,0.0,0.0,0.0,0.0,0.0,0.0,0.0,0.0,0.0,0.0,0.0,0.0,0.0,0.0,0.0,0.0,0.0,0.0,0.0,0.0,0.0,0.0,0.0,0.0,0.0,0.0,0.0,0.0,0.0,0.0,0.0,0.0,0.0,0.0,0.0,0.0,0.0,0.0,0.0,0.0,0.0,0.0,0.0,0.0,0.0,0.0,0.0,0.0,0.0,0.0,0.0,0.0,0.0,0.0,0.0,-1.5784,-1.5784,-1.5784,-1.5784,-1.5784,-1.5784,-1.5784,-1.5784,-1.5912,-1.6213,-1.6506,-1.68,-1.7146,-1.744,-1.7582,-1.7582,-1.7582,0.0,0.0,0.0,0.0,-1.849,0.0,0.0,0.0,0.0,0.0,0.0,0.0,0.0,0.0,-2.1109,-2.1109,-2.1109,-2.1109,-2.1109,-2.1109,-2.1109,-2.1109,-2.1109,-2.1109,-2.1109,-2.1109,-2.1109,0.0,0.0,0.0,0.0,0.0,-2.1109,-2.1109,-2.1136,-2.1436,-2.1742,-2.1897,-2.2278,-2.2545,-2.2739,0.0,0.0,0.0,0.0,0.0,0.0,0.0,0.0,0.0,0.0,0.0,0.0,0.0,0.0,0.0,0.0,0.0,0.0,0.0,0.0,0.0,0.0,0.0,0.0,0.0,0.0,0.0,0.0,0.0,0.0,0.0,0.0,0.0,0.0,0.0,0.0,0.0,0.0,0.0,0.0,0.0,0.0,-1.5784,0.0,0.0,0.0,0.0,0.0,0.0,0.0,0.0,0.0,0.0,0.0,0.0,0.0,0.0,0.0,0.0,-1.5784,-1.5784,-1.5784,-1.5784,0.0,-1.5784,-1.5912,-1.6079,-1.638,-1.6667,-1.6961,-1.7306,-1.7514,-1.7582,-1.7582,-1.7582,-1.7582,0.0,0.0,0.0,-1.8791,0.0,0.0,0.0,0.0,0.0,0.0,0.0,0.0,0.0,0.0,-2.1109,-2.1109,-2.1109,-2.1109,-2.1109,-2.1109,-2.1109,-2.1109,-2.1109,-2.1109,-2.1109,-2.1109,0.0,0.0,0.0,0.0,0.0,-2.1109,-2.1176,-2.1303,-2.1603,-2.1891,-2.2184,-2.2478,-2.2706,-2.2928,0.0,0.0,0.0,0.0,0.0,0.0,0.0,0.0,0.0,0.0,0.0,0.0,0.0,0.0,0.0,0.0,0.0,0.0,0.0,0.0,0.0,0.0,0.0,0.0,0.0,0.0,0.0,0.0,-1.9497,-1.9497,0.0,0.0,0.0,0.0,0.0,0.0,0.0,0.0,0.0,0.0,0.0,0.0,0.0,0.0,0.0,0.0,0.0,0.0,0.0,0.0,0.0,0.0,0.0,0.0,0.0,0.0,0.0,0.0,0.0,0.0,0.0,0.0,0.0,0.0,-1.5804,-1.6072,0.0,-1.6673,-1.6954,-1.7293,-1.7528,-1.7582,-1.7582,-1.7582,-1.7582,-1.7582,0.0,-1.8103,0.0,0.0,0.0,0.0,0.0,0.0,0.0,0.0,0.0,0.0,0.0,0.0,-2.1109,-2.1109,-2.1109,-2.1109,-2.1109,-2.1109,-2.1109,-2.1109,-2.1109,-2.1109,-2.1109,-2.1109,0.0,0.0,0.0,0.0,0.0,-2.1109,-2.1283,-2.1648,-2.1877,-2.2164,-2.2452,-2.2752,-2.2928,-2.2928,0.0,0.0,0.0,0.0,0.0,0.0,0.0,0.0,0.0,0.0,0.0,0.0,0.0,0.0,0.0,0.0,0.0,0.0,0.0,0.0,0.0,0.0,0.0,0.0,0.0,0.0,0.0,-1.9497,-1.9497,-1.9497,-1.9497,-1.9497,0.0,0.0,0.0,0.0,0.0,0.0,0.0,0.0,0.0,0.0,0.0,0.0,0.0,0.0,-1.5784,-1.5784,0.0,0.0,0.0,0.0,0.0,0.0,0.0,0.0,-1.5784,0.0,0.0,0.0,0.0,0.0,0.0,0.0,0.0,0.0,0.0,0.0,0.0,0.0,-1.7528,-1.7582,-1.7582,-1.7582,-1.7582,-1.7582,-1.7582,0.0,0.0,0.0,0.0,0.0,0.0,0.0,0.0,0.0,0.0,0.0,0.0,0.0,-2.1109,-2.1109,-2.1109,-2.1109,-2.1109,-2.1109,-2.1109,-2.1109,-2.1109,-2.1109,-2.1109,-2.1109,0.0,0.0,0.0,0.0,-2.1109,-2.1109,-2.1283,-2.1648,-2.1877,-2.2164,-2.2452,-2.2752,-2.2928,-2.2928,0.0,0.0,0.0,0.0,0.0,0.0,0.0,0.0,0.0,0.0,0.0,0.0,0.0,0.0,0.0,0.0,0.0,0.0,0.0,0.0,0.0,0.0,0.0,0.0,0.0,0.0,0.0,0.0,0.0,-2.0854,0.0,0.0,0.0,0.0,0.0,0.0,0.0,0.0,0.0,0.0,0.0,0.0,0.0,0.0,0.0,0.0,-1.5784,-1.5784,0.0,-1.5784,-1.5784,-1.5784,0.0,0.0,0.0,0.0,-1.5784,0.0,0.0,0.0,-1.5784,-1.5784,-1.5932,-1.6072,-1.6239,0.0,0.0,0.0,0.0,0.0,0.0,-1.7582,-1.7582,-1.7582,-1.7582,0.0,0.0,0.0,0.0,0.0,0.0,0.0,0.0,0.0,0.0,0.0,0.0,0.0,0.0,0.0,-2.1109,-2.1109,-2.1109,-2.1109,-2.1109,-2.1109,-2.1109,-2.1109,-2.1109,-2.1109,-2.1109,-2.1109,0.0,0.0,0.0,0.0,-2.1109,-2.1109,-2.1363,-2.1829,-2.1924,-2.2245,-2.2639,-2.2806,-2.2928,-2.2928,0.0,0.0,0.0,0.0,0.0,0.0,0.0,0.0,0.0,0.0,0.0,0.0,0.0,0.0,0.0,0.0,0.0,0.0,0.0,0.0,0.0,0.0,0.0,0.0,0.0,0.0,0.0,0.0,0.0,0.0,0.0,0.0,0.0,0.0,0.0,0.0,0.0,0.0,0.0,0.0,0.0,0.0,0.0,0.0,0.0,0.0,0.0,0.0,0.0,-1.6109,-1.6109,-1.6109,-1.6109,0.0,0.0,0.0,0.0,0.0,0.0,-1.5917,-1.5952,-1.5905,-1.6119,-1.6353,-1.6449,-1.6844,-1.7213,0.0,0.0,0.0,0.0,-1.7582,0.0,0.0,0.0,0.0,0.0,0.0,0.0,0.0,0.0,0.0,0.0,0.0,0.0,0.0,0.0,0.0,0.0,0.0,0.0,-2.1109,-2.1109,-2.1109,-2.1109,-2.1109,-2.1109,-2.1109,-2.1109,-2.1109,-2.1109,-2.1109,-2.1109,0.0,0.0,0.0,-2.1109,-2.1109,-2.1456,-2.1984,-2.1984,-2.2345,-2.2928,-2.2928,-2.2928,-2.2928,0.0,0.0,0.0,0.0,0.0,0.0,0.0,0.0,0.0,0.0,0.0,0.0,0.0,0.0,0.0,0.0,0.0,0.0,0.0,0.0,0.0,0.0,0.0,0.0,0.0,0.0,0.0,0.0,0.0,0.0,-2.1337,-2.2536,-2.2536,0.0,0.0,0.0,0.0,0.0,0.0,0.0,0.0,0.0,0.0,0.0,0.0,0.0,0.0,0.0,0.0,-1.7412,-1.7412,-1.7412,-1.7412,0.0,0.0,0.0,0.0,0.0,-1.6506,-1.6573,-1.6513,-1.6266,-1.6426,-1.67,-1.7012,-1.7132,-1.7266,0.0,0.0,0.0,0.0,-1.7582,-1.7582,0.0,0.0,0.0,0.0,0.0,0.0,0.0,0.0,0.0,0.0,0.0,0.0,0.0,0.0,0.0,0.0,0.0,0.0,-2.1109,-2.1109,-2.1109,-2.1109,-2.1109,-2.1109,-2.1109,-2.1109,-2.1109,-2.1109,-2.1109,-2.1109,0.0,0.0,-2.1109,-2.1109,-2.1109,-2.1456,-2.1984,-2.1984,-2.2345,-2.2928,-2.2928,-2.2928,-2.2928,0.0,0.0,0.0,0.0,0.0,0.0,0.0,0.0,0.0,0.0,0.0,0.0,0.0,0.0,0.0,0.0,0.0,0.0,0.0,0.0,0.0,0.0,0.0,0.0,0.0,0.0,0.0,0.0,0.0,-2.2262,-2.2262,-2.2818,-2.2448,-2.1337,0.0,0.0,0.0,0.0,0.0,0.0,0.0,0.0,0.0,0.0,0.0,0.0,0.0,0.0,0.0,0.0,-1.7804,-1.804,-1.8769,0.0,0.0,0.0,0.0,0.0,-1.686,-1.682,-1.6965,-1.6831,-1.6898,-1.7032,-1.7172,-1.7326,-1.7474,0.0,0.0,0.0,0.0,0.0,-1.7582,-1.7582,0.0,0.0,0.0,0.0,0.0,0.0,0.0,0.0,0.0,0.0,0.0,0.0,0.0,0.0,0.0,0.0,0.0,0.0,-2.1109,-2.1109,-2.1109,-2.1109,-2.1109,-2.1109,-2.1109,-2.1109,-2.1109,-2.1109,-2.1109,-2.1109,0.0,-2.1109,-2.1109,-2.1109,-2.1363,-2.1829,-2.1924,-2.2245,-2.2639,-2.2806,-2.2928,-2.2928,0.0,0.0,0.0,0.0,0.0,0.0,0.0,0.0,0.0,0.0,0.0,0.0,0.0,0.0,0.0,0.0,0.0,0.0,0.0,0.0,0.0,0.0,0.0,0.0,0.0,0.0,0.0,-2.3091,-2.3091,-2.3091,-2.3091,-2.2818,-2.235,0.0,0.0,0.0,0.0,0.0,0.0,0.0,0.0,0.0,0.0,0.0,0.0,0.0,0.0,0.0,0.0,0.0,0.0,0.0,0.0,0.0,0.0,0.0,-1.8817,-1.8535,-1.7241,-1.7074,-1.73,-1.73,-1.73,-1.73,-1.73,-1.7474,-1.7582,0.0,0.0,0.0,0.0,-1.7582,0.0,0.0,0.0,0.0,0.0,0.0,0.0,0.0,0.0,0.0,0.0,0.0,0.0,0.0,0.0,0.0,0.0,0.0,0.0,0.0,-2.1109,-2.1109,-2.1109,-2.1109,-2.1109,-2.1109,-2.1109,-2.1109,-2.1109,-2.1109,-2.1109,-2.1109,-2.1109,-2.1109,-2.1109,-2.1109,-2.1283,-2.1648,-2.1877,-2.2205,-2.2552,-2.2779,-2.2928,-2.2928,0.0,0.0,0.0,0.0,0.0,0.0,0.0,0.0,0.0,0.0,0.0,0.0,0.0,0.0,0.0,0.0,0.0,0.0,0.0,0.0,0.0,0.0,0.0,0.0,0.0,-2.1943,-2.1889,-2.3091,-2.3091,-2.3091,-2.3091,-2.1943,-2.1987,0.0,0.0,0.0,0.0,0.0,0.0,0.0,0.0,0.0,0.0,0.0,0.0,0.0,0.0,0.0,0.0,0.0,0.0,0.0,0.0,0.0,0.0,0.0,-1.9162,-1.8926,-1.7852,-1.7535,-1.7549,-1.7549,-1.7549,-1.7549,-1.7549,-1.7569,0.0,-1.7582,0.0,0.0,0.0,-1.7582,0.0,0.0,0.0,0.0,0.0,0.0,0.0,0.0,0.0,0.0,0.0,0.0,0.0,0.0,0.0,0.0,0.0,0.0,0.0,0.0,0.0,-2.1109,-2.1109,-2.1109,-2.1109,-2.1109,-2.1109,-2.1109,-2.1109,-2.1109,-2.1109,-2.1109,-2.1109,-2.1109,-2.1109,-2.1109,-2.1283,-2.1648,-2.1877,-2.2331,-2.2901,-2.2921,-2.2928,-2.2928,0.0,0.0,0.0,0.0,0.0,0.0,0.0,0.0,0.0,0.0,0.0,0.0,0.0,0.0,0.0,0.0,0.0,0.0,0.0,0.0,0.0,0.0,0.0,-2.2262,-2.1987,-2.2262,-2.2633,-2.3091,-2.3091,-2.3091,-2.3047,-2.1845,0.0,0.0,0.0,0.0,0.0,0.0,0.0,0.0,0.0,-1.8118,0.0,0.0,0.0,0.0,0.0,0.0,0.0,0.0,-2.1236,0.0,0.0,0.0,0.0,0.0,-2.0147,-1.917,-1.7962,-1.7582,-1.7582,-1.7582,-1.7582,0.0,0.0,-1.7582,-1.7582,-1.7582,-1.7582,0.0,0.0,0.0,0.0,0.0,0.0,0.0,0.0,0.0,0.0,0.0,0.0,0.0,0.0,0.0,0.0,0.0,0.0,0.0,0.0,0.0,0.0,0.0,0.0,-2.1109,-2.1109,-2.1109,-2.1109,-2.1109,-2.1109,-2.1109,-2.1109,-2.1109,-2.1109,-2.1109,-2.1109,-2.1109,-2.1109,-2.1109,-2.1176,-2.1323,-2.1797,-2.2345,-2.2928,-2.2928,-2.2928,-2.2928,0.0,0.0,0.0,0.0,0.0,0.0,0.0,0.0,0.0,0.0,0.0,0.0,0.0,0.0,0.0,0.0,0.0,0.0,0.0,0.0,0.0,0.0,0.0,-2.2164,-2.1337,-2.212,-2.2536,-2.2536,-2.2906,-2.3091,-2.3047,0.0,0.0,0.0,0.0,0.0,0.0,0.0,0.0,0.0,-1.9497,-1.9497,0.0,0.0,0.0,0.0,0.0,0.0,0.0,0.0,-2.2355,0.0,0.0,0.0,0.0,0.0,-2.0684,-1.9324,-1.7943,-1.7582,-1.7582,-1.7582,0.0,0.0,-1.7582,-1.7582,-1.7582,-1.7582,-1.7582,-1.7582,-1.7582,0.0,0.0,0.0,0.0,0.0,0.0,0.0,0.0,0.0,0.0,0.0,0.0,0.0,0.0,0.0,0.0,0.0,0.0,0.0,0.0,0.0,0.0,-2.1109,-2.1109,-2.1109,-2.1109,-2.1109,-2.1109,-2.1109,-2.1109,-2.1109,-2.1109,-2.1109,-2.1109,-2.1109,-2.1109,-2.1109,-2.1216,-2.143,-2.183,-2.2345,-2.2928,-2.2928,-2.2928,-2.2928,0.0,0.0,0.0,0.0,0.0,0.0,0.0,0.0,0.0,0.0,0.0,0.0,0.0,0.0,0.0,0.0,0.0,0.0,0.0,0.0,0.0,0.0,0.0,-2.1293,-2.1293,-2.1293,-2.1293,-2.1337,-2.2492,-2.3101,-2.3047,0.0,0.0,0.0,0.0,0.0,0.0,0.0,0.0,0.0,-1.9542,-1.9542,-1.9675,0.0,0.0,0.0,0.0,0.0,0.0,0.0,-2.3309,-2.3692,0.0,0.0,0.0,-2.1702,-2.0684,-1.9272,-1.7943,-1.7582,-1.7582,-1.7582,0.0,0.0,-1.7582,-1.7582,-1.7582,-1.7582,-1.7582,-1.7582,-1.7582,0.0,0.0,0.0,0.0,0.0,0.0,0.0,0.0,0.0,0.0,0.0,0.0,0.0,0.0,0.0,0.0,0.0,0.0,0.0,0.0,0.0,0.0,0.0,-2.1109,-2.1109,-2.1109,-2.1109,-2.1109,-2.1109,-2.1109,-2.1109,-2.1109,-2.1109,-2.1109,-2.1109,-2.1109,-2.1109,-2.1456,-2.1984,-2.1984,-2.2345,-2.2928,-2.2928,-2.2928,-2.2928,0.0,0.0,0.0,0.0,0.0,0.0,0.0,0.0,0.0,0.0,0.0,0.0,0.0,0.0,0.0,0.0,0.0,0.0,0.0,0.0,0.0,0.0,0.0,0.0,0.0,0.0,-2.1712,-2.2589,-2.2076,-2.2262,0.0,0.0,0.0,-2.1293,0.0,0.0,0.0,0.0,0.0,-2.0782,-2.1026,-2.1103,-2.1092,0.0,0.0,0.0,0.0,0.0,0.0,0.0,0.0,0.0,0.0,0.0,0.0,-2.0487,-1.9265,-1.8094,-1.7687,-1.7582,0.0,-1.7582,0.0,0.0,0.0,-1.7582,0.0,0.0,-1.7582,-1.7582,-1.7582,0.0,0.0,0.0,0.0,0.0,0.0,0.0,0.0,0.0,0.0,0.0,0.0,0.0,0.0,0.0,0.0,0.0,0.0,0.0,0.0,0.0,0.0,0.0,-2.1109,-2.1109,-2.1109,-2.1109,-2.1109,-2.1109,-2.1109,-2.1109,-2.1109,-2.1109,-2.1109,-2.1109,-2.1109,-2.1109,-2.1456,-2.1984,-2.1984,-2.2345,-2.2928,-2.2928,-2.2928,-2.2928,0.0,0.0,0.0,0.0,0.0,0.0,0.0,0.0,0.0,0.0,0.0,0.0,0.0,0.0,0.0,0.0,0.0,0.0,0.0,0.0,0.0,0.0,0.0,0.0,0.0,-2.1293,-2.1658,0.0,0.0,0.0,0.0,0.0,0.0,-2.0621,0.0,0.0,0.0,0.0,0.0,-2.1581,-2.2465,-2.2492,-2.2064,0.0,0.0,0.0,0.0,0.0,0.0,0.0,0.0,0.0,-2.4353,0.0,-2.155,-2.0684,-1.9472,-1.8297,-1.7733,-1.7582,0.0,-1.7582,-1.7582,-1.7582,-1.7582,0.0,0.0,0.0,0.0,-1.7582,-1.7582,0.0,0.0,0.0,0.0,0.0,0.0,0.0,0.0,0.0,0.0,0.0,0.0,0.0,0.0,0.0,0.0,0.0,0.0,0.0,0.0,0.0,0.0,0.0,-2.1109,-2.1109,-2.1109,-2.1109,-2.1109,-2.1109,-2.1109,-2.1109,-2.1109,-2.1109,-2.1109,-2.1109,-2.1109,-2.1109,-2.1456,-2.1984,-2.1984,-2.2345,-2.2928,-2.2928,-2.2928,-2.2928,0.0,0.0,0.0,0.0,0.0,0.0,0.0,0.0,0.0,0.0,0.0,0.0,0.0,0.0,0.0,0.0,0.0,0.0,0.0,0.0,0.0,0.0,0.0,0.0,0.0,0.0,0.0,0.0,0.0,0.0,0.0,0.0,-1.9625,-1.9861,0.0,-2.1356,0.0,-2.3005,-2.2958,-2.2023,-2.3642,-2.3523,-2.2609,-2.4174,0.0,0.0,0.0,0.0,0.0,0.0,0.0,0.0,-2.5118,-2.3741,-2.1643,-2.155,-2.059,-1.9324,-1.7943,-1.7582,-1.7582,-1.7582,-1.7582,0.0,-1.7582,-1.7582,-1.7582,-1.7582,0.0,-1.7582,0.0,0.0,0.0,0.0,0.0,0.0,0.0,0.0,0.0,0.0,0.0,0.0,0.0,0.0,0.0,0.0,0.0,0.0,0.0,0.0,0.0,0.0,0.0,0.0,-2.1109,-2.1109,-2.1109,0.0,-2.1109,-2.1109,-2.1109,-2.1109,-2.1109,-2.1109,-2.1109,-2.1109,-2.1109,-2.1109,-2.1443,-2.1951,-2.1977,-2.2331,-2.2894,-2.2921,-2.2928,-2.2928,0.0,0.0,0.0,0.0,0.0,0.0,0.0,0.0,0.0,0.0,0.0,0.0,0.0,0.0,0.0,0.0,0.0,0.0,0.0,0.0,0.0,0.0,0.0,0.0,0.0,0.0,0.0,0.0,0.0,0.0,0.0,0.0,0.0,-2.229,0.0,-2.1706,0.0,-2.2408,-2.2525,-2.2326,-2.2999,-2.3105,-2.2861,-2.2548,-2.2895,0.0,0.0,0.0,0.0,0.0,0.0,0.0,-2.3692,-2.3026,-2.1499,-2.0385,-1.9834,-1.9324,-1.7943,-1.7582,0.0,0.0,-1.7582,-1.7582,-1.7582,-1.7582,-1.7582,-1.7582,-1.7582,0.0,0.0,0.0,0.0,0.0,0.0,0.0,0.0,0.0,0.0,0.0,0.0,0.0,0.0,0.0,0.0,0.0,0.0,0.0,0.0,0.0,0.0,0.0,0.0,-2.1109,-2.1109,-2.1109,-2.1109,0.0,-2.1109,-2.1109,-2.1109,-2.1109,-2.1109,-2.1109,-2.1109,-2.1109,-2.1109,-2.1109,-2.1323,-2.1735,-2.1897,-2.2205,-2.2539,-2.2779,-2.2928,-2.2928,0.0,0.0,0.0,0.0,0.0,0.0,0.0,0.0,0.0,0.0,0.0,0.0,0.0,0.0,0.0,0.0,0.0,0.0,0.0,0.0,0.0,0.0,0.0,0.0,0.0,0.0,0.0,0.0,0.0,0.0,0.0,0.0,0.0,-2.1934,0.0,-2.2686,-2.2137,-2.3251,-2.2933,-2.1838,-2.2921,-2.2571,-2.1395,-2.1627,-2.2156,-2.2667,-2.1954,0.0,0.0,0.0,0.0,0.0,0.0,0.0,-2.1448,-2.0033,-1.9576,-1.9324,0.0,0.0,0.0,-1.7582,0.0,-1.7582,-1.7582,-1.7582,-1.7582,-1.7582,0.0,0.0,0.0,0.0,0.0,0.0,0.0,0.0,0.0,0.0,0.0,0.0,0.0,0.0,0.0,0.0,0.0,0.0,0.0,0.0,0.0,0.0,0.0,0.0,-2.0955,-2.1109,-2.1109,-2.1109,-2.1109,-2.1109,-2.1109,-2.1109,-2.1109,-2.1109,-2.1109,-2.1109,-2.1109,-2.1109,-2.1109,-2.1109,-2.1283,-2.1648,-2.1877,-2.2164,-2.2452,-2.2752,-2.2928,-2.2928,0.0,0.0,0.0,0.0,0.0,0.0,0.0,0.0,0.0,0.0,0.0,0.0,0.0,0.0,0.0,0.0,0.0,0.0,0.0,0.0,0.0,0.0,0.0,0.0,0.0,0.0,0.0,0.0,0.0,0.0,0.0,0.0,0.0,-2.101,0.0,0.0,-2.2247,-2.3859,-2.3187,-2.1271,-2.2994,-2.2316,-2.0444,-2.1853,-2.2416,-2.2316,-2.1853,-2.1853,-2.1954,-2.1499,0.0,0.0,0.0,0.0,-2.1448,-2.0282,-1.9782,0.0,0.0,0.0,-1.7582,-1.7582,-1.7582,0.0,-1.7582,-1.7582,-1.7582,-1.7582,0.0,0.0,0.0,0.0,0.0,0.0,0.0,0.0,0.0,0.0,0.0,0.0,0.0,0.0,0.0,0.0,0.0,0.0,0.0,0.0,0.0,0.0,-2.0347,-2.0588,-2.0929,-2.1109,-2.1109,-2.1109,-2.1109,-2.1109,-2.1109,-2.1109,-2.1109,-2.1109,-2.1109,-2.1109,-2.1109,-2.1109,-2.1109,-2.1109,-2.1256,-2.1574,-2.185,-2.2131,-2.2385,-2.2732,-2.2928,-2.2928,0.0,0.0,0.0,0.0,0.0,0.0,0.0,0.0,0.0,0.0,0.0,0.0,0.0,0.0,0.0,0.0,0.0,0.0,0.0,0.0,0.0,0.0,0.0,0.0,0.0,0.0,0.0,0.0,0.0,0.0,0.0,0.0,0.0,-2.2188,0.0,0.0,0.0,-2.187,-2.1929,-2.1728,-2.315,-2.3484,-2.3285,-2.4658,-2.5177,-2.4864,-2.2508,-2.2458,-2.3076,-2.0692,-2.0692,0.0,0.0,0.0,0.0,0.0,0.0,0.0,0.0,0.0,-1.7582,0.0,-1.7582,-1.7582,0.0,0.0,-1.7582,0.0,0.0,0.0,0.0,0.0,0.0,0.0,0.0,0.0,0.0,0.0,0.0,0.0,0.0,0.0,0.0,0.0,0.0,0.0,0.0,0.0,0.0,-1.994,-2.0193,-2.0294,-2.0822,-2.1109,-2.1109,-2.1109,-2.1109,-2.1109,-2.1109,-2.1109,-2.1109,-2.1109,-2.1109,-2.1109,-2.1109,-2.1109,-2.1109,-2.1109,-2.1129,-2.1223,-2.177,-2.2011,-2.2111,-2.2659,-2.2928,-2.2928,0.0,0.0,0.0,0.0,0.0,0.0,0.0,0.0,0.0,0.0,0.0,0.0,0.0,0.0,0.0,0.0,0.0,0.0,0.0,0.0,0.0,0.0,0.0,0.0,0.0,0.0,0.0,0.0,0.0,0.0,0.0,-2.3754,-2.3922,0.0,0.0,0.0,0.0,0.0,-2.2416,-2.1702,-2.1499,-2.1405,-2.1405,-2.1202,-2.1151,-2.11,-2.0692,-2.0896,-2.1355,-2.0947,-2.1702,-2.2667,-2.171,0.0,0.0,0.0,0.0,0.0,-1.7733,-1.7582,-1.7582,0.0,-1.7582,-1.7582,-1.7582,0.0,0.0,0.0,0.0,0.0,0.0,0.0,0.0,0.0,0.0,0.0,0.0,0.0,0.0,0.0,0.0,0.0,0.0,0.0,0.0,0.0,0.0,0.0,-1.9424,-1.9766,-2.006,-2.0227,-2.0641,-2.0942,-2.1109,-2.1109,-2.1109,-2.1109,-2.1109,-2.1109,-2.1109,-2.1109,-2.1109,-2.1109,-2.1109,-2.1109,-2.1109,-2.1109,-2.1109,-2.1169,-2.1757,-2.1984,-2.2058,-2.2645,-2.2928,-2.2928,0.0,0.0,0.0,0.0,0.0,0.0,0.0,0.0,0.0,0.0,0.0,0.0,0.0,0.0,0.0,0.0,0.0,0.0,0.0,0.0,0.0,0.0,0.0,0.0,0.0,0.0,0.0,0.0,0.0,0.0,-2.2257,-2.3899,-2.4146,0.0,-2.3534,0.0,0.0,0.0,0.0,0.0,0.0,-1.993,0.0,0.0,-1.8655,-1.8708,-1.9369,-1.9834,-2.0187,-2.0531,-2.1803,-2.2767,-2.0341,0.0,0.0,0.0,0.0,0.0,0.0,0.0,-1.7582,-1.7582,-1.7582,-1.7582,0.0,0.0,0.0,0.0,0.0,0.0,0.0,0.0,0.0,0.0,0.0,0.0,0.0,0.0,0.0,0.0,0.0,0.0,0.0,0.0,0.0,0.0,0.0,0.0,-1.9424,-1.9639,-1.9933,-2.016,-2.0521,-2.0815,-2.1109,-2.1109,-2.1109,-2.1109,-2.1109,-2.1109,-2.1109,-2.1109,-2.1109,-2.1109,-2.1109,-2.1109,-2.1109,-2.1109,-2.1109,-2.1169,-2.1757,-2.1984,-2.2124,-2.3174,-2.3263,-2.3065,0.0,0.0,0.0,0.0,0.0,0.0,0.0,0.0,0.0,0.0,0.0,0.0,0.0,0.0,0.0,0.0,0.0,0.0,0.0,0.0,0.0,0.0,0.0,0.0,0.0,0.0,0.0,0.0,0.0,0.0,-2.3583,-2.2466,-2.1853,-2.1853,-2.3126,-2.2976,-2.1702,0.0,0.0,0.0,0.0,0.0,0.0,0.0,0.0,0.0,0.0,0.0,-2.1194,-1.8655,-1.9568,0.0,0.0,0.0,0.0,0.0,0.0,0.0,0.0,-1.7582,0.0,-1.7582,-1.7582,0.0,0.0,0.0,0.0,0.0,0.0,0.0,0.0,0.0,0.0,0.0,0.0,0.0,0.0,0.0,0.0,0.0,0.0,0.0,0.0,0.0,0.0,0.0,0.0,0.0,-1.9424,-1.9639,-1.9933,-2.016,-2.0521,-2.0815,-2.1109,-2.1109,-2.1109,-2.1109,-2.1109,-2.1109,-2.1109,-2.1109,-2.1109,-2.1109,-2.1109,-2.1109,-2.1109,-2.1109,-2.1109,-2.1169,-2.1757,-2.1984,-2.2249,-2.4551,-2.4324,-2.3393,0.0,0.0,0.0,0.0,0.0,0.0,0.0,0.0,0.0,0.0,0.0,0.0,0.0,0.0,0.0,0.0,0.0,0.0,0.0,0.0,0.0,0.0,0.0,0.0,0.0,0.0,0.0,0.0,0.0,-2.3276,-2.2408,-2.2818,-2.2517,-2.1702,-2.2206,-2.2156,-2.1651,-2.0743,0.0,0.0,0.0,0.0,0.0,0.0,0.0,0.0,0.0,0.0,0.0,0.0,0.0,0.0,0.0,0.0,0.0,0.0,0.0,0.0,0.0,0.0,0.0,-1.7582,-1.7582,-1.7582,-1.7582,0.0,0.0,0.0,0.0,0.0,0.0,0.0,0.0,0.0,0.0,0.0,0.0,0.0,0.0,0.0,0.0,0.0,0.0,0.0,0.0,0.0,0.0,0.0,-1.9424,-1.9466,-1.9659,-1.9947,-2.0241,-2.0621,-2.1109,-2.1109,-2.1109,-2.1109,-2.1109,-2.1109,-2.1109,-2.1109,-2.1109,-2.1109,-2.1109,-2.1109,-2.1109,-2.1109,-2.1109,-2.1169,-2.1757,-2.2687,-2.3847,-2.5078,-2.5853,-2.6447,0.0,0.0,0.0,0.0,0.0,0.0,0.0,0.0,0.0,0.0,0.0,0.0,0.0,0.0,0.0,0.0,0.0,0.0,0.0,0.0,0.0,0.0,0.0,0.0,0.0,0.0,0.0,0.0,0.0,0.0,0.0,-2.2617,-2.2567,-2.1702,-2.1702,-2.1448,0.0,0.0,0.0,-2.0837,0.0,0.0,-1.9428,0.0,0.0,0.0,0.0,0.0,0.0,0.0,0.0,0.0,0.0,0.0,0.0,0.0,0.0,0.0,-1.8961,0.0,0.0,0.0,0.0,-1.7582,-1.7582,0.0,0.0,0.0,0.0,0.0,0.0,0.0,0.0,0.0,0.0,0.0,0.0,0.0,0.0,0.0,0.0,0.0,0.0,0.0,0.0,0.0,0.0,0.0,-1.9424,-1.9424,-1.9546,-1.9933,-2.0227,-2.0615,-2.1109,-2.1109,-2.1109,-2.1109,-2.1109,-2.1109,-2.1109,-2.1109,-2.1109,-2.1109,-2.1664,-2.1601,-2.1109,-2.1109,-2.1109,-2.1169,-2.1757,-2.3072,-2.4742,-2.5927,-2.7172,-2.8369,0.0,0.0,0.0,0.0,0.0,0.0,0.0,0.0,0.0,0.0,0.0,0.0,0.0,0.0,0.0,0.0,0.0,0.0,0.0,0.0,0.0,0.0,0.0,0.0,0.0,0.0,0.0,0.0,0.0,0.0,0.0,0.0,-2.1752,-2.1752,-2.1803,-2.1041,-1.9731,0.0,-2.0896,-1.9679,0.0,-1.9576,-1.9428,0.0,0.0,0.0,-1.7582,-1.7635,0.0,-1.7687,0.0,0.0,0.0,0.0,0.0,0.0,0.0,0.0,0.0,0.0,0.0,0.0,0.0,0.0,0.0,0.0,0.0,0.0,0.0,0.0,0.0,0.0,0.0,0.0,0.0,0.0,0.0,0.0,0.0,0.0,0.0,0.0,0.0,0.0,0.0,0.0,0.0,-1.9424,-1.9424,-1.9424,-1.9633,-2.0201,-2.0508,-2.0802,-2.1096,-2.1109,-2.1109,-2.1109,-2.1109,-2.1109,-2.1172,-2.1172,-2.1229,-2.1355,-2.2959,-2.2772,-2.1229,-2.1229,-2.1229,-2.1289,-2.1881,-2.3196,-2.5058,-2.7376,-2.8303,-2.8829,0.0,0.0,0.0,0.0,0.0,0.0,0.0,0.0,0.0,0.0,0.0,0.0,0.0,0.0,0.0,0.0,0.0,0.0,0.0,0.0,0.0,0.0,0.0,0.0,0.0,0.0,0.0,0.0,0.0,0.0,0.0,0.0,0.0,0.0,-2.4146,-2.3285,-2.1143,-2.155,0.0,0.0,-2.0033,-1.9576,0.0,0.0,0.0,0.0,0.0,-1.8199,-1.9065,0.0,-1.9723,-2.0633,0.0,0.0,0.0,0.0,0.0,0.0,-2.0179,0.0,0.0,0.0,0.0,0.0,0.0,0.0,0.0,0.0,0.0,0.0,0.0,0.0,0.0,0.0,0.0,0.0,0.0,0.0,0.0,0.0,0.0,0.0,0.0,0.0,0.0,0.0,-1.9424,-1.9424,-1.9424,-1.9424,-1.9539,-1.9907,-2.0201,-2.0494,-2.0795,-2.1002,-2.1109,-2.1109,-2.1109,-2.1727,-2.2897,-2.2897,-2.3559,-2.464,-2.513,-2.5069,-2.464,-2.464,-2.464,-2.471,-2.5415,-2.6757,-2.842,-2.964,-3.0854,-3.211,0.0,0.0,0.0,0.0,0.0,0.0,0.0,0.0,0.0,0.0,0.0,0.0,0.0,0.0,0.0,0.0,0.0,0.0,0.0,0.0,0.0,0.0,0.0,0.0,0.0,0.0,0.0,0.0,0.0,0.0,0.0,0.0,0.0,0.0,0.0,0.0,0.0,0.0,0.0,0.0,-2.0187,0.0,0.0,-1.8094,-1.7582,0.0,0.0,0.0,-1.9524,-1.8961,-2.0076,0.0,0.0,0.0,0.0,0.0,0.0,0.0,0.0,0.0,0.0,0.0,0.0,0.0,-1.9576,-1.9576,-1.942,0.0,0.0,0.0,0.0,0.0,0.0,0.0,0.0,0.0,0.0,0.0,0.0,0.0,0.0,0.0,0.0,0.0,0.0,0.0,-1.9424,-1.9424,-1.9424,-1.9982,-2.0171,-1.9786,-2.008,-2.0374,-2.0675,-2.1638,-2.216,-2.216,-2.282,-2.3675,-2.4594,-2.4594,-2.5138,-2.6037,-2.6712,-2.7013,-2.7073,-2.7751,-2.7263,-2.605,-2.6802,-2.8163,-2.9813,-3.0546,-3.1899,-3.3418,0.0,0.0,0.0,0.0,0.0,0.0,0.0,0.0,0.0,0.0,0.0,0.0,0.0,0.0,0.0,0.0,0.0,0.0,0.0,0.0,0.0,0.0,0.0,0.0,0.0,0.0,0.0,0.0,0.0,0.0,0.0,0.0,0.0,0.0,0.0,0.0,0.0,0.0,0.0,-2.1803,-2.0538,-2.0033,0.0,0.0,-1.7838,0.0,-1.7838,-1.8506,-1.922,-1.8349,-1.9672,0.0,0.0,0.0,0.0,0.0,-2.2776,0.0,0.0,0.0,0.0,0.0,0.0,0.0,-2.029,-2.0033,-1.9731,0.0,0.0,0.0,0.0,0.0,0.0,0.0,0.0,0.0,0.0,0.0,0.0,0.0,0.0,0.0,0.0,-1.8851,-1.9055,-1.9574,-1.9802,-1.9873,-1.9873,-2.1145,-2.1276,-2.0028,-2.0267,-2.0503,-2.0621,-2.2562,-2.3536,-2.3636,-2.5253,-2.6098,-2.6288,-2.6288,-2.634,-2.6651,-2.8051,-2.8664,-2.8792,-3.0274,-2.9166,-2.6606,-2.7364,-2.8602,-3.0071,-3.0811,-3.2091,-3.3418,0.0,0.0,0.0,0.0,0.0,0.0,0.0,0.0,0.0,0.0,0.0,0.0,0.0,0.0,0.0,0.0,0.0,0.0,0.0,0.0,0.0,0.0,0.0,0.0,0.0,0.0,0.0,0.0,0.0,0.0,0.0,0.0,0.0,0.0,0.0,0.0,0.0,0.0,0.0,-2.3285,-2.3026,0.0,-2.2626,-2.0135,-1.922,-1.922,-1.922,-1.8655,-1.8297,0.0,-2.1245,-2.2055,0.0,0.0,0.0,0.0,0.0,0.0,0.0,0.0,0.0,0.0,0.0,0.0,-2.2726,-2.2876,-2.2826,0.0,0.0,0.0,0.0,0.0,0.0,0.0,0.0,0.0,0.0,0.0,0.0,0.0,0.0,0.0,0.0,-1.843,-1.918,-2.0672,-2.2104,-2.2934,-2.2934,-2.3207,-2.2733,-2.129,-2.1482,-2.1225,-2.0314,-2.223,-2.3305,-2.3636,-2.5253,-2.6712,-2.7931,-2.7931,-2.8664,-2.9962,-3.0274,-3.0392,-3.045,-3.0772,-3.0518,-3.0047,-3.0882,-3.1398,-3.1809,-3.2585,-3.3092,-3.3418,0.0,0.0,0.0,0.0,0.0,0.0,0.0,0.0,0.0,0.0,0.0,0.0,0.0,0.0,0.0,0.0,0.0,0.0,0.0,0.0,0.0,0.0,0.0,0.0,0.0,0.0,0.0,0.0,0.0,0.0,0.0,0.0,0.0,0.0,0.0,0.0,0.0,0.0,-2.5323,-2.4658,-2.3949,0.0,-2.1507,-2.0135,-1.9169,-1.861,-1.861,-1.8146,-1.7891,-1.9981,-2.1143,0.0,0.0,-2.2173,-2.1912,0.0,-2.2767,-2.2005,0.0,0.0,0.0,-2.3692,0.0,0.0,0.0,-2.3692,-2.3484,0.0,0.0,0.0,0.0,0.0,0.0,0.0,0.0,0.0,0.0,0.0,0.0,0.0,0.0,0.0,0.0,-1.9179,-1.9775,-2.1,-2.3269,-2.434,-2.3813,-2.4544,-2.4267,-2.2758,-2.2983,-2.2929,-2.2565,-2.4444,-2.5638,-2.5993,-2.764,-2.8861,-2.9648,-2.9648,-3.0089,-3.0889,-3.0889,-3.0889,-3.0889,-3.0889,-3.1016,-3.1269,-3.1914,-3.2295,-3.2559,-3.3193,-3.3418,-3.3418,0.0,0.0,0.0,0.0,0.0,0.0,0.0,0.0,0.0,0.0,0.0,0.0,0.0,0.0,0.0,0.0,0.0,0.0,0.0,0.0,0.0,0.0,0.0,-2.5693,0.0,0.0,0.0,0.0,0.0,0.0,0.0,0.0,0.0,0.0,0.0,0.0,0.0,0.0,0.0,-2.5586,0.0,-2.2776,-2.07,-2.0187,-1.9317,-1.8297,-1.7786,-1.8094,-1.8909,-1.9723,0.0,-2.1954,-2.1049,-2.1963,0.0,0.0,0.0,0.0,0.0,0.0,0.0,0.0,0.0,-2.543,0.0,0.0,0.0,0.0,0.0,0.0,0.0,0.0,0.0,0.0,0.0,0.0,0.0,0.0,0.0,0.0,0.0,0.0,0.0,-2.0709,-2.1047,-2.1438,-2.4156,-2.5514,-2.4693,-2.5827,-2.5827,-2.4267,-2.4505,-2.4751,-2.4895,-2.6731,-2.7957,-2.8417,-3.0089,-3.0889,-3.0889,-3.0889,-3.0889,-3.0889,-3.0889,-3.0889,-3.0898,-3.0976,-3.126,-3.168,-3.2031,-3.2422,-3.2842,-3.3271,-3.3418,-3.3418,-2.1877,-2.2667,0.0,0.0,0.0,0.0,0.0,0.0,0.0,0.0,0.0,0.0,0.0,0.0,0.0,0.0,0.0,0.0,-2.5693,0.0,0.0,0.0,0.0,0.0,-2.5693,0.0,0.0,0.0,0.0,0.0,0.0,0.0,0.0,0.0,-2.5693,0.0,0.0,0.0,-2.5693,0.0,-2.5528,-2.5284,0.0,-2.2366,-2.1347,-2.0939,-1.8447,-1.993,-2.2876,0.0,-2.2366,-2.3633,0.0,-2.3583,-2.2357,0.0,0.0,0.0,0.0,0.0,0.0,0.0,-2.5693,0.0,0.0,0.0,-2.543,0.0,0.0,0.0,0.0,0.0,0.0,0.0,0.0,0.0,0.0,0.0,0.0,0.0,0.0,0.0,0.0,0.0,-2.3514,-2.2773,-2.5649,-2.7516,-2.7761,-2.795,-2.7384,-2.5873,-2.5863,-2.5569,-2.4895,-2.6526,-2.7678,-2.8417,-3.0089,-3.0889,-3.0889,-3.0889,-3.0889,-3.0889,-3.0889,-3.0889,-3.0918,-3.1289,-3.1699,-3.216,-3.2148,-3.2422,-3.2842,-3.3271,-3.3418,-3.3418,-2.4005,-2.4683,0.0,0.0,0.0,0.0,0.0,0.0,0.0,0.0,0.0,0.0,0.0,0.0,0.0,0.0,0.0,-2.6006,0.0,0.0,0.0,0.0,0.0,0.0,0.0,0.0,0.0,0.0,-2.5693,0.0,0.0,0.0,0.0,0.0,-2.5693,0.0,-2.5693,0.0,-2.5693,0.0,0.0,0.0,0.0,-2.3583,-2.2366,-2.155,-2.0385,-2.1092,-2.2458,0.0,-2.2567,0.0,0.0,0.0,0.0,0.0,0.0,0.0,0.0,0.0,0.0,0.0,0.0,0.0,-2.5528,0.0,-2.5693,0.0,0.0,0.0,0.0,0.0,0.0,0.0,0.0,0.0,0.0,0.0,0.0,0.0,0.0,0.0,0.0,0.0,0.0,0.0,0.0,-2.7471,-2.791,-2.8164,-2.8014,-2.7394,-2.7394,-2.7332,-2.7222,-2.8164,-2.8928,-2.9457,-3.0451,-3.0889,-3.0889,-3.0889,-3.0889,-3.0889,-3.0889,-3.0889,-3.0928,-3.1348,-3.1777,-3.2187,-3.2441,-3.2793,-3.3184,-3.3359,-3.3418,-3.3418,-2.6166,0.0,0.0,0.0,0.0,0.0,0.0,0.0,0.0,0.0,0.0,0.0,-2.7012,-2.7012,0.0,0.0,-2.6562,-2.6426,0.0,0.0,-2.5986,0.0,0.0,0.0,0.0,0.0,0.0,0.0,0.0,0.0,0.0,0.0,0.0,0.0,0.0,-2.5693,-2.5693,0.0,0.0,-2.5693,-2.5693,-2.5693,-2.5528,-2.3791,-2.2316,-2.1143,-2.1143,-2.1347,-2.1702,-2.1702,-2.2567,0.0,-2.3692,0.0,0.0,0.0,0.0,0.0,-2.543,0.0,0.0,0.0,0.0,0.0,0.0,0.0,0.0,0.0,0.0,0.0,0.0,0.0,0.0,0.0,0.0,0.0,0.0,0.0,0.0,0.0,0.0,0.0,0.0,0.0,0.0,0.0,-2.5863,0.0,-2.7689,-2.7959,-2.8174,-2.8291,-2.8291,-2.8496,-2.8916,-2.9355,-2.9785,-3.0205,-3.0674,-3.0889,-3.0889,-3.0889,-3.0889,-3.0889,-3.0889,-3.0889,-3.0928,-3.1475,-3.1885,-3.2217,-3.2754,-3.3154,-3.3418,-3.3418,-3.3418,-3.3418,-2.8198,-2.7526,0.0,0.0,0.0,0.0,0.0,0.0,0.0,0.0,0.0,0.0,0.0,0.0,0.0,0.0,0.0,-2.6982,-2.6973,0.0,-2.6787,0.0,0.0,-2.6172,0.0,0.0,0.0,0.0,0.0,0.0,0.0,0.0,0.0,0.0,0.0,-2.5693,-2.5693,-2.5693,-2.5693,-2.5693,-2.5693,-2.5693,-2.543,0.0,-2.0896,-1.9679,-1.9679,0.0,0.0,-2.1702,-2.2567,0.0,0.0,0.0,0.0,0.0,0.0,0.0,0.0,0.0,0.0,-2.5684,0.0,0.0,0.0,0.0,-2.5693,0.0,0.0,0.0,0.0,0.0,0.0,0.0,0.0,0.0,0.0,0.0,0.0,0.0,0.0,0.0,0.0,0.0,0.0,-2.4367,-2.5607,-2.6777,-2.7669,-2.7728,-2.7924,-2.8281,-2.8291,-2.8496,-2.8916,-2.9355,-2.9785,-3.0205,-3.0674,-3.0889,-3.0889,-3.0889,-3.0889,-3.0889,-3.0889,-3.0889,-3.0957,-3.1797,-3.2219,-3.2307,-3.3076,-3.3408,-3.3418,-3.3418,-3.3418,-3.3418,0.0,0.0,0.0,0.0,0.0,0.0,0.0,-2.7861,0.0,0.0,0.0,0.0,0.0,-2.7861,-2.7744,0.0,0.0,-2.7324,-2.7031,-2.7012,0.0,0.0,0.0,-2.6602,0.0,0.0,0.0,0.0,0.0,0.0,0.0,0.0,0.0,0.0,0.0,-2.5693,0.0,0.0,0.0,0.0,0.0,-2.5177,-2.4353,0.0,0.0,-2.3651,-2.3651,-2.3949,0.0,-2.4353,-2.4658,-2.502,-2.502,-2.5323,-2.5693,-2.5693,-2.5693,0.0,0.0,0.0,-2.4609,-2.5479,0.0,0.0,0.0,0.0,0.0,0.0,0.0,0.0,0.0,0.0,0.0,0.0,0.0,0.0,0.0,0.0,0.0,0.0,0.0,0.0,0.0,0.0,0.0,-2.4822,-2.5789,-2.6631,0.0,-2.751,-2.7861,-2.8281,-2.8291,-2.8359,-2.8506,-2.9209,-2.9648,-2.9795,-3.0537,-3.0889,-3.0889,-3.0889,-3.0889,-3.0889,-3.0889,-3.1055,-3.1348,-3.1934,-3.2334,-3.2637,-3.3203,-3.3418,-3.3418,-3.3418,-3.3418,-3.3418,-2.8291,0.0,0.0,0.0,0.0,0.0,0.0,0.0,0.0,0.0,-2.8291,0.0,-2.8291,0.0,-2.8184,0.0,-2.7891,-2.7773,-2.749,-2.7471,0.0,-2.7256,-2.7246,0.0,0.0,0.0,0.0,0.0,0.0,-2.5693,0.0,0.0,0.0,0.0,0.0,-2.5693,-2.5693,0.0,-2.5693,0.0,0.0,-2.5177,0.0,0.0,-2.5382,-2.4971,0.0,-2.4971,-2.4971,-2.4971,-2.4971,-2.4971,-2.4971,-2.5323,-2.5693,-2.5693,-2.5693,-2.5693,-2.5693,-2.5069,0.0,-2.5479,-2.5069,0.0,-2.5479,0.0,0.0,0.0,0.0,0.0,0.0,0.0,0.0,0.0,0.0,0.0,0.0,0.0,0.0,0.0,0.0,0.0,0.0,0.0,-2.4971,-2.5283,-2.583,-2.6406,0.0,0.0,-2.7695,-2.8271,-2.8291,-2.8291,-2.8291,-2.9141,-2.9626,-2.9636,-3.0469,-3.0889,-3.0889,-3.0889,-3.0889,-3.0889,-3.0889,-3.1133,-3.1553,-3.1992,-3.2412,-3.2832,-3.3252,-3.3418,-3.3418,-3.3418,-3.3418,-3.3418,0.0,0.0,0.0,0.0,-2.8291,0.0,0.0,0.0,-2.8291,0.0,-2.8291,-2.8291,-2.8291,-2.8291,-2.8291,-2.8291,-2.8291,-2.8291,-2.8291,-2.8291,0.0,0.0,-2.7748,-2.749,-2.7051,0.0,0.0,0.0,0.0,0.0,0.0,0.0,0.0,0.0,-2.5713,0.0,-2.5723,-2.5742,-2.5752,-2.5752,-2.5752,-2.5742,-2.5713,-2.5713,0.0,-2.3791,-2.3791,-2.3791,-2.3791,-2.3791,-2.3791,-2.3791,-2.3791,-2.4658,-2.5693,-2.5693,-2.5693,-2.5693,-2.5693,-2.5693,-2.5693,-2.5693,0.0,0.0,0.0,0.0,-2.5693,0.0,0.0,0.0,0.0,0.0,0.0,0.0,0.0,0.0,0.0,0.0,0.0,0.0,0.0,0.0,0.0,-2.4394,-2.4719,-2.5557,-2.5664,-2.6054,0.0,0.0,0.0,-2.8232,-2.8281,-2.8291,-2.8291,-2.9141,-2.9626,-2.9636,-3.0469,-3.0889,-3.0889,-3.0889,-3.0889,-3.0889,-3.0889,-3.1143,-3.1582,-3.2002,-3.2432,-3.2861,-3.3271,-3.3418,-3.3418,-3.3418,-3.3418,-3.3418,-2.8291,-2.8291,-2.8291,0.0,-2.8291,-2.8291,0.0,0.0,0.0,0.0,-2.8291,-2.8291,-2.8291,-2.8291,-2.8291,-2.8291,-2.8291,0.0,0.0,0.0,0.0,-2.8135,-2.8135,-2.793,-2.751,-2.7444,0.0,-2.6855,0.0,0.0,-2.6211,0.0,0.0,0.0,0.0,0.0,-2.624,-2.6553,-2.6689,-2.6689,-2.6689,-2.6504,0.0,0.0,-2.5809,-2.5177,-2.5177,-2.5177,-2.5177,-2.5177,-2.5177,-2.5177,-2.5177,-2.543,-2.5693,-2.5693,-2.5693,-2.5693,-2.5693,-2.5693,-2.5693,-2.5693,-2.5693,-2.5693,0.0,0.0,0.0,0.0,0.0,0.0,0.0,0.0,0.0,0.0,0.0,0.0,0.0,0.0,0.0,0.0,0.0,0.0,0.0,-2.3997,-2.4512,-2.4736,-2.5313,-2.5977,0.0,0.0,0.0,-2.7865,-2.8125,-2.8291,-2.8291,-2.9141,-2.9626,-2.9636,-3.0469,-3.0889,-3.0889,-3.0889,-3.0889,-3.0889,-3.0889,-3.1318,-3.2012,-3.2119,-3.2598,-3.3271,-3.3379,-3.3418,-3.3418,-3.3418,-3.3418,-3.3418,-2.8291,0.0,0.0,-2.8291,0.0,0.0,-2.8291,0.0,0.0,-2.8291,-2.8291,0.0,-2.8291,-2.8291,-2.8291,-2.8291,-2.8291,0.0,-2.8291,0.0,0.0,-2.8291,-2.8291,-2.8184,-2.7949,-2.7806,0.0,-2.7305,0.0,0.0,-2.666,0.0,0.0,0.0,0.0,-2.666,-2.668,-2.6914,-2.7012,-2.7012,-2.7012,0.0,0.0,-2.666,-2.6514,-2.6249,-2.6249,-2.6005,-2.5693,-2.5693,-2.5693,-2.5693,-2.5693,-2.5693,-2.5693,-2.5693,-2.5693,-2.5693,-2.5693,-2.5693,-2.5693,-2.5693,-2.5693,-2.5693,-2.5693,-2.5693,-2.5693,0.0,0.0,0.0,0.0,0.0,0.0,0.0,0.0,0.0,0.0,0.0,0.0,0.0,0.0,0.0,0.0,-2.3916,-2.4492,-2.4687,-2.5342,-2.5879,0.0,0.0,0.0,-2.7708,-2.8076,-2.8291,-2.8291,-2.9141,-2.9626,-2.9636,-3.0469,-3.0889,-3.0889,-3.0889,-3.0889,-3.0898,-3.1084,-3.1543,-3.2178,-3.2363,-3.2832,-3.3418,-3.3418,-3.3418,-3.3418,-3.3418,-3.3418,-3.3418,-2.8291,0.0,0.0,0.0,0.0,0.0,0.0,-2.8291,0.0,-2.8291,0.0,-2.8291,-2.8291,-2.8291,-2.8291,-2.8291,0.0,-2.8291,-2.8291,-2.8291,-2.8291,-2.8291,-2.8291,-2.8291,-2.8291,-2.7939,0.0,0.0,0.0,-2.71,-2.71,0.0,0.0,0.0,0.0,0.0,0.0,-2.7187,-2.7187,-2.7187,-2.7187,-2.7148,-2.71,-2.71,-2.706,-2.7012,-2.7012,-2.6483,-2.5859,-2.5859,-2.5859,-2.5859,-2.5859,-2.5859,-2.5859,-2.5859,-2.5859,-2.5859,-2.5859,-2.582,-2.5771,-2.5771,-2.5732,-2.5693,-2.5693,-2.5693,-2.5693,-2.5693,-2.5693,0.0,0.0,0.0,0.0,0.0,0.0,0.0,0.0,0.0,0.0,0.0,0.0,0.0,0.0,0.0,-2.4512,-2.4951,-2.54,0.0,0.0,0.0,0.0,0.0,-2.8047,0.0,-2.8291,0.0,-2.9626,-2.9636,-3.0469,-3.0889,-3.0889,-3.0889,-3.0889,-3.0918,-3.1338,-3.1768,-3.2207,-3.2627,-3.3037,-3.3418,-3.3418,-3.3418,-3.3418,-3.3418,-3.3418,-3.3418,-2.8291,0.0,0.0,0.0,0.0,-2.8291,-2.8291,-2.8291,-2.8291,-2.8291,-2.8291,-2.8291,-2.8291,-2.8291,-2.8291,-2.8291,-2.8291,0.0,0.0,0.0,0.0,-2.8291,-2.8291,-2.8291,-2.8291,-2.8223,-2.8184,0.0,-2.7764,-2.7559,-2.7591,0.0,0.0,0.0,0.0,0.0,-2.8066,-2.8066,0.0,-2.8066,-2.8066,-2.7861,-2.7559,-2.7559,-2.7334,-2.7012,-2.7012,-2.6914,-2.6787,-2.6787,-2.6787,-2.6787,-2.6787,-2.6787,-2.6787,-2.6787,-2.6787,-2.6787,-2.6787,-2.6543,-2.6279,-2.6279,-2.6006,-2.5693,-2.5693,-2.5693,-2.5693,-2.5693,-2.5693,-2.5693,-2.5693,0.0,0.0,0.0,0.0,0.0,0.0,0.0,0.0,0.0,0.0,0.0,0.0,0.0,0.0,0.0,0.0,0.0,0.0,0.0,0.0,0.0,0.0,0.0,0.0,0.0,0.0,-2.9636,-3.0469,-3.0889,-3.0889,-3.0889,-3.0889,-3.0918,-3.1338,-3.1768,-3.2207,-3.2627,-3.3037,-3.3418,-3.3418,-3.3418,-3.3418,-3.3418,-3.3418,-3.3418,0.0,0.0,0.0,0.0,0.0,0.0,0.0,-2.8291,0.0,-2.8291,-2.8291,-2.8291,-2.8291,-2.8291,-2.8291,-2.8291,-2.8291,-2.8291,-2.8291,-2.8291,-2.8291,-2.8291,-2.8291,0.0,-2.8291,-2.8291,-2.8291,-2.8291,-2.8086,-2.7988,0.0,0.0,0.0,0.0,0.0,-2.8105,0.0,0.0,0.0,-2.8291,-2.8291,-2.8174,-2.7988,-2.7988,-2.7861,-2.7676,-2.7676,-2.7676,-2.7607,-2.7168,-2.7012,-2.7012,-2.7012,-2.7012,-2.7012,-2.7012,-2.7012,-2.7012,-2.7012,-2.6865,-2.6709,-2.6709,-2.6553,-2.6338,-2.6123,-2.6074,-2.6006,-2.5732,-2.5693,-2.5693,-2.5693,-2.5557,0.0,0.0,0.0,0.0,0.0,0.0,0.0,0.0,0.0,0.0,0.0,0.0,0.0,0.0,0.0,0.0,0.0,0.0,0.0,0.0,0.0,0.0,0.0,0.0,0.0,-2.9636,-3.0469,-3.0889,-3.0889,-3.0889,-3.0889,-3.0928,-3.1572,-3.1973,-3.2217,-3.2861,-3.3242,-3.3418,-3.3418,-3.3418,-3.3418,-3.3418,-3.3418,-3.3418,0.0,-2.8291,0.0,0.0,-2.8291,0.0,-2.8291,-2.8291,-2.8291,-2.8291,-2.8291,-2.8291,-2.8291,-2.8291,-2.8291,-2.8291,-2.8291,-2.8291,-2.8291,-2.8291,-2.8291,-2.8291,-2.8291,-2.8291,-2.8291,-2.8291,-2.8291,0.0,-2.8291,-2.8252,0.0,0.0,0.0,0.0,0.0,0.0,0.0,0.0,-2.8291,-2.8291,-2.8291,-2.8291,-2.8291,-2.8291,-2.8291,-2.8291,-2.8291,-2.8291,-2.8193,-2.7519,-2.7285,-2.7285,-2.7285,-2.7285,-2.7285,-2.7285,-2.7285,-2.7285,-2.7285,-2.7217,-2.7148,-2.7148,-2.708,-2.6934,-2.6602,-2.6523,-2.6426,-2.6035,-2.5888,-2.5801,-2.5703,-2.5693,0.0,0.0,0.0,0.0,0.0,0.0,0.0,0.0,0.0,0.0,0.0,0.0,0.0,0.0,0.0,-2.5625,-2.582,-2.6602,0.0,0.0,0.0,-2.8291,-2.8291,0.0,-2.9626,0.0,-3.0469,-3.0889,-3.0889,-3.0889,-3.0889,-3.0937,-3.1797,-3.2275,-3.249,-3.3144,-3.3418,-3.3418,-3.3418,-3.3418,-3.3418,-3.3418,-3.3597,-3.3839,0.0,0.0,0.0,0.0,0.0,0.0,0.0,-2.8291,-2.8291,-2.8291,-2.8291,-2.8291,-2.8291,-2.8291,-2.8291,-2.8291,-2.8291,-2.8291,-2.8291,-2.8291,-2.8291,-2.8291,-2.8291,-2.8291,-2.8291,-2.8291,-2.8291,0.0,0.0,-2.8096,0.0,0.0,0.0,0.0,0.0,0.0,0.0,-2.8291,-2.8291,-2.8291,-2.8291,-2.8291,-2.8291,-2.8291,-2.8291,-2.8291,-2.8291,-2.8291,-2.8281,-2.8203,-2.8174,-2.8174,-2.8174,-2.8174,-2.8174,-2.8174,-2.8174,-2.8174,-2.8174,-2.79,-2.7607,-2.7607,-2.7305,-2.7002,-2.6963,-2.6953,-2.6943,-2.6904,-2.6592,-2.6201,-2.5762,-2.5693,-2.5674,0.0,0.0,0.0,0.0,0.0,0.0,0.0,0.0,0.0,0.0,0.0,0.0,0.0,0.0,-2.5478,-2.6279,-2.6768,-2.7197,-2.7598,0.0,-2.8291,-2.8291,-2.9141,0.0,-2.9636,-3.0469,-3.0889,-3.0889,-3.0889,-3.0889,-3.0937,-3.1797,-3.2598,-3.331,-3.3389,-3.3418,-3.3418,-3.3418,-3.3418,-3.3418,-3.3418,-3.432,-3.5386,0.0,0.0,0.0,0.0,0.0,0.0,0.0,-2.8291,-2.8291,-2.8291,-2.8291,-2.8291,-2.8291,-2.8291,-2.8291,-2.8291,-2.8291,-2.8291,-2.8291,-2.8291,-2.8291,-2.8291,-2.8291,-2.8291,-2.8291,-2.8291,-2.8291,0.0,0.0,-2.8203,-2.8047,0.0,0.0,0.0,0.0,-2.8291,-2.8291,-2.8291,-2.8291,-2.8291,-2.8291,-2.8291,-2.8291,-2.8291,-2.8291,-2.8291,-2.8291,-2.8291,-2.8291,-2.8291,-2.8291,-2.8291,-2.8291,-2.8291,-2.8291,-2.8291,-2.8291,-2.8291,-2.8291,-2.8164,-2.8047,-2.8047,-2.791,-2.7715,-2.7461,-2.7402,-2.7334,-2.707,-2.6885,-2.6709,-2.6533,-2.6299,-2.6133,0.0,0.0,0.0,0.0,0.0,0.0,0.0,0.0,0.0,0.0,0.0,0.0,0.0,0.0,0.0,-2.5977,-2.6641,-2.71,-2.7266,0.0,-2.8291,-2.8291,-2.9141,-2.9626,-2.9636,-3.0469,-3.0889,-3.0889,-3.0889,-3.1172,-3.1689,-3.2285,-3.2881,-3.3418,-3.3418,-3.3955,-3.485,-3.485,-3.485,-3.4974,-3.5939,-3.5458,-3.4435,-2.8672,0.0,-2.8476,0.0,-2.8369,-2.8291,-2.8291,-2.8291,-2.8291,-2.8291,-2.8291,-2.8291,-2.8291,-2.8291,-2.8291,-2.8291,-2.8291,-2.8291,-2.8291,-2.8291,-2.8291,-2.8291,-2.8291,0.0,-2.8291,-2.8291,-2.8291,-2.8291,-2.8291,0.0,-2.8105,0.0,0.0,0.0,-2.8291,-2.8291,-2.8291,-2.8291,-2.8291,-2.8291,-2.8291,-2.8291,-2.8291,-2.8291,-2.8291,-2.8291,-2.8291,-2.8291,-2.8291,-2.8291,-2.8291,-2.8291,-2.8291,-2.8291,-2.8291,-2.8291,-2.8291,-2.8291,-2.8291,-2.8291,-2.8291,-2.8291,-2.8291,-2.8213,-2.792,-2.7904,-2.7725,-2.7295,-2.7207,-2.7168,-2.7041,-2.6768,-2.6572,-2.6572,0.0,0.0,0.0,0.0,0.0,0.0,-2.5693,-2.5693,-2.5693,0.0,0.0,0.0,0.0,0.0,-2.6064,-2.6689,0.0,0.0,0.0,0.0,0.0,-2.9199,-2.9629,-2.9766,-3.0527,-3.0889,-3.0898,-3.1016,-3.1475,-3.2187,-3.2617,-3.3037,-3.3418,-3.3418,-3.4373,-3.5806,-3.5806,-3.6101,-3.6649,-3.7794,-3.7084,-3.5632,-2.9551,-2.9209,-2.8916,-2.8916,-2.8564,-2.8291,-2.8291,-2.8291,-2.8291,-2.8291,-2.8291,-2.8291,-2.8291,-2.8291,-2.8291,-2.8291,-2.8291,-2.8291,-2.8291,-2.8291,-2.8291,0.0,0.0,-2.8291,-2.8291,-2.8291,-2.8291,-2.8291,0.0,0.0,-2.7728,0.0,-2.7891,-2.8291,-2.8291,-2.8291,-2.8291,-2.8291,-2.8291,-2.8291,-2.8291,-2.8291,-2.8291,-2.8291,-2.8291,-2.8291,-2.8291,-2.8291,-2.8291,-2.8291,-2.8291,-2.8291,-2.8291,-2.8291,-2.8291,-2.8291,-2.8291,-2.8291,-2.8291,-2.8291,-2.8291,-2.8291,-2.8291,-2.8291,-2.8281,-2.8281,-2.8164,-2.7744,-2.7708,-2.7529,-2.709,-2.7012,-2.7012,-2.7012,0.0,0.0,0.0,0.0,0.0,0.0,-2.5693,-2.5693,-2.5693,0.0,0.0,0.0,0.0,0.0,0.0,0.0,0.0,-2.8252,-2.8281,0.0,-2.8906,-2.9346,-2.9785,-3.0195,-3.0664,-3.0889,-3.0898,-3.1318,-3.1748,-3.2187,-3.2617,-3.3037,-3.3418,-3.3418,-3.4373,-3.5806,-3.5806,-3.6771,-3.8164,-3.8212,-3.917,-4.0303,-2.9626,-2.9453,-2.9365,-2.9365,-2.9004,-2.8721,-2.8721,-2.8476,-2.8291,-2.8291,-2.8291,-2.8291,-2.8291,-2.8291,-2.8291,0.0,-2.8291,-2.8291,0.0,-2.8291,-2.8291,-2.8291,-2.8291,-2.8291,-2.8291,-2.8291,-2.8291,-2.8291,0.0,0.0,0.0,-2.8096,-2.8164,-2.8291,-2.8291,-2.8291,-2.8291,-2.8291,-2.8291,-2.8291,-2.8291,-2.8291,-2.8291,-2.8291,-2.8291,-2.8291,-2.8291,-2.8291,-2.8291,-2.8291,-2.8291,-2.8291,-2.8291,-2.8291,-2.8291,-2.8291,-2.8291,-2.8291,-2.8291,-2.8291,-2.8291,-2.8291,-2.8291,-2.8291,-2.8291,-2.8291,-2.8252,-2.8125,-2.8096,-2.8047,-2.791,-2.7656,-2.7461,-2.7461,0.0,0.0,0.0,0.0,0.0,0.0,-2.6611,-2.6611,0.0,-2.6728,0.0,0.0,0.0,0.0,0.0,0.0,0.0,0.0,-2.8144,0.0,-2.8916,-2.9355,-2.9785,-3.0205,-3.0674,-3.1035,-3.1328,-3.1758,-3.2197,-3.2679,-3.4217,-3.4314,-3.3597,-3.5766,-3.6963,-3.7555,-3.8616,-3.9394,-3.9943,-4.1076,-4.0419,-3.9053,-3.0068,-2.9922,-2.9805,-2.9805,-2.9453,-2.9111,-2.8945,-2.8701,-2.8467,-2.831,-2.8291,-2.8291,-2.8291,-2.8291,0.0,-2.8291,-2.8291,-2.8291,-2.8291,-2.8291,-2.8291,-2.8291,-2.8291,-2.8291,-2.8291,0.0,0.0,-2.8291,-2.8291,-2.8291,-2.8291,-2.8291,-2.8291,-2.8291,-2.8291,-2.8291,-2.8291,-2.8291,-2.8291,-2.8291,-2.8291,-2.8291,-2.8291,-2.8291,-2.8291,-2.8291,-2.8291,-2.8291,-2.8291,-2.8291,-2.8291,-2.8291,-2.8291,-2.8291,-2.8291,-2.8291,-2.8291,-2.8291,-2.8291,-2.8291,-2.8291,-2.8291,-2.8291,-2.8291,-2.8291,-2.8291,-2.8291,-2.8291,-2.8291,-2.8291,-2.8291,-2.8076,-2.7953,-2.7953,0.0,-2.7441,-2.7275,0.0,0.0,0.0,0.0,0.0,0.0,-2.7168,0.0,0.0,0.0,0.0,0.0,0.0,0.0,-2.7891,-2.831,0.0,-2.916,-2.959,-3.0029,-3.0459,-3.0752,-3.1113,-3.1533,-3.1973,-3.2749,-3.3749,-3.5199,-3.5571,-3.5345,-3.7385,-3.8223,-3.8342,-3.9943,-4.0592,-4.0765,-4.2388,-4.1728,-4.0175,-3.0889,-3.0547,0.0,0.0,-2.9893,0.0,-2.9072,-2.8955,-2.8779,-2.8389,-2.831,-2.8291,-2.8291,-2.8291,-2.8291,-2.8291,0.0,0.0,0.0,-2.8291,-2.8291,-2.8291,-2.8291,-2.8291,-2.8291,-2.8291,-2.8291,-2.8291,-2.8291,-2.8291,-2.8291,-2.8291,-2.8291,-2.8291,-2.8291,-2.8291,-2.8291,-2.8291,-2.8291,-2.8291,-2.8291,-2.8291,-2.8291,-2.8291,-2.8291,-2.8291,-2.8291,-2.8291,-2.8291,-2.8291,-2.8291,-2.8291,-2.8291,-2.8291,-2.8291,-2.8291,-2.8291,-2.8291,-2.8291,-2.8291,-2.8291,-2.8291,-2.8291,-2.8291,-2.8291,-2.8291,-2.8291,-2.8291,-2.8291,-2.8291,-2.8291,-2.8291,-2.8291,-2.8291,-2.8291,-2.8154,-2.7816,0.0,0.0,0.0,0.0,0.0,0.0,-2.7471,-2.7767,0.0,0.0,0.0,0.0,0.0,-2.793,-2.832,-2.8711,-2.9141,-2.9665,-3.0,-3.043,-3.0889,-3.0889,-3.1123,-3.1582,-3.2093,-3.3397,-3.5257,-3.5861,-3.6952,-3.8223,-3.8461,-3.8461,-3.8521,-4.0117,-4.0777,-4.0949,-4.2444,-4.2974,-4.2974,0.0,0.0,-3.0723,-3.0723,-3.0351,-3.001,-2.9912,-2.9336,-2.8887,-2.8779,-2.8496,-2.8291,-2.8291,-2.8291,-2.8291,-2.8291,-2.8291,-2.8291,-2.8291,-2.8291,-2.8291,-2.8291,-2.8291,-2.8291,-2.8291,-2.8291,-2.8291,-2.8291,-2.8291,-2.8291,-2.8291,-2.8291,-2.8291,-2.8291,-2.8291,-2.8291,-2.8291,-2.8291,-2.8291,-2.8291,-2.8291,-2.8291,-2.8291,-2.8291,-2.8291,-2.8291,-2.8291,-2.8291,-2.8291,-2.8291,-2.8291,-2.8291,-2.8291,-2.8291,-2.8291,-2.8291,-2.8291,-2.8291,-2.8291,-2.8291,-2.8291,-2.8291,-2.8291,-2.8291,-2.8291,-2.8291,-2.8291,-2.8291,-2.8291,-2.8291,-2.8291,-2.8291,-2.8291,-2.8291,-2.8291,-2.8262,-2.8154,-2.8144,0.0,0.0,-2.7988,-2.7988,-2.7988,-2.8086,-2.8144,0.0,0.0,0.0,0.0,0.0,-2.8672,-2.876,-2.8867,-2.9277,-3.0039,-3.0146,-3.043,-3.0889,-3.0889,-3.1289,-3.2082,-3.3374,-3.4594,-3.577,-3.8394,-3.8982,-3.8402,-4.0834,-4.1133,-4.0175,-4.1785,-4.2432,-4.25,-4.2862,-4.2974,-4.2974,-3.0889,-3.0889,-3.0889,-3.0889,-3.0684,-3.0439,-3.0234,-2.9805,-2.9365,-2.8975,-2.8721,-2.8506,-2.831,-2.8291,-2.8291,-2.8291,-2.8291,-2.8291,-2.8291,-2.8291,-2.8291,-2.8291,-2.8291,-2.8291,-2.8291,-2.8291,-2.8291,-2.8291,-2.8291,-2.8291,-2.8291,-2.8291,-2.8291,-2.8291,-2.8291,-2.8291,-2.8291,-2.8291,-2.8291,-2.8291,-2.8291,-2.8291,-2.8291,-2.8291,-2.8291,-2.8291,-2.8291,-2.8291,-2.8291,-2.8291,-2.8418,-2.8574,-2.8574,-2.8711,-2.8877,-2.8877,-2.8603,-2.8291,-2.8291,-2.8291,-2.8291,-2.8291,-2.8291,-2.8291,-2.8291,-2.8291,-2.8291,-2.8291,-2.8291,-2.8291,-2.8291,-2.8291,-2.8291,-2.8291,-2.8291,-2.8291,-2.8291,-2.8291,0.0,-2.8291,-2.8291,-2.8291,-2.8291,-2.8291,-2.8291,-2.8291,0.0,0.0,-2.8574,-2.8984,-2.9121,-2.8926,-2.9297,-2.9726,-3.0195,-3.04,-3.0644,-3.0889,-3.1084,-3.1523,-3.2229,-3.4038,-3.5554,-3.7013,-3.9522,-4.0534,-4.0534,-4.2263,-4.2024,-4.0777,-4.2375,-4.2557,-4.2012,-4.2737,-4.2974,-4.2974,-3.0889,-3.0889,-3.0889,-3.0889,-3.0889,-3.0762,-3.0361,-3.0244,-2.9932,-2.9209,-2.9062,-2.8887,-2.8525,-2.8428,-2.8389,-2.8389,-2.833,-2.8291,-2.8291,-2.8291,-2.8291,-2.8291,-2.8291,-2.8291,-2.8291,-2.8291,-2.8291,-2.8291,-2.8291,-2.8291,-2.8291,-2.8291,-2.8291,-2.8291,-2.8291,-2.8291,-2.8291,-2.8291,-2.8291,-2.8291,-2.8291,-2.8291,-2.8291,-2.8291,-2.8291,-2.8301,-2.8369,-2.8389,-2.8398,-2.8457,-2.8721,-2.9023,-2.9023,-2.9277,-2.9626,-2.9626,-2.9053,-2.8486,-2.8486,-2.8486,-2.8486,-2.8486,-2.8486,-2.8486,-2.8486,-2.8486,-2.8486,-2.8486,-2.8486,-2.8486,-2.8486,-2.8486,-2.8467,-2.8398,-2.8389,-2.8369,-2.8301,0.0,-2.831,-2.8379,-2.8389,-2.8418,-2.8476,-2.8486,-2.8486,-2.8486,-2.8818,0.0,0.0,-2.9434,-2.9492,-2.9121,-2.9814,-3.0234,-3.0303,-3.0693,-3.0928,-3.0986,-3.1348,-3.1887,-3.2742,-3.4677,-3.6687,-3.8639,-4.0233,-4.1728,-4.2974,-4.2974,-4.2194,-4.1076,-4.2444,-4.2137,-4.1133,-4.25,-4.2974,-4.2974,-3.0889,-3.0889,-3.0889,-3.0889,-3.0889,-3.0869,-3.0791,-3.0449,-3.0146,-3.0019,-2.9687,-2.9443,-2.943,-2.9043,-2.8818,-2.8818,-2.8496,-2.8291,-2.8291,-2.8291,-2.8291,-2.8291,-2.8291,-2.8291,-2.8291,-2.8291,-2.8291,-2.8291,-2.8291,-2.8291,-2.8291,-2.8291,-2.8291,-2.8291,-2.8291,-2.8291,-2.8291,-2.8291,-2.8291,-2.8291,-2.8291,-2.8291,-2.8291,-2.8291,-2.8291,-2.834,-2.8691,-2.8818,-2.8877,-2.9248,-2.9414,-2.9473,-2.9473,-2.9512,-2.9626,-2.9626,-2.9473,-2.9375,-2.9375,-2.9375,-2.9375,-2.9375,-2.9375,-2.9375,-2.9375,-2.9375,-2.9375,-2.9375,-2.9375,-2.9375,-2.9375,-2.9375,-2.9248,-2.8877,-2.8818,-2.8701,-2.834,0.0,-2.8428,-2.8779,-2.8818,-2.8965,-2.9336,-2.9375,-2.9375,-2.9375,-2.9489,-2.9473,-2.9473,-2.9873,-3.0068,-3.0,-3.0127,-3.0391,-3.0781,-3.0859,-3.1064,-3.1426,-3.1484,-3.2615,-3.48,-3.6463,-3.835,-4.0303,-4.1911,-4.2793,-4.2974,-4.2974,-4.2849,-4.2681,-4.2918,-4.2862,-4.2681,-4.2918,-4.2974,-4.2974,-3.0889,-3.0889,-3.0889,-3.0889,-3.0889,-3.0889,-3.0889,-3.0703,-3.0478,-3.0234,-3.0029,-2.9824,-2.959,-2.9394,-2.9268,-2.9268,-2.9092,-2.8877,-2.8643,-2.8418,-2.8291,-2.8291,-2.8291,-2.8291,-2.8291,-2.8291,-2.8291,-2.8291,-2.8291,-2.8291,-2.8291,-2.8291,-2.8291,-2.8291,-2.8291,-2.8291,-2.8291,-2.8291,-2.8291,-2.8291,-2.8291,-2.8428,-2.8633,-2.8633,-2.8779,-2.9004,-2.9199,-2.9268,-2.9297,-2.9502,-2.9717,-2.9902,-2.9902,-3.0078,-3.0283,-3.0283,-2.9941,-2.9626,-2.9626,-2.9626,-2.9626,-2.9626,-2.9626,-2.9626,-2.9626,-2.9626,-2.9626,-2.9626,-2.9626,-2.9626,-2.9626,-2.9626,-2.9502,-2.9307,-2.9268,0.0,0.0,-2.8975,-2.9053,-2.9248,-2.9268,-2.9346,-2.9551,-2.9626,-2.9626,-2.9626,-2.9785,-2.9902,-2.9902,-3.0332,-3.0576,-3.0576,-3.0576,-3.0674,-3.0889,-3.172,-3.1872,-3.1514,-3.3399,-3.4602,-3.5315,-3.7988,-3.972,-4.0719,-4.2319,-4.2974,-4.2974,-4.2974,-4.2974,-4.2974,-4.2974,-4.2974,-4.2974,-4.2974,-4.2974,-4.2974,-3.0889,-3.0889,-3.0889,-3.0889,-3.0889,-3.0889,-3.0889,-3.0889,-3.0762,-3.04,-3.0361,-3.0234,-2.9912,-2.9785,-2.9717,-2.9717,-2.9629,-2.9434,-2.9092,-2.8769,-2.8506,-2.8301,-2.8291,-2.8291,-2.8291,-2.8291,-2.8291,-2.8291,-2.8291,-2.8291,-2.8291,-2.8291,-2.8291,-2.8291,-2.8291,-2.8291,-2.8291,-2.8291,-2.835,-2.8437,-2.8437,-2.8691,-2.9072,-2.9072,-2.9277,-2.9636,-2.9734,-2.9717,-2.9792,-2.99,-3.0088,-3.0361,-3.0361,-3.0605,-3.0889,-3.0889,-3.041,-2.9873,-2.9873,-2.9873,-2.9873,-2.9873,-2.9873,-2.9873,-2.9873,-2.9873,-2.9873,-2.9873,-2.9873,-2.9873,-2.9873,-2.9873,-2.99,-2.9736,0.0,0.0,0.0,-2.9626,-2.96,-2.9707,-2.9717,-2.9756,-2.9863,-2.9873,-2.9873,-2.9873,-3.0176,-3.0361,-3.0361,-3.0693,-3.1054,-3.1383,-3.1054,-3.1054,-3.1383,-3.2309,-3.2748,-3.2749,-3.5188,-3.6414,-3.654,-3.9337,-4.0777,-4.1248,-4.2444,-4.2974,-4.2974,-4.2974,-4.2974,-4.2974,-4.2974,-4.2974,-4.2974,-4.2974,-4.2974,-4.2974,-3.0889,-3.0889,-3.0889,-3.0889,-3.0889,-3.0889,-3.0889,-3.0889,-3.0879,-3.084,-3.084,-3.083,-3.0801,-3.041,-3.0156,-3.0156,-2.9795,-2.9616,-2.9521,-2.9492,-2.9121,-2.833,-2.8291,-2.8291,-2.8291,-2.8291,-2.8291,-2.8291,-2.8291,-2.8291,-2.8291,-2.8291,-2.8291,-2.8291,-2.8291,-2.8291,-2.8291,-2.8291,-2.8516,-2.8877,-2.8877,-2.9131,-2.9521,-2.9521,-2.9597,-2.9675,-3.001,-3.0156,-3.0215,-3.0644,-3.081,-3.084,-3.084,-3.0859,-3.0889,-3.0889,-3.084,-3.0791,-3.0791,-3.0791,-3.0791,-3.0791,-3.0791,-3.0791,-3.0791,-3.0791,-3.0791,-3.0791,-3.0791,-3.0791,-3.0791,-3.0791,-3.0654,-3.0225,0.0,0.0,-2.9629,-2.9626,-2.9717,-3.0107,-3.0156,-3.0322,-3.0752,-3.0791,-3.0791,-3.0791,-3.082,-3.084,-3.084,-3.0869,-3.1546,-3.2907,-3.1604,-3.1546,-3.2907,-3.2053,-3.321,-3.6287,-3.5623,-3.7026,-4.0186,-4.0465,-4.1419,-4.2849,-4.2974,-4.2974,-4.2974,-4.2974,-4.2974,-4.2974,-4.2974,-4.2974,-4.2974,-4.2974,-4.2974,-4.2974,-3.0889,-3.0889,-3.0889,-3.0889,-3.0889,-3.0889,-3.0889,-3.0889,-3.0889,-3.0889,-3.0889,-3.0889,-3.0889,-3.0732,-3.0625,-3.0625,-3.0478,-3.0264,-2.9971,-2.9961,-2.9697,-2.9111,-2.8828,-2.8682,-2.8682,-2.8428,-2.8291,-2.8291,-2.8291,-2.8291,-2.8291,-2.8291,-2.8428,-2.8682,-2.8682,-2.8828,-2.9082,-2.9082,-2.918,-2.9316,-2.9316,-2.958,-2.9961,-2.9961,-3.0137,-3.041,-3.0566,-3.0625,-3.0654,-3.083,-3.0889,-3.0889,-3.0889,-3.0889,-3.0889,-3.0889,-3.0889,-3.0889,-3.0889,-3.0889,-3.0889,-3.0889,-3.0889,-3.0889,-3.0889,-3.0889,-3.0889,-3.0889,-3.0889,-3.0889,-3.0889,-3.0889,-3.083,-3.0654,0.0,-3.0576,-3.041,-3.0391,-3.0449,-3.0605,-3.0625,-3.0693,-3.0869,-3.0889,-3.0889,-3.0889,-3.0889,-3.1276,-3.2207,-3.2254,-3.2653,-3.3544,-3.3058,-3.345,-3.4964,-3.5467,-3.6249,-3.7273,-3.8791,-3.991,-4.065,-4.1602,-4.2432,-4.2974,-4.2974,-4.2974,-4.2974,-4.2974,-4.2974,-4.2974,-4.2974,-4.2974,-4.2974,-4.2974,-4.2974,-4.2974,-3.0889,-3.0889,-3.0889,-3.0889,-3.0889,-3.0889,-3.0889,-3.0889,-3.0889,-3.0889,-3.0889,-3.0889,-3.0889,-3.0889,-3.0889,-3.0889,-3.0889,-3.0752,-3.043,-3.042,-3.0156,-2.959,-2.9287,-2.9121,-2.9121,-2.8838,-2.8691,-2.8691,-2.8691,-2.8691,-2.8691,-2.8691,-2.8848,-2.9121,-2.9121,-2.9287,-2.9626,-2.9626,-2.9648,-2.9766,-2.9766,-3.0029,-3.042,-3.042,-3.0615,-3.0889,-3.0889,-3.0889,-3.0889,-3.0889,-3.0889,-3.0889,-3.0889,-3.0889,-3.0889,-3.0889,-3.0889,-3.0889,-3.0889,-3.0889,-3.0889,-3.0889,-3.0889,-3.0889,-3.0889,-3.0889,-3.0889,-3.0889,-3.0889,-3.0889,-3.0889,-3.0889,-3.0889,-3.0889,-3.0889,-3.0889,-3.0889,-3.0889,-3.0889,-3.0889,-3.0889,-3.0889,-3.0889,-3.0889,-3.0889,-3.0889,-3.0889,-3.1325,-3.2369,-3.2996,-3.3709,-3.4543,-3.5198,-3.6319,-3.8017,-3.8061,-3.8424,-3.9079,-4.0869,-4.1599,-4.1362,-4.25,-4.2974,-4.2974,-4.2974,-4.2974,-4.2974,-4.2974,-4.2974,-4.2974,-4.2974,-4.2974,-4.2974,-4.2974,-4.2974,-4.2974,-3.0889,-3.0889,-3.0889,-3.0889,-3.0889,-3.0889,-3.0889,-3.0889,-3.0889,-3.0889,-3.0889,-3.0889,-3.0889,-3.0889,-3.0889,-3.0889,-3.0889,-3.0889,-3.0889,-3.0889,-3.0498,-2.9675,-2.9636,-2.957,-2.957,-2.9626,-2.9626,-2.9626,-2.9626,-2.9626,-2.9626,-2.9626,-2.9626,-2.957,-2.957,-2.9636,-2.9636,-2.9636,-2.9824,-3.0205,-3.0205,-3.0478,-3.0889,-3.0889,-3.0889,-3.0889,-3.0889,-3.0889,-3.0889,-3.0889,-3.0889,-3.0889,-3.0889,-3.0889,-3.0889,-3.0889,-3.0889,-3.0889,-3.0889,-3.0889,-3.0889,-3.0889,-3.0889,-3.0889,-3.0889,-3.0889,-3.0889,-3.0889,-3.0889,-3.0889,-3.0889,-3.0889,-3.0889,-3.0889,-3.0889,-3.0889,-3.0889,-3.0889,-3.0889,-3.0889,-3.0889,-3.0889,-3.0889,-3.0889,-3.0889,-3.0889,-3.0957,-3.0947,-3.0947,-3.2857,-3.4622,-3.6095,-3.8085,-4.0086,-4.2213,-3.9194,-3.9182,-4.217,-4.112,-4.1488,-4.2974,-4.2974,-4.2974,-4.2974,-4.2974,-4.2974,-4.2974,-4.2974,-4.2974,-4.2974,-4.2974,-4.2974,-4.2974,-4.2974,-4.2974,-4.2974,-3.0889,-3.0889,-3.0889,-3.0889,-3.0889,-3.0889,-3.0889,-3.0889,-3.0889,-3.0889,-3.0889,-3.0889,-3.0889,-3.0889,-3.0889,-3.0889,-3.0889,-3.0889,-3.0889,-3.0889,-3.0771,-3.0508,-3.0185,-3.001,-3.001,-2.9717,-2.9626,-2.9626,-2.9626,-2.9626,-2.9626,-2.9626,-2.9726,-3.001,-3.001,-3.0195,-3.0498,-3.0498,-3.0566,-3.0684,-3.0684,-3.0771,-3.0889,-3.0889,-3.0889,-3.0889,-3.0889,-3.0889,-3.0889,-3.0889,-3.0889,-3.0889,-3.0889,-3.0889,-3.0889,-3.0889,-3.0889,-3.0889,-3.0889,-3.0889,-3.0889,-3.0889,-3.0889,-3.0889,-3.0889,-3.0889,-3.0889,-3.0889,-3.0889,-3.0889,-3.0889,-3.0889,-3.0889,-3.0889,-3.0889,-3.0889,-3.0889,-3.0889,-3.0889,-3.0889,-3.0889,-3.0889,-3.0889,-3.0889,-3.0889,-3.0889,-3.3174,-3.4531,-3.4531,-3.6432,-3.7935,-3.8782,-3.9398,-4.0724,-4.2723,-4.1465,-4.1465,-4.2735,-4.2426,-4.2557,-4.2974,-4.2974,-4.2974,-4.2974,-4.2974,-4.2974,-4.2974,-4.2974,-4.2974,-4.2974,-4.2974,-4.2974,-4.2974,-4.2974,-4.2974,-4.2974,-3.0889,-3.0889,-3.0889,-3.0889,-3.0889,-3.0889,-3.0889,-3.0889,-3.0889,-3.0889,-3.0889,-3.0889,-3.0889,-3.0889,-3.0889,-3.0889,-3.0889,-3.0889,-3.0889,-3.0889,-3.0889,-3.0889,-3.0625,-3.0469,-3.0469,-3.0225,-3.0088,-3.0088,-3.0088,-3.0088,-3.0088,-3.0088,-3.0225,-3.0469,-3.0469,-3.0625,-3.0889,-3.0889,-3.0889,-3.0889,-3.0889,-3.0889,-3.0889,-3.0889,-3.0889,-3.0889,-3.0889,-3.0889,-3.0889,-3.0889,-3.0889,-3.0889,-3.0889,-3.0889,-3.0889,-3.0889,-3.0889,-3.0889,-3.0889,-3.0889,-3.0889,-3.0889,-3.0889,-3.0889,-3.0889,-3.0889,-3.0889,-3.0889,-3.0889,-3.0889,-3.0889,-3.0889,-3.0889,-3.0889,-3.0889,-3.0889,-3.0889,-3.0889,-3.0889,-3.0889,-3.0889,-3.0889,-3.0889,-3.16,-3.2438,-3.3219,-3.5233,-3.641,-3.641,-3.8365,-3.961,-4.0001,-4.0793,-4.1761,-4.2974,-4.2703,-4.2703,-4.2974,-4.2974,-4.2974,-4.2974,-4.2974,-4.2974,-4.2974,-4.2974,-4.2974,-4.2974,-4.2974,-4.2974,-4.2974,-4.2974,-4.2974,-4.2974,-4.2974,-4.2974,-4.2974,-3.0889,-3.0889,-3.0889,-3.0889,-3.0889,-3.0889,-3.0889,-3.0889,-3.0889,-3.0889,-3.0889,-3.0889,-3.0889,-3.0889,-3.0889,-3.0889,-3.0889,-3.0889,-3.0889,-3.0889,-3.0889,-3.0889,-3.0889,-3.0889,-3.0889,-3.0889,-3.0889,-3.0889,-3.0889,-3.0889,-3.0889,-3.0889,-3.0889,-3.0889,-3.0889,-3.0889,-3.0889,-3.0889,-3.0889,-3.0889,-3.0889,-3.0889,-3.0889,-3.0889,-3.0889,-3.0889,-3.0889,-3.0889,-3.0889,-3.0889,-3.0889,-3.0889,-3.0889,-3.0889,-3.0889,-3.0889,-3.0889,-3.0889,-3.0889,-3.0889,-3.0889,-3.0889,-3.0889,-3.0889,-3.0889,-3.0889,-3.0889,-3.0889,-3.0889,-3.0889,-3.0889,-3.0889,-3.0889,-3.0889,-3.0889,-3.0889,-3.0889,-3.0889,-3.0898,-3.0947,-3.1054,-3.1181,-3.122,-3.3025,-3.501,-3.6963,-3.7156,-3.7235,-3.736,-3.9198,-4.0254,-4.0254,-4.2059,-4.2974,-4.2974,-4.2974,-4.2974,-4.2974,-4.2974,-4.2974,-4.2974,-4.2974,-4.2974,-4.2974,-4.2974,-4.2974,-4.2974,-4.2974,-4.2974,-4.2974,-4.2974,-4.2974,-4.2974,-4.2974,-4.2974,-4.2986,-3.0889,-3.0889,-3.0889,-3.0889,-3.0889,-3.0889,-3.0889,-3.0889,-3.0889,-3.0889,-3.0889,-3.0889,-3.0889,-3.0889,-3.0889,-3.0889,-3.0889,-3.0889,-3.0889,-3.0889,-3.0889,-3.0889,-3.0889,-3.0889,-3.0889,-3.0889,-3.0889,-3.0889,-3.0889,-3.0889,-3.0889,-3.0889,-3.0889,-3.0889,-3.0889,-3.0889,-3.0889,-3.0889,-3.0889,-3.0889,-3.0889,-3.0889,-3.0889,-3.0889,-3.0889,-3.0889,-3.0889,-3.0889,-3.0889,-3.0889,-3.0889,-3.0889,-3.0889,-3.0889,-3.0889,-3.0889,-3.0889,-3.0889,-3.0889,-3.0889,-3.0889,-3.0889,-3.0889,-3.0889,-3.0889,-3.0889,-3.0889,-3.0889,-3.0889,-3.0889,-3.0889,-3.0889,-3.0889,-3.0889,-3.0889,-3.0889,-3.0889,-3.0889,-3.1016,-3.1338,-3.2504,-3.3364,-3.3717,-3.5248,-3.6895,-3.8486,-3.9066,-3.9822,-4.0973,-4.1905,-4.2326,-4.2326,-4.2799,-4.2974,-4.2974,-4.2974,-4.2974,-4.2974,-4.2974,-4.2974,-4.2974,-4.2974,-4.2974,-4.2974,-4.2974,-4.2974,-4.2974,-4.2974,-4.2974,-4.2974,-4.2974,-4.2974,-4.2974,-4.2974,-4.2974,-4.3099,-3.0889,-3.0889,-3.0889,-3.0889,-3.0889,-3.0889,-3.0889,-3.0889,-3.0889,-3.0889,-3.0889,-3.0889,-3.0889,-3.0889,-3.0889,-3.0889,-3.0889,-3.0889,-3.0889,-3.0889,-3.0889,-3.0889,-3.0889,-3.0889,-3.0889,-3.0889,-3.0889,-3.0889,-3.0889,-3.0889,-3.0889,-3.0889,-3.0889,-3.0889,-3.0889,-3.0889,-3.0889,-3.0889,-3.0889,-3.0889,-3.0889,-3.0889,-3.0889,-3.0889,-3.0889,-3.0889,-3.0889,-3.0889,-3.0889,-3.0889,-3.0889,-3.0889,-3.0889,-3.0889,-3.0889,-3.0889,-3.0889,-3.0889,-3.0889,-3.0889,-3.0889,-3.0889,-3.0889,-3.0889,-3.0889,-3.0889,-3.0889,-3.0889,-3.0889,-3.0889,-3.0889,-3.0889,-3.0957,-3.1162,-3.1191,-3.126,-3.1475,-3.2165,-3.2697,-3.293,-3.4366,-3.5799,-3.6989,-3.7897,-3.9092,-4.0862,-4.1267,-4.1787,-4.2547,-4.2879,-4.2974,-4.2974,-4.2974,-4.2974,-4.2974,-4.2974,-4.2974,-4.2974,-4.2974,-4.2974,-4.2974,-4.2974,-4.2974,-4.2974,-4.2974,-4.2974,-4.2974,-4.2974,-4.2974,-4.2974,-4.2974,-4.2974,-4.2974,-4.2974,-4.3137,-4.3489,-3.0889,-3.0889,-3.0889,-3.0889,-3.0889,-3.0889,-3.0889,-3.0889,-3.0889,-3.0889,-3.0889,-3.0889,-3.0889,-3.0889,-3.0889,-3.0889,-3.0889,-3.0889,-3.0889,-3.0889,-3.0889,-3.0889,-3.0889,-3.0889,-3.0889,-3.0889,-3.0889,-3.0889,-3.0889,-3.0889,-3.0889,-3.0889,-3.0889,-3.0889,-3.0889,-3.0889,-3.0889,-3.0889,-3.0889,-3.0889,-3.0889,-3.0889,-3.0889,-3.0889,-3.0889,-3.0889,-3.0889,-3.0889,-3.0889,-3.0889,-3.0889,-3.0889,-3.0889,-3.0889,-3.0889,-3.0889,-3.0889,-3.0889,-3.0889,-3.0947,-3.0996,-3.0996,-3.1055,-3.1113,-3.1113,-3.1055,-3.0996,-3.0996,-3.1055,-3.1113,-3.1113,-3.1113,-3.1221,-3.1572,-3.185,-3.2147,-3.2513,-3.393,-3.4923,-3.5008,-3.652,-3.8296,-4.0322,-4.0495,-4.1196,-4.288,-4.2974,-4.2974,-4.2974,-4.2974,-4.2974,-4.2974,-4.2974,-4.2974,-4.2974,-4.2974,-4.2974,-4.2974,-4.2974,-4.2974,-4.2974,-4.2974,-4.2974,-4.2974,-4.2974,-4.2974,-4.2974,-4.2974,-4.2974,-4.2974,-4.2974,-4.2974,-4.2974,-4.2974,-4.3325,-4.3878,-3.0889,-3.0889,-3.0889,-3.0889,-3.0889,-3.0889,-3.0889,-3.0889,-3.0889,-3.0889,-3.0889,-3.0889,-3.0889,-3.0889,-3.0889,-3.0889,-3.0889,-3.0889,-3.0889,-3.0889,-3.0889,-3.0889,-3.0889,-3.0889,-3.0889,-3.0889,-3.0889,-3.0889,-3.0889,-3.0889,-3.0889,-3.0889,-3.0889,-3.0889,-3.0889,-3.0889,-3.0889,-3.0889,-3.0889,-3.0889,-3.0889,-3.0889,-3.0889,-3.0889,-3.0889,-3.0889,-3.0889,-3.0889,-3.0889,-3.0889,-3.0889,-3.0889,-3.0889,-3.0889,-3.0889,-3.0889,-3.0889,-3.0889,-3.0889,-3.1152,-3.1435,-3.1435,-3.1719,-3.1992,-3.1992,-3.1709,-3.1435,-3.1435,-3.1728,-3.1992,-3.1992,-3.1992,-3.2012,-3.207,-3.3214,-3.4143,-3.4205,-3.558,-3.6718,-3.7105,-3.8932,-4.0757,-4.2445,-4.2569,-4.2718,-4.2974,-4.2974,-4.2974,-4.2974,-4.2974,-4.2974,-4.2974,-4.2974,-4.2974,-4.2974,-4.2974,-4.2974,-4.2974,-4.2974,-4.2974,-4.2974,-4.2974,-4.2974,-4.2974,-4.2974,-4.2974,-4.2974,-4.2974,-4.2974,-4.2974,-4.2974,-4.2974,-4.2974,-4.2974,-4.3325,-4.3878,-3.0889,-3.0889,-3.0889,-3.0889,-3.0889,-3.0889,-3.0889,-3.0889,-3.0889,-3.0889,-3.0889,-3.0889,-3.0889,-3.0889,-3.0889,-3.0889,-3.0889,-3.0889,-3.0889,-3.0889,-3.0889,-3.0889,-3.0889,-3.0889,-3.0889,-3.0889,-3.0889,-3.0889,-3.0889,-3.0889,-3.0889,-3.0889,-3.0889,-3.0889,-3.0889,-3.0889,-3.0889,-3.0889,-3.0889,-3.0889,-3.0889,-3.0889,-3.0889,-3.0889,-3.0889,-3.0889,-3.0889,-3.0889,-3.0889,-3.0889,-3.0889,-3.0889,-3.0889,-3.0889,-3.0937,-3.1172,-3.124,-3.1289,-3.1543,-3.1738,-3.1875,-3.1875,-3.2031,-3.2452,-3.3305,-3.3515,-3.3255,-3.2105,-3.2031,-3.2229,-3.2229,-3.2905,-3.3555,-3.381,-3.5187,-3.6326,-3.6529,-3.796,-3.9391,-4.0464,-4.1412,-4.2206,-4.2918,-4.2974,-4.2974,-4.2974,-4.2974,-4.2974,-4.2974,-4.2974,-4.2974,-4.2974,-4.2974,-4.2974,-4.2974,-4.2974,-4.2974,-4.2974,-4.2974,-4.2974,-4.2974,-4.2974,-4.2974,-4.2974,-4.2974,-4.2974,-4.2974,-4.2974,-4.2974,-4.2974,-4.2974,-4.2974,-4.2974,-4.2974,-4.3526,-4.4292]},{"header":{"parameterUnit":"m.s-1","parameterCategory":1,"la1":30.6,"la2":28.766,"lo1":-90.7593,"lo2":-88.6598,"dx":0.0162,"dy":0.0183,"nx":116,"ny":114,"refTime":"2023-02-03T06:00:00:Z","depth":0,"parameterNumber":3,"parameterNumberName":"V-component_of_WINDS"},"data":[0.0,0.0,0.0,0.0,0.0,0.0,0.0,0.0,0.0,0.0,0.0,0.0,0.0,0.0,0.0,0.0,0.0,0.0,0.0,0.0,0.0,0.0,0.0,0.0,0.0,0.0,0.0,0.0,0.0,0.0,0.0,0.0,0.0,0.0,0.0,0.0,0.0,0.0,0.0,0.0,0.0,0.0,0.0,0.0,0.0,0.0,0.0,0.0,0.0,0.0,0.0,0.0,0.0,0.0,0.0,0.0,0.0,0.0,0.0,0.0,0.0,0.0,0.0,0.0,0.0,0.0,0.0,0.0,0.0,0.0,0.0,0.0,0.0,0.0,0.0,0.0,0.0,0.0,0.0,0.0,0.0,0.0,0.0,0.0,0.0,0.0,0.0,0.0,0.0,0.0,0.0,0.0,0.0,0.0,0.0,0.0,0.0,0.0,0.0,0.0,0.0,0.0,0.0,0.0,0.0,0.0,0.0,0.0,0.0,0.0,0.0,0.0,0.0,0.0,0.0,0.0,0.0,0.0,0.0,0.0,0.0,0.0,0.0,0.0,0.0,0.0,0.0,0.0,0.0,0.0,0.0,0.0,0.0,0.0,0.0,0.0,0.0,0.0,0.0,0.0,0.0,0.0,0.0,0.0,0.0,0.0,0.0,0.0,0.0,0.0,0.0,0.0,0.0,0.0,0.0,0.0,0.0,0.0,0.0,0.0,0.0,0.0,0.0,0.0,0.0,0.0,0.0,0.0,0.0,0.0,0.0,0.0,0.0,0.0,0.0,0.0,0.0,0.0,0.0,0.0,0.0,0.0,0.0,0.0,0.0,0.0,0.0,0.0,0.0,0.0,0.0,0.0,0.0,0.0,0.0,0.0,0.0,0.0,0.0,0.0,0.0,0.0,0.0,0.0,0.0,0.0,0.0,0.0,0.0,0.0,0.0,0.0,0.0,0.0,0.0,0.0,0.0,0.0,0.0,0.0,0.0,0.0,0.0,0.0,0.0,0.0,0.0,0.0,0.0,0.0,0.0,0.0,0.0,0.0,0.0,0.0,0.0,0.0,0.0,0.0,0.0,0.0,0.0,0.0,0.0,0.0,0.0,0.0,0.0,0.0,0.0,0.0,0.0,0.0,0.0,0.0,0.0,0.0,0.0,0.0,0.0,0.0,0.0,0.0,0.0,0.0,0.0,0.0,0.0,0.0,0.0,0.0,0.0,0.0,0.0,0.0,0.0,0.0,0.0,0.0,0.0,0.0,0.0,0.0,0.0,0.0,0.0,0.0,0.0,0.0,0.0,0.0,0.0,0.0,0.0,0.0,0.0,0.0,0.0,0.0,0.0,0.0,0.0,0.0,0.0,0.0,0.0,0.0,0.0,0.0,0.0,0.0,0.0,0.0,0.0,0.0,0.0,0.0,0.0,0.0,0.0,0.0,0.0,0.0,0.0,0.0,0.0,0.0,0.0,0.0,0.0,0.0,0.0,0.0,0.0,0.0,0.0,0.0,0.0,0.0,0.0,0.0,0.0,0.0,0.0,0.0,0.0,0.0,0.0,0.0,0.0,0.0,0.0,0.0,0.0,0.0,0.0,0.0,0.0,0.0,0.0,0.0,0.0,0.0,0.0,0.0,0.0,0.0,0.0,0.0,0.0,0.0,0.0,0.0,0.0,0.0,0.0,0.0,0.0,0.0,0.0,0.0,0.0,0.0,0.0,0.0,0.0,0.0,0.0,0.0,0.0,0.0,0.0,0.0,0.0,0.0,0.0,0.0,0.0,0.0,0.0,0.0,0.0,0.0,0.0,0.0,0.0,0.0,0.0,0.0,0.0,0.0,0.0,0.0,0.0,0.0,0.0,0.0,0.0,0.0,0.0,0.0,0.0,0.0,0.0,0.0,0.0,0.0,0.0,0.0,0.0,0.0,0.0,0.0,0.0,0.0,0.0,0.0,0.0,0.0,0.0,0.0,0.0,0.0,0.0,0.0,0.0,0.0,0.0,0.0,0.0,0.0,0.0,0.0,0.0,0.0,0.0,0.0,0.0,0.0,0.0,0.0,0.0,0.0,0.0,0.0,0.0,0.0,0.0,0.0,0.0,0.0,0.0,0.0,0.0,0.0,0.0,0.0,0.0,0.0,0.0,0.0,0.0,0.0,0.0,0.0,0.0,0.0,0.0,0.0,0.0,0.0,0.0,0.0,0.0,0.0,0.0,0.0,0.0,0.0,0.0,0.0,0.0,0.0,0.0,0.0,0.0,0.0,0.0,0.0,0.0,0.0,0.0,0.0,0.0,0.0,0.0,0.0,0.0,0.0,0.0,0.0,0.0,0.0,0.0,0.0,0.0,0.0,0.0,0.0,0.0,0.0,0.0,0.0,0.0,0.0,0.0,0.0,0.0,0.0,0.0,0.0,0.0,0.0,0.0,0.0,0.0,0.0,0.0,0.0,0.0,0.0,0.0,0.0,0.0,0.0,0.0,0.0,0.0,0.0,0.0,0.0,0.0,0.0,0.0,0.0,0.0,0.0,0.0,0.0,0.0,0.0,0.0,0.0,0.0,0.0,0.0,0.0,0.0,0.0,0.0,0.0,0.0,0.0,0.0,0.0,0.0,0.0,0.0,0.0,0.0,0.0,0.0,0.0,0.0,0.0,0.0,0.0,0.0,0.0,0.0,0.0,0.0,0.0,0.0,0.0,0.0,0.0,0.0,0.0,0.0,0.0,0.0,0.0,0.0,0.0,0.0,0.0,0.0,0.0,0.0,0.0,0.0,0.0,0.0,0.0,0.0,0.0,0.0,0.0,0.0,0.0,0.0,0.0,0.0,0.0,0.0,0.0,0.0,0.0,0.0,0.0,0.0,0.0,0.0,0.0,0.0,0.0,0.0,0.0,0.0,0.0,0.0,0.0,0.0,0.0,0.0,0.0,0.0,0.0,0.0,0.0,0.0,0.0,0.0,0.0,0.0,0.0,0.0,0.0,0.0,0.0,0.0,0.0,0.0,0.0,0.0,0.0,0.0,0.0,0.0,0.0,0.0,0.0,0.0,0.0,0.0,0.0,0.0,0.0,0.0,0.0,0.0,0.0,0.0,0.0,0.0,0.0,0.0,0.0,0.0,0.0,0.0,0.0,0.0,0.0,0.0,0.0,0.0,0.0,0.0,0.0,0.0,0.0,0.0,0.0,0.0,0.0,0.0,0.0,0.0,0.0,0.0,0.0,0.0,0.0,0.0,0.0,0.0,0.0,0.0,0.0,0.0,0.0,0.0,0.0,0.0,0.0,0.0,0.0,0.0,0.0,0.0,0.0,0.0,0.0,0.0,0.0,0.0,0.0,0.0,0.0,0.0,0.0,0.0,0.0,0.0,0.0,0.0,0.0,0.0,0.0,0.0,0.0,0.0,0.0,0.0,0.0,0.0,0.0,0.0,0.0,0.0,0.0,0.0,0.0,0.0,0.0,0.0,0.0,0.0,0.0,0.0,0.0,0.0,0.0,0.0,0.0,0.0,0.0,0.0,0.0,0.0,0.0,0.0,0.0,0.0,0.0,0.0,0.0,0.0,0.0,0.0,0.0,0.0,0.0,0.0,0.0,0.0,0.0,0.0,0.0,0.0,0.0,0.0,0.0,0.0,0.0,0.0,0.0,0.0,0.0,0.0,0.0,0.0,0.0,0.0,0.0,0.0,0.0,0.0,0.0,0.0,0.0,0.0,0.0,0.0,0.0,0.0,0.0,0.0,0.0,0.0,0.0,0.0,0.0,0.0,0.0,0.0,0.0,0.0,0.0,0.0,0.0,0.0,0.0,0.0,0.0,0.0,0.0,0.0,0.0,0.0,0.0,0.0,0.0,0.0,0.0,0.0,0.0,0.0,0.0,0.0,0.0,0.0,0.0,0.0,0.0,0.0,0.0,0.0,0.0,0.0,0.0,0.0,0.0,0.0,0.0,0.0,0.0,0.0,0.0,0.0,0.0,0.0,0.0,0.0,0.0,0.0,0.0,0.0,0.0,0.0,0.0,0.0,0.0,0.0,0.0,0.0,0.0,0.0,0.0,0.0,0.0,0.0,0.0,0.0,0.0,0.0,0.0,0.0,0.0,0.0,0.0,0.0,0.0,0.0,0.0,0.0,0.0,0.0,0.0,0.0,0.0,0.0,0.0,0.0,0.0,0.0,0.0,0.0,0.0,0.0,0.0,0.0,0.0,0.0,0.0,0.0,0.0,0.0,0.0,0.0,0.0,0.0,0.0,0.0,0.0,0.0,0.0,0.0,0.0,0.0,0.0,0.0,0.0,0.0,0.0,0.0,0.0,0.0,0.0,0.0,0.0,0.0,0.0,0.0,0.0,0.0,0.0,0.0,0.0,0.0,0.0,0.0,0.0,0.0,0.0,0.0,0.0,0.0,0.0,0.0,0.0,0.0,0.0,0.0,0.0,0.0,0.0,0.0,0.0,0.0,0.0,0.0,0.0,0.0,0.0,0.0,0.0,0.0,0.0,0.0,0.0,0.0,0.0,0.0,0.0,0.0,0.0,0.0,0.0,0.0,0.0,0.0,0.0,0.0,0.0,0.0,0.0,0.0,0.0,0.0,0.0,0.0,0.0,0.0,0.0,0.0,0.0,0.0,0.0,0.0,0.0,0.0,0.0,0.0,0.0,0.0,0.0,0.0,0.0,0.0,0.0,0.0,0.0,0.0,0.0,0.0,0.0,0.0,0.0,0.0,0.0,0.0,0.0,0.0,0.0,0.0,0.0,0.0,0.0,0.0,0.0,0.0,0.0,0.0,0.0,0.0,0.0,0.0,0.0,0.0,0.0,0.0,0.0,0.0,0.0,0.0,0.0,0.0,0.0,0.0,0.0,0.0,0.0,0.0,0.0,0.0,0.0,0.0,0.0,0.0,0.0,0.0,0.0,0.0,0.0,0.0,0.0,0.0,0.0,0.0,0.0,0.0,0.0,0.0,0.0,0.0,0.0,0.0,0.0,0.0,0.0,0.0,0.0,0.0,0.0,0.0,0.0,0.0,0.0,0.0,0.0,0.0,0.0,0.0,0.0,0.0,0.0,0.0,0.0,0.0,0.0,0.0,0.0,0.0,0.0,0.0,0.0,0.0,0.0,0.0,0.0,0.0,0.0,0.0,0.0,0.0,0.0,0.0,0.0,0.0,0.0,0.0,0.0,0.0,0.0,0.0,0.0,0.0,0.0,0.0,0.0,0.0,0.0,0.0,0.0,0.0,0.0,0.0,0.0,0.0,0.0,0.0,0.0,0.0,0.0,0.0,0.0,0.0,0.0,0.0,0.0,0.0,0.0,0.0,0.0,0.0,0.0,0.0,0.0,0.0,0.0,0.0,0.0,0.0,0.0,0.0,0.0,0.0,0.0,0.0,0.0,0.0,0.0,0.0,0.0,0.0,0.0,0.0,0.0,0.0,0.0,0.0,0.0,0.0,0.0,0.0,0.0,0.0,0.0,0.0,0.0,0.0,0.0,0.0,0.0,0.0,0.0,0.0,0.0,0.0,0.0,0.0,0.0,0.0,0.0,0.0,0.0,0.0,0.0,0.0,0.0,0.0,0.0,0.0,0.0,0.0,0.0,0.0,0.0,0.0,0.0,0.0,0.0,0.0,0.0,0.0,0.0,0.0,0.0,0.0,0.0,0.0,0.0,0.0,0.0,0.0,0.0,0.0,0.0,0.0,0.0,0.0,0.0,0.0,0.0,0.0,0.0,0.0,0.0,0.0,0.0,0.0,0.0,0.0,0.0,0.0,0.0,0.0,0.0,0.0,0.0,0.0,0.0,0.0,0.0,0.0,0.0,0.0,0.0,0.0,0.0,0.0,0.0,0.0,0.0,0.0,0.0,0.0,0.0,0.0,0.0,0.0,0.0,0.0,0.0,0.0,0.0,0.0,0.0,0.0,0.0,0.0,0.0,0.0,0.0,0.0,0.0,0.0,0.0,0.0,0.0,0.0,0.0,0.0,0.0,0.0,0.0,0.0,0.0,0.0,0.0,0.0,0.0,0.0,0.0,0.0,0.0,0.0,0.0,0.0,0.0,0.0,0.0,0.0,0.0,0.0,0.0,0.0,0.0,0.0,0.0,0.0,0.0,0.0,0.0,0.0,0.0,4.5594,0.0,0.0,0.0,0.0,0.0,0.0,0.0,0.0,0.0,0.0,0.0,0.0,0.0,0.0,0.0,0.0,0.0,0.0,0.0,0.0,0.0,0.0,0.0,0.0,0.0,0.0,0.0,0.0,0.0,0.0,0.0,0.0,0.0,0.0,0.0,0.0,0.0,0.0,0.0,0.0,0.0,0.0,0.0,0.0,0.0,0.0,0.0,0.0,0.0,0.0,0.0,0.0,0.0,0.0,0.0,0.0,0.0,0.0,0.0,0.0,0.0,0.0,0.0,0.0,0.0,0.0,0.0,0.0,0.0,0.0,0.0,0.0,0.0,0.0,0.0,0.0,0.0,0.0,0.0,0.0,0.0,0.0,0.0,0.0,0.0,0.0,0.0,0.0,0.0,0.0,0.0,0.0,0.0,0.0,0.0,0.0,0.0,0.0,0.0,0.0,0.0,0.0,0.0,0.0,0.0,0.0,0.0,0.0,0.0,0.0,0.0,0.0,0.0,0.0,0.0,0.0,4.5594,0.0,0.0,0.0,0.0,0.0,0.0,0.0,0.0,0.0,0.0,0.0,0.0,0.0,0.0,0.0,0.0,0.0,0.0,0.0,0.0,0.0,0.0,0.0,0.0,0.0,0.0,0.0,0.0,0.0,0.0,0.0,0.0,0.0,0.0,0.0,0.0,0.0,0.0,0.0,0.0,0.0,0.0,0.0,0.0,0.0,0.0,0.0,0.0,0.0,0.0,0.0,0.0,0.0,0.0,0.0,0.0,0.0,0.0,0.0,0.0,0.0,0.0,0.0,0.0,0.0,0.0,0.0,0.0,0.0,0.0,0.0,0.0,0.0,0.0,0.0,0.0,0.0,0.0,0.0,0.0,0.0,0.0,0.0,0.0,0.0,0.0,0.0,0.0,0.0,0.0,0.0,0.0,0.0,0.0,0.0,0.0,0.0,0.0,0.0,0.0,0.0,0.0,0.0,0.0,0.0,0.0,0.0,0.0,0.0,4.5594,4.5594,4.5594,4.5594,4.5594,4.5594,4.5594,4.5594,0.0,0.0,0.0,0.0,0.0,0.0,0.0,0.0,0.0,0.0,0.0,0.0,0.0,0.0,0.0,0.0,0.0,0.0,0.0,0.0,0.0,0.0,0.0,0.0,0.0,0.0,0.0,0.0,0.0,0.0,0.0,0.0,0.0,0.0,0.0,0.0,0.0,0.0,0.0,4.5594,4.5594,4.5594,4.5594,4.5594,0.0,0.0,0.0,0.0,0.0,0.0,0.0,0.0,0.0,0.0,0.0,0.0,0.0,0.0,0.0,0.0,0.0,0.0,0.0,0.0,0.0,0.0,0.0,0.0,0.0,0.0,0.0,0.0,0.0,0.0,0.0,0.0,0.0,0.0,0.0,0.0,0.0,0.0,0.0,0.0,0.0,0.0,0.0,4.5475,4.5522,0.0,0.0,0.0,0.0,0.0,0.0,0.0,0.0,0.0,0.0,0.0,0.0,0.0,0.0,4.5594,4.5594,4.5594,4.5594,4.5594,4.5594,4.5594,4.5594,4.5594,4.5594,4.5594,0.0,4.5594,4.5594,0.0,0.0,0.0,0.0,0.0,0.0,0.0,0.0,0.0,0.0,0.0,0.0,0.0,0.0,0.0,0.0,0.0,0.0,0.0,0.0,0.0,0.0,0.0,0.0,0.0,0.0,0.0,0.0,0.0,0.0,0.0,0.0,0.0,0.0,0.0,0.0,4.5594,4.5594,4.5594,4.5594,4.5594,4.5594,4.5594,4.5594,4.5594,4.5594,0.0,0.0,0.0,0.0,0.0,0.0,0.0,0.0,0.0,0.0,0.0,0.0,0.0,0.0,0.0,0.0,0.0,0.0,0.0,0.0,0.0,0.0,0.0,0.0,0.0,0.0,0.0,0.0,0.0,0.0,0.0,0.0,0.0,0.0,0.0,0.0,0.0,0.0,0.0,4.54,4.5594,4.5594,4.5594,4.5594,0.0,0.0,0.0,0.0,0.0,0.0,0.0,0.0,0.0,4.5594,4.5594,4.5594,4.5594,4.5594,4.5594,4.5594,4.5594,4.5594,4.5594,4.5594,4.5594,4.5594,4.5594,4.5594,4.5594,4.5594,4.5594,4.5594,0.0,0.0,0.0,0.0,0.0,4.5371,0.0,0.0,0.0,0.0,0.0,0.0,0.0,0.0,0.0,0.0,0.0,0.0,0.0,0.0,0.0,4.5594,0.0,0.0,0.0,0.0,0.0,0.0,0.0,0.0,0.0,0.0,0.0,4.566,4.562,4.5594,4.5594,4.5594,4.5594,4.5594,4.5594,4.5594,4.5594,4.5594,4.541,0.0,0.0,0.0,0.0,0.0,0.0,0.0,0.0,0.0,0.0,0.0,0.0,0.0,0.0,0.0,0.0,0.0,0.0,0.0,0.0,0.0,0.0,0.0,0.0,0.0,0.0,0.0,0.0,0.0,0.0,0.0,0.0,0.0,0.0,0.0,0.0,0.0,0.0,4.5438,4.5594,4.5594,4.5594,4.5594,0.0,0.0,0.0,0.0,0.0,0.0,4.5594,4.5594,4.5594,4.5594,4.5594,4.5594,4.5594,4.5594,4.5594,4.5594,4.5594,4.5594,4.5594,4.5594,4.5594,4.5594,4.5594,4.5594,4.5594,4.5594,4.5594,4.5594,4.5594,4.5594,4.5594,4.5594,4.5594,4.5594,0.0,0.0,0.0,0.0,0.0,0.0,0.0,0.0,0.0,0.0,0.0,0.0,0.0,0.0,4.5594,4.5594,4.5594,4.5594,0.0,0.0,0.0,0.0,0.0,0.0,0.0,0.0,0.0,4.579,4.5657,4.5594,4.5594,4.5594,4.5594,4.5594,4.5594,4.5594,4.5594,4.5594,4.541,4.5096,0.0,0.0,0.0,0.0,0.0,0.0,0.0,0.0,0.0,0.0,0.0,0.0,0.0,0.0,0.0,0.0,0.0,0.0,0.0,0.0,0.0,0.0,0.0,0.0,0.0,0.0,0.0,0.0,0.0,0.0,0.0,0.0,0.0,0.0,0.0,0.0,0.0,0.0,0.0,4.5594,4.5594,0.0,0.0,0.0,0.0,4.5594,4.5594,4.5594,4.5594,4.5594,4.5594,4.5594,4.5594,4.5594,4.5594,4.5594,4.5594,4.5594,4.5594,4.5594,4.5594,4.5594,4.5594,4.5594,4.5594,4.5594,4.5594,4.5594,4.5594,4.5594,4.5594,4.5594,4.5594,4.5594,4.5594,4.5594,0.0,0.0,0.0,0.0,0.0,0.0,0.0,0.0,0.0,0.0,0.0,0.0,0.0,4.5594,4.5594,4.5594,4.5594,4.5594,4.5594,0.0,0.0,0.0,0.0,0.0,0.0,0.0,4.561,4.5673,4.561,4.5594,4.5594,4.5594,4.5594,4.5594,4.5594,4.5594,4.5594,4.5594,4.5522,4.5419,4.5419,4.5352,0.0,0.0,0.0,0.0,0.0,0.0,0.0,0.0,0.0,0.0,0.0,0.0,0.0,0.0,0.0,0.0,0.0,0.0,0.0,0.0,0.0,0.0,0.0,0.0,0.0,0.0,0.0,0.0,0.0,0.0,0.0,0.0,0.0,0.0,0.0,0.0,0.0,4.5594,4.5594,0.0,4.5594,4.5594,4.5594,4.5594,4.5594,4.5594,4.5594,4.5594,4.5594,4.5594,4.5594,4.5594,4.5594,4.6163,4.6432,4.6432,4.6951,4.7201,4.7201,4.7201,4.7201,4.7201,4.7201,4.7201,4.7201,4.7201,4.6567,4.5594,4.5594,4.5594,4.5594,4.5594,4.5594,4.5594,0.0,0.0,0.0,0.0,0.0,0.0,0.0,0.0,0.0,0.0,0.0,4.5594,4.5594,4.5594,4.5594,4.5594,4.5594,4.5594,4.5594,0.0,0.0,0.0,0.0,0.0,0.0,4.5632,4.5632,4.5694,4.5632,4.5594,4.5594,4.5594,4.5594,4.5594,4.5594,4.5594,4.5594,4.5594,4.5594,4.5594,4.5594,4.5594,4.5577,0.0,0.0,0.0,0.0,0.0,0.0,0.0,0.0,0.0,0.0,0.0,0.0,0.0,0.0,0.0,0.0,0.0,0.0,0.0,0.0,0.0,0.0,0.0,0.0,0.0,0.0,0.0,0.0,0.0,0.0,0.0,0.0,0.0,0.0,0.0,4.5594,4.5594,4.5594,4.5594,4.5594,4.5594,4.5594,4.5594,4.5594,4.5594,4.5594,4.5883,4.6028,4.6028,4.6297,4.6432,4.6432,4.7028,4.7288,4.7308,4.7855,4.8105,4.8105,4.8105,4.8105,4.8105,4.8105,4.8105,4.8105,4.8105,4.7451,4.6432,4.6432,4.6432,4.6432,4.6432,4.6432,4.6432,0.0,0.0,0.0,0.0,0.0,0.0,0.0,0.0,0.0,0.0,4.5594,4.5594,4.5594,4.5594,4.5594,4.5594,4.5603,4.5603,4.5594,4.5603,0.0,0.0,0.0,0.0,4.5885,4.5706,4.5699,4.589,4.5699,4.5594,4.5594,4.5594,4.5594,4.5594,4.5594,4.5594,4.5594,4.5594,4.5594,4.5594,4.5594,4.5594,4.5594,0.0,0.0,0.0,0.0,0.0,0.0,0.0,0.0,0.0,0.0,0.0,0.0,0.0,0.0,0.0,0.0,0.0,0.0,0.0,0.0,0.0,0.0,0.0,0.0,0.0,0.0,0.0,0.0,0.0,0.0,0.0,0.0,0.0,4.5594,4.5594,4.5594,4.5594,4.5594,4.5594,4.5594,4.5594,4.5614,4.5633,4.5633,4.5652,4.5691,4.649,4.6942,4.6942,4.7702,4.8105,4.8105,4.8125,4.8144,4.8144,4.8163,4.8202,4.8221,4.8221,4.824,4.8259,4.8259,4.8259,4.8259,4.8259,4.8259,4.8259,4.8144,4.8105,4.8105,4.8105,4.8105,4.8105,0.0,0.0,0.0,0.0,0.0,0.0,0.0,0.0,0.0,0.0,4.5594,4.5594,4.5594,4.5594,4.5594,4.5594,4.5677,4.57,4.5603,0.0,0.0,0.0,0.0,0.0,4.5669,4.5635,4.5635,4.5676,4.5635,4.5594,4.5594,4.5594,4.5594,4.5594,4.5594,4.5594,4.5594,4.5594,4.5594,4.5594,4.5594,4.5594,4.5577,0.0,0.0,0.0,0.0,0.0,0.0,0.0,0.0,0.0,0.0,0.0,0.0,0.0,0.0,0.0,0.0,0.0,0.0,0.0,0.0,0.0,0.0,0.0,0.0,0.0,0.0,0.0,0.0,0.0,0.0,0.0,0.0,4.5594,4.5594,4.5594,4.5594,4.5594,4.5594,4.5594,4.5594,4.5594,4.5864,4.6509,4.6547,4.6797,4.7375,4.7644,4.7778,4.7778,4.799,4.8105,4.8105,4.8721,4.9048,4.9048,4.9683,5.0298,5.0865,5.0865,5.1192,5.1798,5.1798,5.1798,5.1798,5.1798,5.1798,5.1548,4.9067,4.8105,4.8105,4.8105,4.8105,4.8105,0.0,0.0,0.0,0.0,0.0,0.0,0.0,0.0,0.0,0.0,4.5594,4.5594,4.5594,4.5594,4.561,4.568,4.5761,4.5775,4.5677,0.0,0.0,0.0,0.0,4.5637,4.5669,4.5618,4.5618,4.5669,4.5618,4.5594,4.5594,4.5594,4.5594,4.5594,4.5594,4.5594,4.5594,4.5594,4.5594,4.5594,4.5594,4.5594,4.5577,4.5371,4.5222,4.5074,4.4884,4.4618,4.4364,4.4364,0.0,0.0,0.0,0.0,0.0,0.0,0.0,0.0,0.0,0.0,0.0,0.0,0.0,0.0,0.0,0.0,0.0,0.0,0.0,0.0,0.0,0.0,0.0,0.0,4.5594,4.5594,4.5594,4.5594,4.5594,4.5594,4.5594,4.5748,4.6105,4.6144,4.649,4.7336,4.7413,4.7605,4.8086,4.8452,4.8644,4.8644,4.899,4.9356,4.9692,5.0202,5.0625,5.0991,5.151,5.1991,5.2442,5.2442,5.2712,0.0,5.3203,5.3203,5.3203,5.3203,5.3203,0.0,0.0,0.0,0.0,0.0,5.024,5.024,0.0,0.0,0.0,0.0,0.0,0.0,0.0,0.0,0.0,0.0,0.0,4.5594,4.5594,4.5612,4.5673,4.579,4.5815,4.5828,0.0,0.0,0.0,4.5594,4.5594,4.5668,4.5769,4.5657,4.5648,4.5789,4.5648,4.5594,4.5594,4.5594,4.5594,4.5594,4.5594,4.5594,4.5594,4.5594,4.5594,4.5594,4.5594,4.5594,4.5594,4.5594,4.5419,4.514,4.5107,4.4676,4.4117,4.4073,0.0,0.0,0.0,0.0,0.0,0.0,0.0,0.0,0.0,0.0,0.0,0.0,0.0,0.0,0.0,0.0,0.0,0.0,0.0,0.0,0.0,0.0,0.0,0.0,4.5594,4.5594,4.5594,4.5691,4.5748,4.5748,4.5748,4.6086,4.6951,4.7038,4.7375,4.8202,4.8259,4.8298,4.8394,0.0,0.0,0.0,0.0,5.1221,5.2038,5.2038,5.2423,5.3203,5.3203,5.326,5.3356,5.3356,5.3395,5.3491,5.3491,5.3491,5.3491,5.3491,5.3491,5.3472,5.328,5.3203,5.3203,5.3203,5.3203,0.0,0.0,0.0,0.0,0.0,0.0,0.0,0.0,0.0,0.0,4.5594,4.5594,4.5594,4.5594,4.5692,4.5763,4.5796,4.5957,4.6001,0.0,0.0,4.5594,4.5594,4.5594,4.5612,4.5635,4.5612,4.5612,4.5635,4.5612,4.5594,4.5594,4.5594,4.5594,4.5594,4.5594,4.5594,4.5594,4.5594,4.5594,4.5594,4.5594,4.5594,4.5594,4.5594,4.5568,4.5476,4.5201,4.5,4.4842,4.458,4.4237,4.3893,4.3893,0.0,0.0,0.0,0.0,0.0,0.0,0.0,0.0,0.0,0.0,0.0,0.0,0.0,0.0,0.0,0.0,0.0,0.0,0.0,0.0,4.5594,4.5594,4.5594,4.5594,4.6201,4.6644,4.6644,4.6644,4.6971,4.7798,4.7875,4.8221,4.9086,4.9144,4.9452,5.0164,5.0366,0.0,5.1404,5.1577,5.2077,5.2953,5.2953,5.3029,5.3203,0.0,0.0,5.4241,5.4241,5.4607,5.5222,5.5222,5.5222,5.5222,5.5222,5.5222,5.5088,5.3741,5.3203,5.3203,5.3203,5.3203,5.3203,0.0,0.0,0.0,0.0,0.0,0.0,0.0,0.0,0.0,0.0,4.5594,4.5594,4.5594,4.573,4.5803,4.5803,4.5924,0.0,0.0,4.5763,4.5673,4.5594,4.5594,4.5594,4.5594,4.5594,4.5594,4.5594,4.5594,4.5594,4.5594,4.5594,4.5594,4.5594,4.5594,4.5594,4.5594,4.5594,4.5594,4.5594,4.5594,4.5594,4.5594,4.5594,4.5495,4.5332,4.5169,4.4865,4.4516,4.4359,4.4046,4.3772,4.394,4.3896,4.3788,0.0,0.0,0.0,0.0,0.0,0.0,0.0,0.0,0.0,0.0,0.0,0.0,0.0,0.0,4.5342,0.0,0.0,4.5594,4.5594,4.5594,4.5748,4.6182,4.6624,4.6904,4.6904,4.7259,4.7836,4.8663,4.8759,4.9106,4.999,5.0414,5.0837,5.1279,5.1702,5.2145,5.2538,5.2538,5.2972,5.3837,5.3857,5.4049,5.4453,5.4453,5.4684,5.5107,5.5107,5.5318,5.5703,5.5703,5.5703,5.5703,5.5703,5.5703,5.5607,5.478,5.4453,5.4453,5.4453,5.4453,5.4453,0.0,0.0,0.0,0.0,0.0,0.0,0.0,0.0,0.0,0.0,4.5594,4.5594,4.5594,4.573,4.5816,0.0,0.0,0.0,0.0,4.5789,4.5715,4.5603,4.5594,4.5594,4.5594,4.5594,4.5594,4.5594,4.5594,4.5594,4.5594,4.5594,4.5594,4.5594,4.5594,4.5594,4.5594,4.5594,4.5594,4.5594,4.5594,4.5594,4.5594,4.5594,4.5429,4.5191,4.5118,4.4713,4.4204,4.4132,4.3899,4.3646,4.3909,4.3955,4.3974,4.4294,4.4378,0.0,0.0,0.0,0.0,0.0,0.0,0.0,0.0,0.0,4.5263,4.5531,4.5594,4.5594,4.5594,4.5594,4.5671,4.5825,4.5845,4.6144,4.7009,4.7278,4.7394,4.7394,4.7971,4.8682,4.9567,4.9644,5.001,5.0875,5.1529,5.1962,5.2135,5.2818,5.328,5.3453,5.3453,5.3857,5.4722,5.4722,5.5049,5.5703,5.5703,5.5703,5.5703,5.5703,5.5703,5.5703,5.5876,5.5953,5.5972,5.6145,5.6203,5.6203,5.6203,5.6203,5.6165,5.5818,5.5703,5.5703,0.0,0.0,0.0,0.0,0.0,0.0,0.0,0.0,0.0,0.0,0.0,0.0,0.0,0.0,0.0,0.0,0.0,0.0,4.5803,4.5696,4.562,4.5594,4.5594,4.5594,4.5594,4.5594,4.5594,4.5594,4.5594,4.5594,4.5594,4.5594,4.5594,4.5594,4.5594,4.5594,4.5594,4.5594,4.5594,4.5594,4.5594,4.5594,4.5594,4.5594,4.5577,4.5504,4.5211,4.5052,4.4931,4.4631,4.4261,4.3955,4.4001,4.3804,4.3546,4.3614,0.0,4.3631,4.3631,4.4095,4.4657,4.4919,4.5243,4.5495,0.0,0.0,4.554,4.5586,4.5594,4.5594,4.5594,4.5594,4.5845,4.6624,4.6759,4.7048,4.7855,4.8625,4.9125,4.9125,4.9202,4.9606,5.0481,5.0558,5.0894,5.1692,5.1846,5.2231,5.301,5.3145,5.3549,5.4337,5.4357,5.4741,5.5549,5.5568,5.5607,5.5703,5.5703,5.5703,5.5703,5.5703,5.5703,5.5742,5.6522,5.6849,5.6907,5.7684,5.8011,5.8011,5.8011,5.8011,5.7819,5.6261,5.5703,5.5703,0.0,0.0,0.0,0.0,0.0,0.0,0.0,0.0,0.0,0.0,0.0,0.0,0.0,0.0,0.0,0.0,0.0,0.0,4.5696,4.57,4.5688,4.5594,4.5594,4.5594,4.5594,4.5594,4.5594,4.5594,4.5594,4.5594,4.5594,4.5594,4.5594,4.5594,4.5594,4.5594,4.5594,4.5594,4.5594,4.5594,4.5594,4.5594,4.5577,4.5371,4.5312,4.5282,4.4931,4.467,0.0,0.0,4.3836,4.3742,4.394,4.3893,4.3836,4.408,4.414,0.0,4.414,4.4514,4.4884,4.4806,4.5211,4.5559,4.5352,4.5448,4.5594,4.5594,4.5594,4.5594,4.5594,4.5594,4.5893,0.0,4.6904,4.7355,4.8663,4.9163,4.9586,5.0087,5.0567,5.101,5.1356,5.1395,5.176,5.2577,5.3126,5.3568,5.3933,5.4395,5.4818,5.5184,5.5203,5.5357,5.5703,5.5703,5.5703,5.5703,5.5703,5.5703,5.5722,5.6233,5.6722,5.7223,5.7607,5.7761,5.778,5.8146,5.83,5.83,5.83,5.83,5.8204,5.7473,5.7203,5.7203,0.0,0.0,0.0,0.0,0.0,0.0,0.0,0.0,0.0,0.0,0.0,0.0,0.0,0.0,0.0,0.0,0.0,0.0,0.0,4.5685,4.57,4.5603,4.5594,4.5594,4.5594,4.5594,4.5594,4.5594,4.5594,4.5594,4.5594,4.5594,4.5594,4.5594,4.5594,4.5594,4.5586,4.5504,4.5457,4.5448,4.5362,4.5313,4.5312,4.5044,4.4954,4.4931,4.4701,4.4401,0.0,0.0,4.3744,4.3677,4.3924,4.394,4.3927,4.4209,4.4313,4.4308,4.4419,4.4695,4.4919,4.4788,4.5107,4.54,4.5169,4.5222,4.5352,4.5438,4.5457,4.5495,4.5577,4.5806,4.624,4.7086,4.7432,4.8105,4.9548,4.976,5.0067,5.0933,5.1548,5.2096,5.2558,5.2404,5.2615,5.3491,5.4145,5.4607,5.4818,5.5376,5.5703,5.5703,5.5703,5.5703,5.5703,5.5703,5.5703,5.5703,5.5934,5.6049,5.6088,5.6964,5.7703,5.8319,5.8531,5.8627,5.8646,5.8896,5.8992,5.8992,5.8992,5.8992,5.8962,5.883,5.8584,5.83,0.0,0.0,0.0,0.0,0.0,0.0,0.0,0.0,0.0,0.0,0.0,0.0,0.0,0.0,0.0,0.0,0.0,0.0,0.0,4.5603,4.5603,4.5594,4.5594,4.5594,4.5594,4.5594,4.5594,4.5594,4.5594,4.5594,4.5594,4.5594,4.5594,4.5594,4.5594,4.5594,4.5577,4.5243,4.5126,4.5085,4.4757,4.4618,4.4618,4.4606,4.4624,4.4606,4.4593,0.0,0.0,0.0,4.4323,4.3986,4.4001,4.3772,0.0,4.3531,4.3531,0.0,0.0,0.0,4.4682,4.5019,4.5096,4.5107,4.5096,4.4861,4.472,4.5052,4.5126,4.5211,4.555,4.6297,4.7124,4.7932,4.8779,4.9644,5.0539,5.0654,5.0952,5.1769,5.1885,5.2558,0.0,5.3664,5.353,5.4395,5.4491,5.4838,5.5607,5.5684,5.5703,5.5703,5.5703,5.5703,5.5703,5.5703,5.5703,5.5703,5.656,5.6964,5.6983,5.7857,5.828,5.8338,5.9127,5.9454,5.9531,6.0377,6.0723,6.0723,6.0723,6.0723,6.0669,6.0201,5.9287,5.83,0.0,0.0,0.0,0.0,0.0,0.0,0.0,0.0,0.0,0.0,0.0,0.0,0.0,0.0,0.0,0.0,0.0,0.0,0.0,4.5594,4.5594,4.5594,4.5594,4.5594,4.5594,4.5594,4.5594,4.5594,4.5594,4.5594,4.5594,4.5594,4.5594,4.5594,4.5594,4.5485,4.5253,4.5159,4.4966,4.4763,4.465,4.4593,4.4567,4.429,4.419,4.4161,0.0,0.0,0.0,0.0,0.0,0.0,4.3679,0.0,0.0,4.3515,0.0,0.0,0.0,0.0,4.4233,4.4327,4.4561,4.4776,4.4776,4.467,4.4618,4.4732,4.5199,4.559,4.5713,4.6591,4.7584,4.8436,4.9026,4.9702,5.0577,5.0712,5.0991,5.1788,5.2404,0.0,0.0,0.0,0.0,5.5222,5.5299,5.5415,5.5684,5.5703,5.5703,5.5703,5.5703,5.5703,5.5703,5.6272,5.656,5.6579,5.7453,5.8146,5.8665,5.8954,5.9415,5.9962,5.9914,5.9884,5.989,5.9896,5.987,5.987,5.987,5.987,5.9855,5.9693,5.9384,5.9019,0.0,0.0,0.0,0.0,0.0,0.0,0.0,0.0,0.0,0.0,0.0,0.0,0.0,0.0,0.0,0.0,0.0,0.0,0.0,0.0,4.5594,4.5594,4.5594,4.5594,4.5594,4.5594,4.5531,4.5419,4.5531,4.555,4.5419,4.5531,4.555,4.5419,4.5419,4.5232,4.4908,4.4769,4.4574,4.4378,4.4252,4.4213,4.4184,4.3912,4.3836,0.0,0.0,0.0,0.0,0.0,0.0,0.0,0.0,0.0,0.0,0.0,0.0,0.0,0.0,4.3852,4.4028,4.4175,4.429,4.4392,4.4392,4.4294,4.4237,4.4364,4.5036,4.5627,4.5771,4.6992,4.8107,4.853,4.9175,4.9789,5.0206,5.038,5.0905,5.2017,5.2775,5.3664,0.0,0.0,0.0,5.5665,5.5703,5.5703,5.5703,5.5703,5.5703,5.5703,5.5703,5.5838,5.6145,5.6714,5.7311,5.7896,5.8454,5.9165,5.9954,5.9797,6.0016,6.0508,6.0055,5.9855,5.9839,5.9509,5.9389,5.9389,5.9389,5.9389,5.9372,5.9194,5.9158,5.9158,0.0,0.0,0.0,0.0,0.0,0.0,0.0,0.0,0.0,0.0,0.0,0.0,0.0,0.0,0.0,0.0,0.0,0.0,0.0,0.0,0.0,4.5594,4.5594,4.5586,4.5577,4.5577,4.541,4.5074,4.5381,4.539,4.5085,4.541,4.539,4.5074,4.5074,4.4884,4.454,4.4161,4.4001,4.394,4.3629,4.3515,4.3515,4.3515,0.0,0.0,0.0,0.0,0.0,0.0,0.0,0.0,0.0,0.0,0.0,0.0,0.0,4.3563,4.3896,4.3971,4.4076,4.4447,4.4266,4.3971,4.3971,4.3726,4.3597,4.3912,4.4603,4.5289,0.0,0.0,4.8625,4.8291,4.9269,4.9936,4.9547,4.9878,5.0772,0.0,0.0,0.0,0.0,0.0,0.0,5.5703,0.0,5.5703,5.5703,5.5703,5.5703,5.5703,5.5742,5.6145,5.6983,5.7099,5.7953,5.9569,5.9527,5.9969,6.0746,6.0278,6.0055,6.004,5.9578,5.9354,5.9354,5.9337,5.9319,5.9319,5.9319,5.9319,5.9266,5.8835,5.8654,5.8735,0.0,0.0,0.0,0.0,0.0,0.0,0.0,0.0,0.0,0.0,0.0,0.0,0.0,0.0,0.0,0.0,0.0,0.0,0.0,0.0,0.0,0.0,0.0,0.0,0.0,0.0,0.0,0.0,4.4806,4.4806,4.4739,4.4806,4.4806,4.4739,4.4739,4.4508,4.4146,4.4043,4.3849,4.3612,0.0,4.3515,4.3515,0.0,0.0,0.0,0.0,0.0,0.0,0.0,0.0,0.0,0.0,4.3515,4.3515,0.0,0.0,4.3513,4.3595,4.3631,4.3646,4.3742,4.3712,4.3631,4.3631,4.3546,4.3513,4.3614,4.4276,4.5047,0.0,0.0,0.0,4.8648,4.9254,0.0,4.9504,5.0352,0.0,5.2475,0.0,5.4568,5.5588,5.5703,0.0,0.0,5.5703,5.5703,5.5703,5.5703,5.5703,5.5703,5.6329,5.6791,5.7003,5.8242,5.9396,6.0454,6.0111,6.0054,6.0264,5.9789,5.9578,5.9543,5.9084,5.8874,5.8855,5.8505,5.8372,5.8372,5.8372,5.8372,5.8351,5.8216,5.8168,5.819,0.0,0.0,0.0,0.0,0.0,0.0,0.0,0.0,0.0,0.0,0.0,0.0,0.0,0.0,0.0,0.0,0.0,0.0,0.0,0.0,0.0,0.0,0.0,0.0,0.0,0.0,0.0,0.0,0.0,0.0,4.4332,4.4514,4.4514,4.435,4.435,4.4136,4.3772,4.3772,0.0,0.0,0.0,0.0,0.0,0.0,0.0,0.0,0.0,0.0,0.0,0.0,0.0,4.3515,4.3515,4.3515,4.3515,4.3515,0.0,4.3515,4.3515,4.3515,4.3515,4.3515,4.3515,4.3515,4.3515,4.3515,4.3515,4.3515,4.414,4.4838,4.5296,4.6658,0.0,0.0,0.0,0.0,4.8996,5.0002,5.1087,0.0,5.3169,0.0,5.5097,5.5173,5.5173,0.0,5.5501,5.5703,5.5703,5.5703,5.5876,5.6272,5.6753,5.7349,5.8088,5.9216,6.0003,6.0495,6.0025,5.9789,5.9773,5.932,5.9103,5.9065,0.0,5.8397,5.8354,5.8097,5.7997,5.7997,5.7997,5.7997,5.7997,5.7997,5.7997,5.7997,0.0,0.0,0.0,0.0,0.0,0.0,0.0,0.0,0.0,0.0,0.0,0.0,0.0,0.0,0.0,0.0,0.0,0.0,0.0,0.0,0.0,0.0,0.0,0.0,0.0,0.0,0.0,0.0,0.0,0.0,0.0,0.0,0.0,0.0,0.0,0.0,0.0,0.0,0.0,0.0,0.0,0.0,0.0,0.0,0.0,0.0,0.0,0.0,0.0,0.0,4.3515,4.3515,4.3515,4.3515,4.3515,4.3515,4.3515,4.3515,4.3515,4.3515,4.3515,4.3515,4.3515,4.3515,4.3515,4.3515,4.3515,4.3515,4.4066,4.4617,4.4837,4.6275,4.7412,4.7279,0.0,4.871,4.8345,4.9454,5.0537,5.1298,5.2571,5.3676,5.4428,5.455,5.4566,5.4503,5.5199,5.561,5.561,5.5778,5.6319,5.7311,5.733,5.8058,5.9569,5.9928,6.0069,6.001,5.9526,5.932,5.9284,5.8815,5.8611,5.857,0.0,0.0,5.7997,5.7997,5.7997,5.7997,5.7997,5.7997,5.7997,5.7997,5.7997,5.7997,0.0,0.0,0.0,0.0,0.0,0.0,0.0,0.0,0.0,0.0,0.0,0.0,0.0,0.0,0.0,0.0,0.0,0.0,0.0,0.0,0.0,0.0,0.0,0.0,0.0,0.0,0.0,0.0,0.0,0.0,0.0,0.0,0.0,0.0,0.0,0.0,0.0,0.0,0.0,0.0,0.0,0.0,0.0,0.0,0.0,0.0,0.0,0.0,0.0,0.0,4.3515,4.3515,4.3515,4.3515,4.3515,4.3515,4.3515,4.3515,4.3515,4.3515,4.3515,4.3515,4.3515,4.3515,4.3515,4.3515,0.0,4.3515,4.3608,4.4103,4.5443,4.5974,4.6636,4.7884,4.8272,4.8383,4.8306,4.9954,5.1224,0.0,5.3111,5.4333,5.4484,5.479,0.0,0.0,0.0,5.5199,5.5199,5.6195,5.7484,5.9011,5.9069,5.9362,5.9993,6.007,5.9901,5.9528,5.9047,5.8815,5.8814,5.8329,5.8119,5.8119,0.0,0.0,5.7997,5.7997,5.7997,5.7997,5.7997,5.7997,5.7997,5.7997,5.7997,5.7997,0.0,0.0,0.0,0.0,0.0,0.0,0.0,0.0,0.0,0.0,0.0,0.0,0.0,0.0,0.0,0.0,0.0,0.0,0.0,0.0,0.0,0.0,0.0,0.0,0.0,0.0,0.0,0.0,0.0,0.0,0.0,0.0,0.0,0.0,0.0,0.0,0.0,0.0,0.0,0.0,0.0,0.0,0.0,0.0,0.0,0.0,0.0,0.0,0.0,0.0,4.3515,4.3515,4.3515,4.3515,4.3515,4.3515,4.3515,4.3515,4.3515,4.3515,4.3515,4.3515,4.3515,4.3515,4.3515,0.0,0.0,4.3515,4.3515,4.3846,4.5057,4.5626,0.0,4.748,4.8031,4.8306,4.8306,4.9896,5.1101,5.1101,5.2716,5.3814,0.0,0.0,0.0,0.0,0.0,5.4698,5.5386,5.6778,5.7944,5.8744,5.9216,5.9547,5.9741,5.9492,5.9267,5.9028,5.8549,5.8329,5.8329,5.8097,5.7997,5.7997,5.7997,0.0,5.7997,5.7997,5.7997,5.7997,5.7997,5.7997,5.7997,5.7997,5.7997,5.8052,0.0,0.0,0.0,0.0,0.0,0.0,0.0,0.0,0.0,0.0,0.0,0.0,0.0,0.0,0.0,0.0,0.0,0.0,0.0,0.0,0.0,0.0,0.0,0.0,0.0,0.0,0.0,0.0,0.0,0.0,0.0,0.0,0.0,0.0,0.0,0.0,0.0,0.0,0.0,0.0,0.0,0.0,0.0,0.0,0.0,0.0,0.0,0.0,0.0,0.0,4.3515,4.3515,4.3515,4.3515,4.3515,4.3515,4.3515,4.3515,4.3515,4.3515,4.3515,4.3515,4.3515,4.3515,4.3515,4.3515,0.0,4.3515,4.3626,4.3993,4.4819,4.5608,4.6416,0.0,4.7902,4.8306,4.8306,4.9738,5.0802,0.0,5.2234,0.0,5.3185,0.0,0.0,0.0,0.0,0.0,5.5887,5.7318,5.8185,5.8372,5.905,5.9337,5.9248,5.8894,5.8652,5.8547,5.8168,5.7997,5.7997,5.7997,5.7997,5.7997,5.7997,0.0,0.0,5.7997,5.7997,5.7997,5.7997,5.7997,5.8015,5.8198,5.8253,5.8364,0.0,0.0,0.0,0.0,0.0,0.0,0.0,0.0,0.0,0.0,0.0,0.0,0.0,0.0,0.0,0.0,0.0,0.0,0.0,0.0,0.0,0.0,0.0,0.0,0.0,0.0,0.0,0.0,0.0,0.0,0.0,0.0,0.0,0.0,0.0,0.0,0.0,0.0,0.0,0.0,0.0,0.0,0.0,0.0,0.0,0.0,0.0,0.0,0.0,0.0,0.0,4.3515,4.3515,4.3515,4.3515,4.3515,0.0,0.0,4.3515,4.3515,4.3515,4.3515,4.3515,4.3515,4.3515,0.0,4.3515,4.3515,4.4085,4.4837,4.5645,4.6452,4.7241,4.8067,0.0,4.8306,4.8306,4.9738,5.0802,5.0802,0.0,0.0,5.3185,0.0,0.0,0.0,0.0,0.0,0.0,5.7637,5.8467,5.9257,5.9351,5.9213,5.8775,5.8715,5.8484,5.807,5.802,5.7997,5.7997,5.7997,5.7997,5.7997,0.0,0.0,0.0,5.7997,5.7997,5.7997,5.7997,5.7997,5.8088,5.8822,5.9074,5.9184,0.0,0.0,0.0,0.0,0.0,0.0,0.0,0.0,0.0,0.0,0.0,0.0,0.0,0.0,0.0,0.0,0.0,0.0,0.0,0.0,0.0,0.0,0.0,0.0,0.0,0.0,0.0,0.0,0.0,0.0,0.0,0.0,0.0,0.0,0.0,0.0,0.0,0.0,0.0,0.0,0.0,0.0,0.0,0.0,0.0,0.0,0.0,0.0,0.0,0.0,0.0,0.0,4.3515,4.3515,0.0,0.0,4.3515,4.3515,4.3515,4.3515,4.3515,4.3515,4.3515,4.3515,4.3515,0.0,4.3515,4.3515,4.414,4.4947,4.5755,4.6562,4.7351,4.8177,0.0,0.0,4.8306,4.9738,5.0802,5.0802,5.2234,0.0,0.0,0.0,0.0,0.0,0.0,0.0,0.0,5.76,5.8194,5.8549,5.8568,5.8482,5.8282,5.8282,5.819,5.7997,5.7997,5.7997,5.7997,5.7997,5.7997,5.7997,0.0,0.0,0.0,5.7997,5.7997,5.7997,5.7997,5.8309,5.8767,5.9074,5.9496,6.0052,0.0,0.0,0.0,0.0,0.0,0.0,0.0,0.0,0.0,0.0,0.0,0.0,0.0,0.0,0.0,0.0,0.0,0.0,0.0,0.0,0.0,0.0,0.0,0.0,0.0,0.0,0.0,0.0,0.0,0.0,0.0,0.0,0.0,0.0,0.0,0.0,0.0,0.0,0.0,0.0,0.0,0.0,0.0,0.0,0.0,0.0,0.0,0.0,0.0,0.0,0.0,0.0,4.3515,0.0,0.0,0.0,4.3515,4.3515,4.3515,4.3515,4.3515,4.3515,4.3515,4.3515,0.0,0.0,4.357,4.3809,4.4488,4.5314,4.6104,4.6911,4.7626,0.0,0.0,4.8306,4.8306,4.9738,5.0802,0.0,0.0,0.0,0.0,0.0,0.0,0.0,0.0,0.0,0.0,5.7685,5.7997,5.7997,5.7997,5.7997,5.7997,5.7997,5.7997,5.7997,5.7997,5.7997,5.7997,5.7997,5.7997,5.7997,0.0,0.0,0.0,5.7997,5.7997,5.8015,5.8253,5.8712,5.9258,5.9716,6.0272,6.0878,0.0,0.0,0.0,0.0,0.0,0.0,0.0,0.0,0.0,0.0,0.0,0.0,0.0,0.0,0.0,0.0,0.0,0.0,0.0,0.0,0.0,0.0,0.0,0.0,0.0,0.0,0.0,0.0,0.0,0.0,0.0,0.0,0.0,0.0,0.0,0.0,0.0,0.0,0.0,0.0,0.0,0.0,0.0,0.0,0.0,0.0,0.0,0.0,0.0,0.0,0.0,0.0,0.0,0.0,0.0,0.0,4.3515,4.3515,4.3515,4.3515,4.3515,4.3515,4.3515,4.3515,0.0,4.3515,4.3718,4.4525,4.5333,4.614,4.6929,4.7736,4.8306,4.8306,4.8306,0.0,4.8306,4.9738,5.0802,0.0,0.0,0.0,0.0,0.0,0.0,0.0,0.0,0.0,0.0,5.7997,5.7997,5.7997,5.7997,5.7997,5.7997,5.7997,5.7997,5.7997,5.7997,5.7997,5.7997,5.7997,5.7997,0.0,0.0,0.0,0.0,5.7997,5.7997,5.807,5.8872,5.9184,5.9386,6.0988,6.1575,6.1686,0.0,0.0,0.0,0.0,0.0,0.0,0.0,0.0,0.0,0.0,0.0,0.0,0.0,0.0,0.0,0.0,0.0,0.0,0.0,0.0,0.0,0.0,0.0,0.0,0.0,0.0,0.0,0.0,0.0,0.0,0.0,0.0,0.0,0.0,0.0,0.0,0.0,0.0,0.0,0.0,0.0,0.0,0.0,0.0,0.0,0.0,0.0,0.0,0.0,0.0,0.0,0.0,0.0,0.0,0.0,0.0,0.0,0.0,4.3515,4.3515,4.3515,4.3515,4.3515,4.3515,4.3515,4.3515,4.3718,4.4544,4.5351,4.6159,4.6947,4.7755,4.8306,4.8306,4.8306,0.0,0.0,0.0,0.0,5.0802,0.0,0.0,0.0,0.0,0.0,0.0,0.0,0.0,0.0,5.7997,5.7997,5.7997,5.7997,5.7997,5.7997,5.7997,5.7997,5.7997,5.7997,5.7997,5.7997,5.7997,0.0,0.0,0.0,0.0,0.0,5.7997,5.7997,5.807,5.8896,5.9533,6.0162,6.1208,6.1942,6.2475,0.0,0.0,0.0,0.0,0.0,0.0,0.0,0.0,0.0,0.0,0.0,0.0,0.0,0.0,0.0,0.0,0.0,0.0,0.0,0.0,0.0,0.0,0.0,0.0,0.0,0.0,0.0,0.0,0.0,0.0,0.0,0.0,0.0,0.0,0.0,0.0,0.0,0.0,0.0,0.0,0.0,0.0,4.3515,0.0,0.0,0.0,0.0,0.0,0.0,0.0,0.0,0.0,0.0,0.0,0.0,0.0,0.0,0.0,0.0,4.3515,4.3515,4.3515,4.3515,0.0,4.3515,4.3718,4.4176,4.5002,4.5792,4.6599,4.7388,4.7957,4.8306,4.8306,4.8306,4.8306,0.0,0.0,0.0,5.1628,0.0,0.0,0.0,0.0,0.0,0.0,0.0,0.0,0.0,0.0,5.7997,5.7997,5.7997,5.7997,5.7997,5.7997,5.7997,5.7997,5.7997,5.7997,5.7997,5.7997,0.0,0.0,0.0,0.0,0.0,5.7997,5.818,5.8529,5.9355,6.0144,6.0951,6.1759,6.2383,6.278,0.0,0.0,0.0,0.0,0.0,0.0,0.0,0.0,0.0,0.0,0.0,0.0,0.0,0.0,0.0,0.0,0.0,0.0,0.0,0.0,0.0,0.0,0.0,0.0,0.0,0.0,0.0,0.0,4.181,4.181,0.0,0.0,0.0,0.0,0.0,0.0,0.0,0.0,0.0,0.0,0.0,0.0,0.0,0.0,0.0,0.0,0.0,0.0,0.0,0.0,0.0,0.0,0.0,0.0,0.0,0.0,0.0,0.0,0.0,0.0,0.0,0.0,0.0,0.0,4.357,4.4158,0.0,4.581,4.6581,4.7351,4.8159,4.8306,4.8306,4.8306,4.8306,4.8306,0.0,4.9738,0.0,0.0,0.0,0.0,0.0,0.0,0.0,0.0,0.0,0.0,0.0,0.0,5.7997,5.7997,5.7997,5.7997,5.7997,5.7997,5.7997,5.7997,5.7997,5.7997,5.7997,5.7997,0.0,0.0,0.0,0.0,0.0,5.7997,5.8474,5.9276,6.0107,6.0896,6.1686,6.2511,6.278,6.278,0.0,0.0,0.0,0.0,0.0,0.0,0.0,0.0,0.0,0.0,0.0,0.0,0.0,0.0,0.0,0.0,0.0,0.0,0.0,0.0,0.0,0.0,0.0,0.0,0.0,0.0,0.0,4.181,4.181,4.181,4.181,4.181,0.0,0.0,0.0,0.0,0.0,0.0,0.0,0.0,0.0,0.0,0.0,0.0,0.0,0.0,4.3515,4.3515,0.0,0.0,0.0,0.0,0.0,0.0,0.0,0.0,4.3515,0.0,0.0,0.0,0.0,0.0,0.0,0.0,0.0,0.0,0.0,0.0,0.0,0.0,4.8159,4.8306,4.8306,4.8306,4.8306,4.8306,4.8306,0.0,0.0,0.0,0.0,0.0,0.0,0.0,0.0,0.0,0.0,0.0,0.0,0.0,5.7997,5.7997,5.7997,5.7997,5.7997,5.7997,5.7997,5.7997,5.7997,5.7997,5.7997,5.7997,0.0,0.0,0.0,0.0,5.7997,5.7997,5.8474,5.9276,6.0107,6.0896,6.1686,6.2511,6.278,6.278,0.0,0.0,0.0,0.0,0.0,0.0,0.0,0.0,0.0,0.0,0.0,0.0,0.0,0.0,0.0,0.0,0.0,0.0,0.0,0.0,0.0,0.0,0.0,0.0,0.0,0.0,0.0,0.0,0.0,4.115,0.0,0.0,0.0,0.0,0.0,0.0,0.0,0.0,0.0,0.0,0.0,0.0,0.0,0.0,0.0,0.0,4.3515,4.3515,0.0,4.3515,4.3515,4.3515,0.0,0.0,0.0,0.0,4.3515,0.0,0.0,0.0,4.3515,4.3515,4.3773,4.4158,4.4617,0.0,0.0,0.0,0.0,0.0,0.0,4.8306,4.8306,4.8306,4.8306,0.0,0.0,0.0,0.0,0.0,0.0,0.0,0.0,0.0,0.0,0.0,0.0,0.0,0.0,0.0,5.7997,5.7997,5.7997,5.7997,5.7997,5.7997,5.7997,5.7997,5.7997,5.7997,5.7997,5.7997,0.0,0.0,0.0,0.0,5.7997,5.7997,5.8694,5.9771,6.0236,6.1117,6.2199,6.2658,6.278,6.278,0.0,0.0,0.0,0.0,0.0,0.0,0.0,0.0,0.0,0.0,0.0,0.0,0.0,0.0,0.0,0.0,0.0,0.0,0.0,0.0,0.0,0.0,0.0,0.0,0.0,0.0,0.0,0.0,0.0,0.0,0.0,0.0,0.0,0.0,0.0,0.0,0.0,0.0,0.0,0.0,0.0,0.0,0.0,0.0,0.0,0.0,0.0,0.0,0.0,4.3375,4.3375,4.3375,4.3375,0.0,0.0,0.0,0.0,0.0,0.0,4.3882,4.3828,4.3699,4.4287,4.4929,4.504,4.6122,4.7131,0.0,0.0,0.0,0.0,4.8306,0.0,0.0,0.0,0.0,0.0,0.0,0.0,0.0,0.0,0.0,0.0,0.0,0.0,0.0,0.0,0.0,0.0,0.0,0.0,5.7997,5.7997,5.7997,5.7997,5.7997,5.7997,5.7997,5.7997,5.7997,5.7997,5.7997,5.7997,0.0,0.0,0.0,5.7997,5.7997,5.8951,6.0401,6.0401,6.1392,6.278,6.278,6.278,6.278,0.0,0.0,0.0,0.0,0.0,0.0,0.0,0.0,0.0,0.0,0.0,0.0,0.0,0.0,0.0,0.0,0.0,0.0,0.0,0.0,0.0,0.0,0.0,0.0,0.0,0.0,0.0,0.0,0.0,0.0,4.088,4.0343,4.0343,0.0,0.0,0.0,0.0,0.0,0.0,0.0,0.0,0.0,0.0,0.0,0.0,0.0,0.0,0.0,0.0,4.2826,4.2826,4.2826,4.2826,0.0,0.0,0.0,0.0,0.0,4.5351,4.5535,4.5369,4.469,4.5131,4.5883,4.6581,4.6911,4.7278,0.0,0.0,0.0,0.0,4.8306,4.8306,0.0,0.0,0.0,0.0,0.0,0.0,0.0,0.0,0.0,0.0,0.0,0.0,0.0,0.0,0.0,0.0,0.0,0.0,5.7997,5.7997,5.7997,5.7997,5.7997,5.7997,5.7997,5.7997,5.7997,5.7997,5.7997,5.7997,0.0,0.0,5.7997,5.7997,5.7997,5.8951,6.0401,6.0401,6.1392,6.278,6.278,6.278,6.278,0.0,0.0,0.0,0.0,0.0,0.0,0.0,0.0,0.0,0.0,0.0,0.0,0.0,0.0,0.0,0.0,0.0,0.0,0.0,0.0,0.0,0.0,0.0,0.0,0.0,0.0,0.0,0.0,0.0,4.0473,4.0473,4.0229,4.0392,4.088,0.0,0.0,0.0,0.0,0.0,0.0,0.0,0.0,0.0,0.0,0.0,0.0,0.0,0.0,0.0,0.0,4.2982,4.3286,4.291,0.0,0.0,0.0,0.0,0.0,4.57,4.6214,4.6452,4.6085,4.6269,4.6636,4.7021,4.7443,4.7846,0.0,0.0,0.0,0.0,0.0,4.8306,4.8306,0.0,0.0,0.0,0.0,0.0,0.0,0.0,0.0,0.0,0.0,0.0,0.0,0.0,0.0,0.0,0.0,0.0,0.0,5.7997,5.7997,5.7997,5.7997,5.7997,5.7997,5.7997,5.7997,5.7997,5.7997,5.7997,5.7997,0.0,5.7997,5.7997,5.7997,5.8694,5.9771,6.0236,6.1117,6.2199,6.2658,6.278,6.278,0.0,0.0,0.0,0.0,0.0,0.0,0.0,0.0,0.0,0.0,0.0,0.0,0.0,0.0,0.0,0.0,0.0,0.0,0.0,0.0,0.0,0.0,0.0,0.0,0.0,0.0,0.0,4.0096,4.0096,4.0096,4.0096,4.0229,4.0424,0.0,0.0,0.0,0.0,0.0,0.0,0.0,0.0,0.0,0.0,0.0,0.0,0.0,0.0,0.0,0.0,0.0,0.0,0.0,0.0,0.0,0.0,0.0,4.5289,4.5448,4.6267,4.6911,4.7369,4.7369,4.7369,4.7369,4.7369,4.7846,4.8306,0.0,0.0,0.0,0.0,4.8306,0.0,0.0,0.0,0.0,0.0,0.0,0.0,0.0,0.0,0.0,0.0,0.0,0.0,0.0,0.0,0.0,0.0,0.0,0.0,0.0,5.7997,5.7997,5.7997,5.7997,5.7997,5.7997,5.7997,5.7997,5.7997,5.7997,5.7997,5.7997,5.7997,5.7997,5.7997,5.7997,5.8474,5.9276,6.0107,6.1006,6.1961,6.2585,6.278,6.278,0.0,0.0,0.0,0.0,0.0,0.0,0.0,0.0,0.0,0.0,0.0,0.0,0.0,0.0,0.0,0.0,0.0,0.0,0.0,0.0,0.0,0.0,0.0,0.0,0.0,4.0625,4.0631,4.0096,4.0096,4.0096,4.0096,4.0625,4.0601,0.0,0.0,0.0,0.0,0.0,0.0,0.0,0.0,0.0,0.0,0.0,0.0,0.0,0.0,0.0,0.0,0.0,0.0,0.0,0.0,0.0,0.0,0.0,4.6119,4.6406,4.7748,4.8177,4.8214,4.8214,4.8214,4.8214,4.8214,4.8269,0.0,4.8306,0.0,0.0,0.0,4.8306,0.0,0.0,0.0,0.0,0.0,0.0,0.0,0.0,0.0,0.0,0.0,0.0,0.0,0.0,0.0,0.0,0.0,0.0,0.0,0.0,0.0,5.7997,5.7997,5.7997,5.7997,5.7997,5.7997,5.7997,5.7997,5.7997,5.7997,5.7997,5.7997,5.7997,5.7997,5.7997,5.8474,5.9276,6.0107,6.1355,6.2707,6.2762,6.278,6.278,0.0,0.0,0.0,0.0,0.0,0.0,0.0,0.0,0.0,0.0,0.0,0.0,0.0,0.0,0.0,0.0,0.0,0.0,0.0,0.0,0.0,0.0,0.0,4.0473,4.0601,4.0473,4.0311,4.0096,4.0096,4.0096,4.0121,4.0655,0.0,0.0,0.0,0.0,0.0,0.0,0.0,0.0,0.0,4.2426,0.0,0.0,0.0,0.0,0.0,0.0,0.0,0.0,4.3903,0.0,0.0,0.0,0.0,0.0,4.6613,4.715,4.8041,4.8306,4.8306,4.8306,4.8306,0.0,0.0,4.8306,4.8306,4.8306,4.8306,0.0,0.0,0.0,0.0,0.0,0.0,0.0,0.0,0.0,0.0,0.0,0.0,0.0,0.0,0.0,0.0,0.0,0.0,0.0,0.0,0.0,0.0,0.0,0.0,5.7997,5.7997,5.7997,5.7997,5.7997,5.7997,5.7997,5.7997,5.7997,5.7997,5.7997,5.7997,5.7997,5.7997,5.7997,5.818,5.8584,5.9887,6.1392,6.278,6.278,6.278,6.278,0.0,0.0,0.0,0.0,0.0,0.0,0.0,0.0,0.0,0.0,0.0,0.0,0.0,0.0,0.0,0.0,0.0,0.0,0.0,0.0,0.0,0.0,0.0,4.0504,4.088,4.0528,4.0343,4.0343,4.0179,4.0096,4.0121,0.0,0.0,0.0,0.0,0.0,0.0,0.0,0.0,0.0,4.181,4.181,0.0,0.0,0.0,0.0,0.0,0.0,0.0,0.0,4.4352,0.0,0.0,0.0,0.0,0.0,4.6869,4.753,4.8152,4.8306,4.8306,4.8306,0.0,0.0,4.8306,4.8306,4.8306,4.8306,4.8306,4.8306,4.8306,0.0,0.0,0.0,0.0,0.0,0.0,0.0,0.0,0.0,0.0,0.0,0.0,0.0,0.0,0.0,0.0,0.0,0.0,0.0,0.0,0.0,0.0,5.7997,5.7997,5.7997,5.7997,5.7997,5.7997,5.7997,5.7997,5.7997,5.7997,5.7997,5.7997,5.7997,5.7997,5.7997,5.829,5.8877,5.9979,6.1392,6.278,6.278,6.278,6.278,0.0,0.0,0.0,0.0,0.0,0.0,0.0,0.0,0.0,0.0,0.0,0.0,0.0,0.0,0.0,0.0,0.0,0.0,0.0,0.0,0.0,0.0,0.0,4.0903,4.0903,4.0903,4.0903,4.088,4.0368,4.0113,4.0121,0.0,0.0,0.0,0.0,0.0,0.0,0.0,0.0,0.0,4.1789,4.1789,4.1835,0.0,0.0,0.0,0.0,0.0,0.0,0.0,4.4896,4.5511,0.0,0.0,0.0,4.6407,4.6869,4.7551,4.8152,4.8306,4.8306,4.8306,0.0,0.0,4.8306,4.8306,4.8306,4.8306,4.8306,4.8306,4.8306,0.0,0.0,0.0,0.0,0.0,0.0,0.0,0.0,0.0,0.0,0.0,0.0,0.0,0.0,0.0,0.0,0.0,0.0,0.0,0.0,0.0,0.0,0.0,5.7997,5.7997,5.7997,5.7997,5.7997,5.7997,5.7997,5.7997,5.7997,5.7997,5.7997,5.7997,5.7997,5.7997,5.8951,6.0401,6.0401,6.1392,6.278,6.278,6.278,6.278,0.0,0.0,0.0,0.0,0.0,0.0,0.0,0.0,0.0,0.0,0.0,0.0,0.0,0.0,0.0,0.0,0.0,0.0,0.0,0.0,0.0,0.0,0.0,0.0,0.0,0.0,4.0726,4.0336,4.0552,4.0473,0.0,0.0,0.0,4.0903,0.0,0.0,0.0,0.0,0.0,4.123,4.1829,4.2096,4.2189,0.0,0.0,0.0,0.0,0.0,0.0,0.0,0.0,0.0,0.0,0.0,0.0,4.6977,4.7533,4.8075,4.8267,4.8306,0.0,4.8306,0.0,0.0,0.0,4.8306,0.0,0.0,4.8306,4.8306,4.8306,0.0,0.0,0.0,0.0,0.0,0.0,0.0,0.0,0.0,0.0,0.0,0.0,0.0,0.0,0.0,0.0,0.0,0.0,0.0,0.0,0.0,0.0,0.0,5.7997,5.7997,5.7997,5.7997,5.7997,5.7997,5.7997,5.7997,5.7997,5.7997,5.7997,5.7997,5.7997,5.7997,5.8951,6.0401,6.0401,6.1392,6.278,6.278,6.278,6.278,0.0,0.0,0.0,0.0,0.0,0.0,0.0,0.0,0.0,0.0,0.0,0.0,0.0,0.0,0.0,0.0,0.0,0.0,0.0,0.0,0.0,0.0,0.0,0.0,0.0,4.0903,4.0733,0.0,0.0,0.0,0.0,0.0,0.0,4.1246,0.0,0.0,0.0,0.0,0.0,4.1457,4.2029,4.2413,4.2725,0.0,0.0,0.0,0.0,0.0,0.0,0.0,0.0,0.0,4.5205,0.0,4.6478,4.6869,4.7449,4.7977,4.823,4.8306,0.0,4.8306,4.8306,4.8306,4.8306,0.0,0.0,0.0,0.0,4.8306,4.8306,0.0,0.0,0.0,0.0,0.0,0.0,0.0,0.0,0.0,0.0,0.0,0.0,0.0,0.0,0.0,0.0,0.0,0.0,0.0,0.0,0.0,0.0,0.0,5.7997,5.7997,5.7997,5.7997,5.7997,5.7997,5.7997,5.7997,5.7997,5.7997,5.7997,5.7997,5.7997,5.7997,5.8951,6.0401,6.0401,6.1392,6.278,6.278,6.278,6.278,0.0,0.0,0.0,0.0,0.0,0.0,0.0,0.0,0.0,0.0,0.0,0.0,0.0,0.0,0.0,0.0,0.0,0.0,0.0,0.0,0.0,0.0,0.0,0.0,0.0,0.0,0.0,0.0,0.0,0.0,0.0,0.0,4.1729,4.1639,0.0,4.1024,0.0,4.1289,4.1739,4.2306,4.2432,4.2877,4.3432,4.3611,0.0,0.0,0.0,0.0,0.0,0.0,0.0,0.0,4.4852,4.5485,4.6413,4.6478,4.6932,4.753,4.8152,4.8306,4.8306,4.8306,4.8306,0.0,4.8306,4.8306,4.8306,4.8306,0.0,4.8306,0.0,0.0,0.0,0.0,0.0,0.0,0.0,0.0,0.0,0.0,0.0,0.0,0.0,0.0,0.0,0.0,0.0,0.0,0.0,0.0,0.0,0.0,0.0,0.0,5.7997,5.7997,5.7997,0.0,5.7997,5.7997,5.7997,5.7997,5.7997,5.7997,5.7997,5.7997,5.7997,5.7997,5.8914,6.0309,6.0382,6.1355,6.2688,6.2762,6.278,6.278,0.0,0.0,0.0,0.0,0.0,0.0,0.0,0.0,0.0,0.0,0.0,0.0,0.0,0.0,0.0,0.0,0.0,0.0,0.0,0.0,0.0,0.0,0.0,0.0,0.0,0.0,0.0,0.0,0.0,0.0,0.0,0.0,0.0,4.0524,0.0,4.1921,0.0,4.259,4.2926,4.3117,4.3713,4.4033,4.427,4.5348,4.5546,0.0,0.0,0.0,0.0,0.0,0.0,0.0,4.5511,4.5808,4.6501,4.7021,4.7299,4.753,4.8152,4.8306,0.0,0.0,4.8306,4.8306,4.8306,4.8306,4.8306,4.8306,4.8306,0.0,0.0,0.0,0.0,0.0,0.0,0.0,0.0,0.0,0.0,0.0,0.0,0.0,0.0,0.0,0.0,0.0,0.0,0.0,0.0,0.0,0.0,0.0,0.0,5.7997,5.7997,5.7997,5.7997,0.0,5.7997,5.7997,5.7997,5.7997,5.7997,5.7997,5.7997,5.7997,5.7997,5.7997,5.8584,5.9515,6.0162,6.1006,6.1924,6.2585,6.278,6.278,0.0,0.0,0.0,0.0,0.0,0.0,0.0,0.0,0.0,0.0,0.0,0.0,0.0,0.0,0.0,0.0,0.0,0.0,0.0,0.0,0.0,0.0,0.0,0.0,0.0,0.0,0.0,0.0,0.0,0.0,0.0,0.0,0.0,4.2022,0.0,4.2442,4.2753,4.3159,4.3704,4.4283,4.4744,4.5271,4.5882,4.6248,4.6192,4.5965,4.6288,0.0,0.0,0.0,0.0,0.0,0.0,0.0,4.6524,4.7194,4.7406,4.753,0.0,0.0,0.0,4.8306,0.0,4.8306,4.8306,4.8306,4.8306,4.8306,0.0,0.0,0.0,0.0,0.0,0.0,0.0,0.0,0.0,0.0,0.0,0.0,0.0,0.0,0.0,0.0,0.0,0.0,0.0,0.0,0.0,0.0,0.0,0.0,5.7574,5.7997,5.7997,5.7997,5.7997,5.7997,5.7997,5.7997,5.7997,5.7997,5.7997,5.7997,5.7997,5.7997,5.7997,5.7997,5.8474,5.9276,6.0107,6.0896,6.1686,6.2511,6.278,6.278,0.0,0.0,0.0,0.0,0.0,0.0,0.0,0.0,0.0,0.0,0.0,0.0,0.0,0.0,0.0,0.0,0.0,0.0,0.0,0.0,0.0,0.0,0.0,0.0,0.0,0.0,0.0,0.0,0.0,0.0,0.0,0.0,0.0,4.3925,0.0,0.0,4.3663,4.3829,4.4541,4.5487,4.5496,4.6136,4.7017,4.6336,4.6088,4.6136,4.6336,4.6336,4.6288,4.6501,0.0,0.0,0.0,0.0,4.6524,4.7066,4.732,0.0,0.0,0.0,4.8306,4.8306,4.8306,0.0,4.8306,4.8306,4.8306,4.8306,0.0,0.0,0.0,0.0,0.0,0.0,0.0,0.0,0.0,0.0,0.0,0.0,0.0,0.0,0.0,0.0,0.0,0.0,0.0,0.0,0.0,0.0,5.5904,5.6565,5.7501,5.7997,5.7997,5.7997,5.7997,5.7997,5.7997,5.7997,5.7997,5.7997,5.7997,5.7997,5.7997,5.7997,5.7997,5.7997,5.84,5.9074,6.0034,6.0805,6.1502,6.2456,6.278,6.278,0.0,0.0,0.0,0.0,0.0,0.0,0.0,0.0,0.0,0.0,0.0,0.0,0.0,0.0,0.0,0.0,0.0,0.0,0.0,0.0,0.0,0.0,0.0,0.0,0.0,0.0,0.0,0.0,0.0,0.0,0.0,0.0,0.0,4.343,0.0,0.0,0.0,4.5722,4.6105,4.62,4.568,4.5597,4.5699,4.5062,4.4841,4.4971,4.6021,4.6046,4.5783,4.6887,4.6887,0.0,0.0,0.0,0.0,0.0,0.0,0.0,0.0,0.0,4.8306,0.0,4.8306,4.8306,0.0,0.0,4.8306,0.0,0.0,0.0,0.0,0.0,0.0,0.0,0.0,0.0,0.0,0.0,0.0,0.0,0.0,0.0,0.0,0.0,0.0,0.0,0.0,0.0,0.0,5.4785,5.5669,5.5757,5.7207,5.7997,5.7997,5.7997,5.7997,5.7997,5.7997,5.7997,5.7997,5.7997,5.7997,5.7997,5.7997,5.7997,5.7997,5.7997,5.8052,5.8309,5.9813,6.0474,6.075,6.2254,6.278,6.278,0.0,0.0,0.0,0.0,0.0,0.0,0.0,0.0,0.0,0.0,0.0,0.0,0.0,0.0,0.0,0.0,0.0,0.0,0.0,0.0,0.0,0.0,0.0,0.0,0.0,0.0,0.0,0.0,0.0,0.0,0.0,4.444,4.4173,0.0,0.0,0.0,0.0,0.0,4.6088,4.6407,4.6501,4.6566,4.6566,4.6659,4.6682,4.6705,4.6887,4.6796,4.6589,4.6774,4.6407,4.5965,4.6425,0.0,0.0,0.0,0.0,0.0,4.823,4.8306,4.8306,0.0,4.8306,4.8306,4.8306,0.0,0.0,0.0,0.0,0.0,0.0,0.0,0.0,0.0,0.0,0.0,0.0,0.0,0.0,0.0,0.0,0.0,0.0,0.0,0.0,0.0,0.0,0.0,5.3185,5.4308,5.5115,5.5574,5.6712,5.7538,5.7997,5.7997,5.7997,5.7997,5.7997,5.7997,5.7997,5.7997,5.7997,5.7997,5.7997,5.7997,5.7997,5.7997,5.7997,5.8162,5.9777,6.0401,6.0603,6.2218,6.278,6.278,0.0,0.0,0.0,0.0,0.0,0.0,0.0,0.0,0.0,0.0,0.0,0.0,0.0,0.0,0.0,0.0,0.0,0.0,0.0,0.0,0.0,0.0,0.0,0.0,0.0,0.0,0.0,0.0,0.0,0.0,4.6143,4.5425,4.5294,0.0,4.5571,0.0,0.0,0.0,0.0,0.0,0.0,4.7237,0.0,0.0,4.7818,4.7797,4.7491,4.7299,4.7128,4.6937,4.6359,4.5915,4.7062,0.0,0.0,0.0,0.0,0.0,0.0,0.0,4.8306,4.8306,4.8306,4.8306,0.0,0.0,0.0,0.0,0.0,0.0,0.0,0.0,0.0,0.0,0.0,0.0,0.0,0.0,0.0,0.0,0.0,0.0,0.0,0.0,0.0,0.0,0.0,0.0,5.3185,5.3959,5.4766,5.5578,5.6381,5.7189,5.7997,5.7997,5.7997,5.7997,5.7997,5.7997,5.7997,5.7997,5.7997,5.7997,5.7997,5.7997,5.7997,5.7997,5.7997,5.8162,5.9777,6.0401,6.0579,6.1981,6.2636,6.273,0.0,0.0,0.0,0.0,0.0,0.0,0.0,0.0,0.0,0.0,0.0,0.0,0.0,0.0,0.0,0.0,0.0,0.0,0.0,0.0,0.0,0.0,0.0,0.0,0.0,0.0,0.0,0.0,0.0,0.0,4.5545,4.6063,4.6336,4.6336,4.5757,4.5833,4.6407,0.0,0.0,0.0,0.0,0.0,0.0,0.0,0.0,0.0,0.0,0.0,4.6641,4.7818,4.7388,0.0,0.0,0.0,0.0,0.0,0.0,0.0,0.0,4.8306,0.0,4.8306,4.8306,0.0,0.0,0.0,0.0,0.0,0.0,0.0,0.0,0.0,0.0,0.0,0.0,0.0,0.0,0.0,0.0,0.0,0.0,0.0,0.0,0.0,0.0,0.0,0.0,0.0,5.3185,5.3959,5.4766,5.5578,5.6381,5.7189,5.7997,5.7997,5.7997,5.7997,5.7997,5.7997,5.7997,5.7997,5.7997,5.7997,5.7997,5.7997,5.7997,5.7997,5.7997,5.8162,5.9777,6.0401,6.0512,6.1343,6.2148,6.2567,0.0,0.0,0.0,0.0,0.0,0.0,0.0,0.0,0.0,0.0,0.0,0.0,0.0,0.0,0.0,0.0,0.0,0.0,0.0,0.0,0.0,0.0,0.0,0.0,0.0,0.0,0.0,0.0,0.0,4.5681,4.607,4.589,4.6039,4.6407,4.6167,4.6192,4.643,4.6864,0.0,0.0,0.0,0.0,0.0,0.0,0.0,0.0,0.0,0.0,0.0,0.0,0.0,0.0,0.0,0.0,0.0,0.0,0.0,0.0,0.0,0.0,0.0,4.8306,4.8306,4.8306,4.8306,0.0,0.0,0.0,0.0,0.0,0.0,0.0,0.0,0.0,0.0,0.0,0.0,0.0,0.0,0.0,0.0,0.0,0.0,0.0,0.0,0.0,0.0,0.0,5.3185,5.3482,5.4014,5.4803,5.5611,5.6657,5.7997,5.7997,5.7997,5.7997,5.7997,5.7997,5.7997,5.7997,5.7997,5.7997,5.7997,5.7997,5.7997,5.7997,5.7997,5.8162,5.9777,6.0078,5.9774,6.1109,6.1464,6.1189,0.0,0.0,0.0,0.0,0.0,0.0,0.0,0.0,0.0,0.0,0.0,0.0,0.0,0.0,0.0,0.0,0.0,0.0,0.0,0.0,0.0,0.0,0.0,0.0,0.0,0.0,0.0,0.0,0.0,0.0,0.0,4.5989,4.6014,4.6407,4.6407,4.6524,0.0,0.0,0.0,4.6801,0.0,0.0,4.7488,0.0,0.0,0.0,0.0,0.0,0.0,0.0,0.0,0.0,0.0,0.0,0.0,0.0,0.0,0.0,4.7677,0.0,0.0,0.0,0.0,4.8306,4.8306,0.0,0.0,0.0,0.0,0.0,0.0,0.0,0.0,0.0,0.0,0.0,0.0,0.0,0.0,0.0,0.0,0.0,0.0,0.0,0.0,0.0,0.0,0.0,5.3185,5.3185,5.3702,5.4766,5.5574,5.6638,5.7997,5.7997,5.7997,5.7997,5.7997,5.7997,5.7997,5.7997,5.7997,5.7997,5.775,5.7774,5.7997,5.7997,5.7997,5.8162,5.9777,5.991,5.9367,6.0711,6.0849,6.0322,0.0,0.0,0.0,0.0,0.0,0.0,0.0,0.0,0.0,0.0,0.0,0.0,0.0,0.0,0.0,0.0,0.0,0.0,0.0,0.0,0.0,0.0,0.0,0.0,0.0,0.0,0.0,0.0,0.0,0.0,0.0,0.0,4.6383,4.6383,4.6359,4.671,4.7342,0.0,4.6796,4.7363,0.0,4.7406,4.7488,0.0,0.0,0.0,4.8306,4.8287,0.0,4.8267,0.0,0.0,0.0,0.0,0.0,0.0,0.0,0.0,0.0,0.0,0.0,0.0,0.0,0.0,0.0,0.0,0.0,0.0,0.0,0.0,0.0,0.0,0.0,0.0,0.0,0.0,0.0,0.0,0.0,0.0,0.0,0.0,0.0,0.0,0.0,0.0,0.0,5.3185,5.3185,5.3185,5.394,5.55,5.6345,5.7152,5.796,5.7997,5.7997,5.7997,5.7997,5.7997,5.7973,5.7973,5.7932,5.7886,5.7184,5.7259,5.7932,5.7932,5.7932,5.8097,5.9711,5.9841,5.9213,6.0072,6.0353,6.0104,0.0,0.0,0.0,0.0,0.0,0.0,0.0,0.0,0.0,0.0,0.0,0.0,0.0,0.0,0.0,0.0,0.0,0.0,0.0,0.0,0.0,0.0,0.0,0.0,0.0,0.0,0.0,0.0,0.0,0.0,0.0,0.0,0.0,0.0,4.5294,4.5699,4.6664,4.6478,0.0,0.0,4.7194,4.7406,0.0,0.0,0.0,0.0,0.0,4.8035,4.7635,0.0,4.7324,4.6892,0.0,0.0,0.0,0.0,0.0,0.0,4.711,0.0,0.0,0.0,0.0,0.0,0.0,0.0,0.0,0.0,0.0,0.0,0.0,0.0,0.0,0.0,0.0,0.0,0.0,0.0,0.0,0.0,0.0,0.0,0.0,0.0,0.0,0.0,5.3185,5.3185,5.3185,5.3185,5.3683,5.4693,5.55,5.6308,5.7134,5.7703,5.7997,5.7997,5.7997,5.7726,5.7209,5.7209,5.6876,5.6331,5.6114,5.6141,5.6331,5.6331,5.6331,5.6492,5.8103,5.8207,5.7631,5.8965,5.9112,5.8528,0.0,0.0,0.0,0.0,0.0,0.0,0.0,0.0,0.0,0.0,0.0,0.0,0.0,0.0,0.0,0.0,0.0,0.0,0.0,0.0,0.0,0.0,0.0,0.0,0.0,0.0,0.0,0.0,0.0,0.0,0.0,0.0,0.0,0.0,0.0,0.0,0.0,0.0,0.0,0.0,4.7128,0.0,0.0,4.8075,4.8306,0.0,0.0,0.0,4.7428,4.7677,4.7154,0.0,0.0,0.0,0.0,0.0,0.0,0.0,0.0,0.0,0.0,0.0,0.0,0.0,4.7406,4.7406,4.747,0.0,0.0,0.0,0.0,0.0,0.0,0.0,0.0,0.0,0.0,0.0,0.0,0.0,0.0,0.0,0.0,0.0,0.0,0.0,5.3185,5.3185,5.3185,5.2915,5.324,5.4363,5.517,5.5978,5.6804,5.7301,5.754,5.754,5.7198,5.6807,5.6394,5.6394,5.6132,5.5678,5.5379,5.5232,5.5203,5.4909,5.5131,5.5865,5.7476,5.7583,5.6967,5.8523,5.8599,5.7881,0.0,0.0,0.0,0.0,0.0,0.0,0.0,0.0,0.0,0.0,0.0,0.0,0.0,0.0,0.0,0.0,0.0,0.0,0.0,0.0,0.0,0.0,0.0,0.0,0.0,0.0,0.0,0.0,0.0,0.0,0.0,0.0,0.0,0.0,0.0,0.0,0.0,0.0,0.0,4.6359,4.6955,4.7194,0.0,0.0,4.8191,0.0,4.8191,4.7897,4.7572,4.7957,4.7345,0.0,0.0,0.0,0.0,0.0,4.5933,0.0,0.0,0.0,0.0,0.0,0.0,0.0,4.7084,4.7194,4.7342,0.0,0.0,0.0,0.0,0.0,0.0,0.0,0.0,0.0,0.0,0.0,0.0,0.0,0.0,0.0,0.0,5.1793,5.2176,5.288,5.2962,5.2977,5.2977,5.2335,5.2661,5.4107,5.4935,5.5764,5.6657,5.6733,5.6822,5.6887,5.6059,5.5649,5.5581,5.5581,5.5535,5.5408,5.4757,5.4482,5.4437,5.3783,5.4281,5.5624,5.721,5.7367,5.6854,5.8407,5.8494,5.7881,0.0,0.0,0.0,0.0,0.0,0.0,0.0,0.0,0.0,0.0,0.0,0.0,0.0,0.0,0.0,0.0,0.0,0.0,0.0,0.0,0.0,0.0,0.0,0.0,0.0,0.0,0.0,0.0,0.0,0.0,0.0,0.0,0.0,0.0,0.0,0.0,0.0,0.0,0.0,4.5699,4.5808,0.0,4.6007,4.715,4.7572,4.7572,4.7572,4.7818,4.7977,0.0,4.6618,4.624,0.0,0.0,0.0,0.0,0.0,0.0,0.0,0.0,0.0,0.0,0.0,0.0,4.5957,4.5883,4.5908,0.0,0.0,0.0,0.0,0.0,0.0,0.0,0.0,0.0,0.0,0.0,0.0,0.0,0.0,0.0,0.0,5.0637,5.113,5.1325,5.1449,5.1512,5.1512,5.1368,5.1665,5.2529,5.3336,5.4405,5.5812,5.5898,5.6263,5.6887,5.6059,5.5379,5.4818,5.4818,5.4482,5.3913,5.3783,5.3717,5.3684,5.3568,5.3668,5.4067,5.5569,5.6065,5.6079,5.7593,5.8046,5.7881,0.0,0.0,0.0,0.0,0.0,0.0,0.0,0.0,0.0,0.0,0.0,0.0,0.0,0.0,0.0,0.0,0.0,0.0,0.0,0.0,0.0,0.0,0.0,0.0,0.0,0.0,0.0,0.0,0.0,0.0,0.0,0.0,0.0,0.0,0.0,0.0,0.0,0.0,4.4759,4.5062,4.5399,0.0,4.6519,4.715,4.7593,4.7856,4.7856,4.8055,4.8172,4.7216,4.6664,0.0,0.0,4.6227,4.6329,0.0,4.5915,4.6264,0.0,0.0,0.0,4.5511,0.0,0.0,0.0,4.5511,4.5597,0.0,0.0,0.0,0.0,0.0,0.0,0.0,0.0,0.0,0.0,0.0,0.0,0.0,0.0,0.0,0.0,4.9479,5.0043,5.0854,5.033,5.0321,5.1068,5.0743,5.0876,5.1569,5.2387,5.3369,5.4476,5.4581,5.498,5.5741,5.4987,5.4422,5.4042,5.4042,5.3865,5.3501,5.3501,5.3501,5.3501,5.3501,5.3721,5.416,5.5277,5.5936,5.6393,5.7492,5.7881,5.7881,0.0,0.0,0.0,0.0,0.0,0.0,0.0,0.0,0.0,0.0,0.0,0.0,0.0,0.0,0.0,0.0,0.0,0.0,0.0,0.0,0.0,0.0,0.0,4.4615,0.0,0.0,0.0,0.0,0.0,0.0,0.0,0.0,0.0,0.0,0.0,0.0,0.0,0.0,0.0,4.4654,0.0,4.5933,4.6905,4.7128,4.7512,4.7977,4.821,4.8075,4.7697,4.7324,0.0,4.6288,4.6728,4.6305,0.0,0.0,0.0,0.0,0.0,0.0,0.0,0.0,0.0,4.472,0.0,0.0,0.0,0.0,0.0,0.0,0.0,0.0,0.0,0.0,0.0,0.0,0.0,0.0,0.0,0.0,0.0,0.0,0.0,4.8201,4.8842,5.0353,4.939,4.9274,5.0627,5.0146,5.0146,5.0876,5.152,5.2332,5.3387,5.3323,5.3706,5.4589,5.3865,5.3501,5.3501,5.3501,5.3501,5.3501,5.3501,5.3501,5.3518,5.3653,5.4143,5.4871,5.548,5.6156,5.6884,5.7628,5.7881,5.7881,4.6648,4.5965,0.0,0.0,0.0,0.0,0.0,0.0,0.0,0.0,0.0,0.0,0.0,0.0,0.0,0.0,0.0,0.0,4.4615,0.0,0.0,0.0,0.0,0.0,4.4615,0.0,0.0,0.0,0.0,0.0,0.0,0.0,0.0,0.0,4.4615,0.0,0.0,0.0,4.4615,0.0,4.4665,4.4803,0.0,4.6112,4.6571,4.6756,4.7899,4.7237,4.5883,0.0,4.6112,4.552,0.0,4.5545,4.6094,0.0,0.0,0.0,0.0,0.0,0.0,0.0,4.4615,0.0,0.0,0.0,4.472,0.0,0.0,0.0,0.0,0.0,0.0,0.0,0.0,0.0,0.0,0.0,0.0,0.0,0.0,0.0,0.0,0.0,4.742,4.8838,4.8366,4.8388,4.9192,4.9152,4.9402,5.01,5.0215,5.1284,5.3387,5.277,5.3169,5.4589,5.3865,5.3501,5.3501,5.3501,5.3501,5.3501,5.3501,5.3501,5.3551,5.4194,5.4905,5.5563,5.5683,5.6156,5.6884,5.7628,5.7881,5.7881,4.7239,4.6667,0.0,0.0,0.0,0.0,0.0,0.0,0.0,0.0,0.0,0.0,0.0,0.0,0.0,0.0,0.0,4.5043,0.0,0.0,0.0,0.0,0.0,0.0,0.0,0.0,0.0,0.0,4.4615,0.0,0.0,0.0,0.0,0.0,4.4615,0.0,4.4615,0.0,4.4615,0.0,0.0,0.0,0.0,4.5545,4.6112,4.6478,4.7021,4.6687,4.6046,0.0,4.6014,0.0,0.0,0.0,0.0,0.0,0.0,0.0,0.0,0.0,0.0,0.0,0.0,0.0,4.4665,0.0,4.4615,0.0,0.0,0.0,0.0,0.0,0.0,0.0,0.0,0.0,0.0,0.0,0.0,0.0,0.0,0.0,0.0,0.0,0.0,0.0,0.0,4.7581,4.8342,4.8781,4.9138,4.9419,4.9419,5.0078,5.1467,5.1603,5.2187,5.3278,5.3414,5.3501,5.3501,5.3501,5.3501,5.3501,5.3501,5.3501,5.3568,5.4296,5.504,5.575,5.619,5.6799,5.7476,5.778,5.7881,5.7881,4.8066,0.0,0.0,0.0,0.0,0.0,0.0,0.0,0.0,0.0,0.0,0.0,4.6786,4.6786,0.0,0.0,4.6007,4.5771,0.0,0.0,4.5122,0.0,0.0,0.0,0.0,0.0,0.0,0.0,0.0,0.0,0.0,0.0,0.0,0.0,0.0,4.4615,4.4615,0.0,0.0,4.4615,4.4615,4.4615,4.4665,4.5459,4.6136,4.6664,4.6664,4.6571,4.6407,4.6407,4.6014,0.0,4.5511,0.0,0.0,0.0,0.0,0.0,4.472,0.0,0.0,0.0,0.0,0.0,0.0,0.0,0.0,0.0,0.0,0.0,0.0,0.0,0.0,0.0,0.0,0.0,0.0,0.0,0.0,0.0,0.0,0.0,0.0,0.0,0.0,0.0,4.6538,0.0,4.7838,4.8426,4.8798,4.9001,4.9001,4.9357,5.0084,5.0845,5.1589,5.2317,5.3129,5.3501,5.3501,5.3501,5.3501,5.3501,5.3501,5.3501,5.3568,5.4515,5.5226,5.5801,5.6731,5.7425,5.7881,5.7881,5.7881,5.7881,4.8964,4.7797,0.0,0.0,0.0,0.0,0.0,0.0,0.0,0.0,0.0,0.0,0.0,0.0,0.0,0.0,0.0,4.6735,4.6718,0.0,4.6397,0.0,0.0,4.5331,0.0,0.0,0.0,0.0,0.0,0.0,0.0,0.0,0.0,0.0,0.0,4.4615,4.4615,4.4615,4.4615,4.4615,4.4615,4.4615,4.472,0.0,4.6796,4.7363,4.7363,0.0,0.0,4.6407,4.6014,0.0,0.0,0.0,0.0,0.0,0.0,0.0,0.0,0.0,0.0,4.4598,0.0,0.0,0.0,0.0,4.4615,0.0,0.0,0.0,0.0,0.0,0.0,0.0,0.0,0.0,0.0,0.0,0.0,0.0,0.0,0.0,0.0,0.0,0.0,4.6436,4.6077,4.638,4.7804,4.7906,4.8244,4.8984,4.9001,4.9357,5.0084,5.0845,5.1589,5.2317,5.3129,5.3501,5.3501,5.3501,5.3501,5.3501,5.3501,5.3501,5.3619,5.5074,5.5664,5.5817,5.7289,5.7865,5.7881,5.7881,5.7881,5.7881,0.0,0.0,0.0,0.0,0.0,0.0,0.0,4.8257,0.0,0.0,0.0,0.0,0.0,4.8257,4.8054,0.0,0.0,4.7327,4.6819,4.6786,0.0,0.0,0.0,4.6075,0.0,0.0,0.0,0.0,0.0,0.0,0.0,0.0,0.0,0.0,0.0,4.4615,0.0,0.0,0.0,0.0,0.0,4.4841,4.5205,0.0,0.0,4.5554,4.5554,4.5399,0.0,4.5205,4.5062,4.4906,4.4906,4.4759,4.4615,4.4615,4.4615,0.0,0.0,0.0,4.5089,4.4692,0.0,0.0,0.0,0.0,0.0,0.0,0.0,0.0,0.0,0.0,0.0,0.0,0.0,0.0,0.0,0.0,0.0,0.0,0.0,0.0,0.0,0.0,0.0,4.4436,4.5235,4.6126,0.0,4.7648,4.8257,4.8984,4.9001,4.912,4.9373,5.0591,5.1352,5.1606,5.2892,5.3501,5.3501,5.3501,5.3501,5.3501,5.3501,5.3788,5.4296,5.531,5.6004,5.6528,5.7509,5.7881,5.7881,5.7881,5.7881,5.7881,4.9001,0.0,0.0,0.0,0.0,0.0,0.0,0.0,0.0,0.0,4.9001,0.0,4.9001,0.0,4.8815,0.0,4.8308,4.8105,4.7614,4.7581,0.0,4.7208,4.7192,0.0,0.0,0.0,0.0,0.0,0.0,4.4615,0.0,0.0,0.0,0.0,0.0,4.4615,4.4615,0.0,4.4615,0.0,0.0,4.4841,0.0,0.0,4.4748,4.4934,0.0,4.4934,4.4934,4.4934,4.4934,4.4934,4.4934,4.4759,4.4615,4.4615,4.4615,4.4615,4.4615,4.4879,0.0,4.4692,4.4879,0.0,4.4692,0.0,0.0,0.0,0.0,0.0,0.0,0.0,0.0,0.0,0.0,0.0,0.0,0.0,0.0,0.0,0.0,0.0,0.0,0.0,4.325,4.3792,4.4739,4.5737,0.0,0.0,4.797,4.8968,4.9001,4.9001,4.9001,5.0473,5.1185,5.1202,5.2773,5.3501,5.3501,5.3501,5.3501,5.3501,5.3501,5.3923,5.4651,5.5412,5.6139,5.6867,5.7594,5.7881,5.7881,5.7881,5.7881,5.7881,0.0,0.0,0.0,0.0,4.9001,0.0,0.0,0.0,4.9001,0.0,4.9001,4.9001,4.9001,4.9001,4.9001,4.9001,4.9001,4.9001,4.9001,4.9001,0.0,0.0,4.7939,4.7614,4.6853,0.0,0.0,0.0,0.0,0.0,0.0,0.0,0.0,0.0,4.4649,0.0,4.4666,4.4699,4.4716,4.4716,4.4716,4.4699,4.4649,4.4649,0.0,4.5459,4.5459,4.5459,4.5459,4.5459,4.5459,4.5459,4.5459,4.5062,4.4615,4.4615,4.4615,4.4615,4.4615,4.4615,4.4615,4.4615,0.0,0.0,0.0,0.0,4.4615,0.0,0.0,0.0,0.0,0.0,0.0,0.0,0.0,0.0,0.0,0.0,0.0,0.0,0.0,0.0,0.0,4.2252,4.2922,4.4378,4.4564,4.5241,0.0,0.0,0.0,4.89,4.8984,4.9001,4.9001,5.0473,5.1185,5.1202,5.2773,5.3501,5.3501,5.3501,5.3501,5.3501,5.3501,5.394,5.4702,5.5429,5.6173,5.6917,5.7628,5.7881,5.7881,5.7881,5.7881,5.7881,4.9001,4.9001,4.9001,0.0,4.9001,4.9001,0.0,0.0,0.0,0.0,4.9001,4.9001,4.9001,4.9001,4.9001,4.9001,4.9001,0.0,0.0,0.0,0.0,4.8731,4.8731,4.8376,4.7648,4.7415,0.0,4.6515,0.0,0.0,4.5399,0.0,0.0,0.0,0.0,0.0,4.5449,4.5991,4.6227,4.6227,4.6227,4.5906,0.0,0.0,4.5156,4.4841,4.4841,4.4841,4.4841,4.4841,4.4841,4.4841,4.4841,4.472,4.4615,4.4615,4.4615,4.4615,4.4615,4.4615,4.4615,4.4615,4.4615,4.4615,0.0,0.0,0.0,0.0,0.0,0.0,0.0,0.0,0.0,0.0,0.0,0.0,0.0,0.0,0.0,0.0,0.0,0.0,0.0,4.167,4.2455,4.2844,4.3955,4.4993,0.0,0.0,0.0,4.8142,4.8714,4.9001,4.9001,5.0473,5.1185,5.1202,5.2773,5.3501,5.3501,5.3501,5.3501,5.3501,5.3501,5.4245,5.5446,5.5632,5.6461,5.7628,5.7814,5.7881,5.7881,5.7881,5.7881,5.7881,4.9001,0.0,0.0,4.9001,0.0,0.0,4.9001,0.0,0.0,4.9001,4.9001,0.0,4.9001,4.9001,4.9001,4.9001,4.9001,0.0,4.9001,0.0,0.0,4.9001,4.9001,4.8815,4.8409,4.8041,0.0,4.7293,0.0,0.0,4.6177,0.0,0.0,0.0,0.0,4.6177,4.621,4.6616,4.6786,4.6786,4.6786,0.0,0.0,4.6177,4.5923,4.5579,4.5579,4.5156,4.4615,4.4615,4.4615,4.4615,4.4615,4.4615,4.4615,4.4615,4.4615,4.4615,4.4615,4.4615,4.4615,4.4615,4.4615,4.4615,4.4615,4.4615,4.4615,0.0,0.0,0.0,0.0,0.0,0.0,0.0,0.0,0.0,0.0,0.0,0.0,0.0,0.0,0.0,0.0,4.1424,4.2422,4.276,4.3893,4.4936,0.0,0.0,0.0,4.7872,4.8629,4.9001,4.9001,5.0473,5.1185,5.1202,5.2773,5.3501,5.3501,5.3501,5.3501,5.3518,5.3839,5.4634,5.5733,5.6055,5.6867,5.7881,5.7881,5.7881,5.7881,5.7881,5.7881,5.7881,4.9001,0.0,0.0,0.0,0.0,0.0,0.0,4.9001,0.0,4.9001,0.0,4.9001,4.9001,4.9001,4.9001,4.9001,0.0,4.9001,4.9001,4.9001,4.9001,4.9001,4.9001,4.9001,4.9001,4.8392,0.0,0.0,0.0,4.6938,4.6938,0.0,0.0,0.0,0.0,0.0,0.0,4.709,4.709,4.709,4.709,4.7022,4.6938,4.6938,4.687,4.6786,4.6786,4.5986,4.4902,4.4902,4.4902,4.4902,4.4902,4.4902,4.4902,4.4902,4.4902,4.4902,4.4902,4.4835,4.475,4.475,4.4682,4.4615,4.4615,4.4615,4.4615,4.4615,4.4615,0.0,0.0,0.0,0.0,0.0,0.0,0.0,0.0,0.0,0.0,0.0,0.0,0.0,0.0,0.0,4.2455,4.3217,4.3995,0.0,0.0,0.0,0.0,0.0,4.8578,0.0,4.9001,0.0,5.1185,5.1202,5.2773,5.3501,5.3501,5.3501,5.3501,5.3551,5.4279,5.5023,5.5784,5.6511,5.7222,5.7881,5.7881,5.7881,5.7881,5.7881,5.7881,5.7881,4.9001,0.0,0.0,0.0,0.0,4.9001,4.9001,4.9001,4.9001,4.9001,4.9001,4.9001,4.9001,4.9001,4.9001,4.9001,4.9001,0.0,0.0,0.0,0.0,4.9001,4.9001,4.9001,4.9001,4.8883,4.8815,0.0,4.8088,4.7733,4.7669,0.0,0.0,0.0,0.0,0.0,4.8612,4.8612,0.0,4.8612,4.8612,4.8257,4.7733,4.7733,4.7344,4.6786,4.6786,4.6616,4.6397,4.6397,4.6397,4.6397,4.6397,4.6397,4.6397,4.6397,4.6397,4.6397,4.6397,4.5974,4.5517,4.5517,4.5043,4.4615,4.4615,4.4615,4.4615,4.4615,4.4615,4.4615,4.4615,0.0,0.0,0.0,0.0,0.0,0.0,0.0,0.0,0.0,0.0,0.0,0.0,0.0,0.0,0.0,0.0,0.0,0.0,0.0,0.0,0.0,0.0,0.0,0.0,0.0,0.0,5.1202,5.2773,5.3501,5.3501,5.3501,5.3501,5.3551,5.4279,5.5023,5.5784,5.6511,5.7222,5.7881,5.7881,5.7881,5.7881,5.7881,5.7881,5.7881,0.0,0.0,0.0,0.0,0.0,0.0,0.0,4.9001,0.0,4.9001,4.9001,4.9001,4.9001,4.9001,4.9001,4.9001,4.9001,4.9001,4.9001,4.9001,4.9001,4.9001,4.9001,0.0,4.9001,4.9001,4.9001,4.9001,4.8646,4.8477,0.0,0.0,0.0,0.0,0.0,4.868,0.0,0.0,0.0,4.9001,4.9001,4.8798,4.8477,4.8477,4.8257,4.7936,4.7936,4.7936,4.7817,4.7056,4.6786,4.6786,4.6786,4.6786,4.6786,4.6786,4.6786,4.6786,4.6786,4.6532,4.6261,4.6261,4.5991,4.5618,4.5246,4.5162,4.5043,4.4682,4.4615,4.4615,4.4615,4.4265,0.0,0.0,0.0,0.0,0.0,0.0,0.0,0.0,0.0,0.0,0.0,0.0,0.0,0.0,0.0,0.0,0.0,0.0,0.0,0.0,0.0,0.0,0.0,0.0,0.0,5.1202,5.2773,5.3501,5.3501,5.3501,5.3501,5.3568,5.4685,5.5378,5.5801,5.6917,5.7577,5.7881,5.7881,5.7881,5.7881,5.7881,5.7881,5.7881,0.0,4.9001,0.0,0.0,4.9001,0.0,4.9001,4.9001,4.9001,4.9001,4.9001,4.9001,4.9001,4.9001,4.9001,4.9001,4.9001,4.9001,4.9001,4.9001,4.9001,4.9001,4.9001,4.9001,4.9001,4.9001,4.9001,0.0,4.9001,4.8934,0.0,0.0,0.0,0.0,0.0,0.0,0.0,0.0,4.9001,4.9001,4.9001,4.9001,4.9001,4.9001,4.9001,4.9001,4.9001,4.9001,4.8832,4.7665,4.7259,4.7259,4.7259,4.7259,4.7259,4.7259,4.7259,4.7259,4.7259,4.7141,4.7022,4.7022,4.6904,4.665,4.6075,4.594,4.5771,4.5207,4.4953,4.4801,4.4632,4.4615,0.0,0.0,0.0,0.0,0.0,0.0,0.0,0.0,0.0,0.0,0.0,0.0,0.0,0.0,0.0,4.4496,4.4835,4.6075,0.0,0.0,0.0,4.9001,4.9001,0.0,5.1185,0.0,5.2773,5.3501,5.3501,5.3501,5.3501,5.3585,5.5074,5.5902,5.6275,5.7408,5.7881,5.7881,5.7881,5.7881,5.7881,5.7881,5.7755,5.7591,0.0,0.0,0.0,0.0,0.0,0.0,0.0,4.9001,4.9001,4.9001,4.9001,4.9001,4.9001,4.9001,4.9001,4.9001,4.9001,4.9001,4.9001,4.9001,4.9001,4.9001,4.9001,4.9001,4.9001,4.9001,4.9001,0.0,0.0,4.8663,0.0,0.0,0.0,0.0,0.0,0.0,0.0,4.9001,4.9001,4.9001,4.9001,4.9001,4.9001,4.9001,4.9001,4.9001,4.9001,4.9001,4.8984,4.8849,4.8798,4.8798,4.8798,4.8798,4.8798,4.8798,4.8798,4.8798,4.8798,4.8325,4.7817,4.7817,4.7293,4.6769,4.6701,4.6684,4.6667,4.6599,4.6058,4.5382,4.4733,4.4615,4.4581,0.0,0.0,0.0,0.0,0.0,0.0,0.0,0.0,0.0,0.0,0.0,0.0,0.0,0.0,4.413,4.5517,4.6363,4.7107,4.78,0.0,4.9001,4.9001,5.0473,0.0,5.1202,5.2773,5.3501,5.3501,5.3501,5.3501,5.3585,5.5074,5.6461,5.7695,5.7831,5.7881,5.7881,5.7881,5.7881,5.7881,5.7881,5.726,5.6492,0.0,0.0,0.0,0.0,0.0,0.0,0.0,4.9001,4.9001,4.9001,4.9001,4.9001,4.9001,4.9001,4.9001,4.9001,4.9001,4.9001,4.9001,4.9001,4.9001,4.9001,4.9001,4.9001,4.9001,4.9001,4.9001,0.0,0.0,4.8849,4.8578,0.0,0.0,0.0,0.0,4.9001,4.9001,4.9001,4.9001,4.9001,4.9001,4.9001,4.9001,4.9001,4.9001,4.9001,4.9001,4.9001,4.9001,4.9001,4.9001,4.9001,4.9001,4.9001,4.9001,4.9001,4.9001,4.9001,4.9001,4.8781,4.8578,4.8578,4.8342,4.8003,4.7564,4.7462,4.7344,4.6887,4.6566,4.6261,4.5957,4.5551,4.5263,0.0,0.0,0.0,0.0,0.0,0.0,0.0,0.0,0.0,0.0,0.0,0.0,0.0,0.0,0.0,4.4993,4.6143,4.6938,4.7225,0.0,4.9001,4.9001,5.0473,5.1185,5.1202,5.2773,5.3501,5.3501,5.3501,5.3991,5.4888,5.5919,5.6951,5.7881,5.7881,5.75,5.687,5.687,5.687,5.6794,5.6142,5.647,5.7168,4.9661,0.0,4.9323,0.0,4.9137,4.9001,4.9001,4.9001,4.9001,4.9001,4.9001,4.9001,4.9001,4.9001,4.9001,4.9001,4.9001,4.9001,4.9001,4.9001,4.9001,4.9001,4.9001,0.0,4.9001,4.9001,4.9001,4.9001,4.9001,0.0,4.868,0.0,0.0,0.0,4.9001,4.9001,4.9001,4.9001,4.9001,4.9001,4.9001,4.9001,4.9001,4.9001,4.9001,4.9001,4.9001,4.9001,4.9001,4.9001,4.9001,4.9001,4.9001,4.9001,4.9001,4.9001,4.9001,4.9001,4.9001,4.9001,4.9001,4.9001,4.9001,4.8866,4.8359,4.821,4.802,4.7276,4.7124,4.7056,4.6836,4.6363,4.6024,4.6024,0.0,0.0,0.0,0.0,0.0,0.0,4.4615,4.4615,4.4615,0.0,0.0,0.0,0.0,0.0,4.5258,4.6227,0.0,0.0,0.0,0.0,0.0,5.0574,5.1319,5.1555,5.2875,5.3501,5.3518,5.3721,5.4515,5.575,5.6494,5.7222,5.7881,5.7881,5.7206,5.6204,5.6204,5.5991,5.5634,5.4863,5.5369,5.6337,5.1183,5.0591,5.0084,5.0084,4.9475,4.9001,4.9001,4.9001,4.9001,4.9001,4.9001,4.9001,4.9001,4.9001,4.9001,4.9001,4.9001,4.9001,4.9001,4.9001,4.9001,0.0,0.0,4.9001,4.9001,4.9001,4.9001,4.9001,0.0,0.0,4.7906,0.0,4.8308,4.9001,4.9001,4.9001,4.9001,4.9001,4.9001,4.9001,4.9001,4.9001,4.9001,4.9001,4.9001,4.9001,4.9001,4.9001,4.9001,4.9001,4.9001,4.9001,4.9001,4.9001,4.9001,4.9001,4.9001,4.9001,4.9001,4.9001,4.9001,4.9001,4.9001,4.9001,4.8984,4.8984,4.8781,4.8054,4.7872,4.7682,4.6921,4.6786,4.6786,4.6786,0.0,0.0,0.0,0.0,0.0,0.0,4.4615,4.4615,4.4615,0.0,0.0,0.0,0.0,0.0,0.0,0.0,0.0,4.8934,4.8984,0.0,5.0067,5.0828,5.1589,5.23,5.3112,5.3501,5.3518,5.4245,5.4989,5.575,5.6494,5.7222,5.7881,5.7881,5.7206,5.6204,5.6204,5.5554,5.463,5.4573,5.3913,5.3121,5.1185,5.1014,5.0862,5.0862,5.0236,4.9746,4.9746,4.9323,4.9001,4.9001,4.9001,4.9001,4.9001,4.9001,4.9001,0.0,4.9001,4.9001,0.0,4.9001,4.9001,4.9001,4.9001,4.9001,4.9001,4.9001,4.9001,4.9001,0.0,0.0,0.0,4.8663,4.8781,4.9001,4.9001,4.9001,4.9001,4.9001,4.9001,4.9001,4.9001,4.9001,4.9001,4.9001,4.9001,4.9001,4.9001,4.9001,4.9001,4.9001,4.9001,4.9001,4.9001,4.9001,4.9001,4.9001,4.9001,4.9001,4.9001,4.9001,4.9001,4.9001,4.9001,4.9001,4.9001,4.9001,4.8934,4.8714,4.8663,4.8578,4.8342,4.7902,4.7564,4.7564,0.0,0.0,0.0,0.0,0.0,0.0,4.6092,4.6092,0.0,4.6295,0.0,0.0,0.0,0.0,0.0,0.0,0.0,0.0,4.8748,0.0,5.0084,5.0845,5.1589,5.2317,5.3129,5.3754,5.4262,5.5006,5.5767,5.6459,5.6387,5.6967,5.7755,5.6276,5.545,5.5027,5.4263,5.3726,5.3368,5.2575,5.3033,5.3999,5.208,5.1826,5.1623,5.1623,5.1014,5.0422,5.0135,4.9712,4.9306,4.9035,4.9001,4.9001,4.9001,4.9001,0.0,4.9001,4.9001,4.9001,4.9001,4.9001,4.9001,4.9001,4.9001,4.9001,4.9001,0.0,0.0,4.9001,4.9001,4.9001,4.9001,4.9001,4.9001,4.9001,4.9001,4.9001,4.9001,4.9001,4.9001,4.9001,4.9001,4.9001,4.9001,4.9001,4.9001,4.9001,4.9001,4.9001,4.9001,4.9001,4.9001,4.9001,4.9001,4.9001,4.9001,4.9001,4.9001,4.9001,4.9001,4.9001,4.9001,4.9001,4.9001,4.9001,4.9001,4.9001,4.9001,4.9001,4.9001,4.9001,4.9001,4.8629,4.8294,4.8294,0.0,4.753,4.7242,0.0,0.0,0.0,0.0,0.0,0.0,4.7056,0.0,0.0,0.0,0.0,0.0,0.0,0.0,4.8308,4.9035,0.0,5.0507,5.1251,5.2012,5.2756,5.3264,5.389,5.4617,5.5378,5.5875,5.6168,5.6194,5.6376,5.6564,5.5166,5.4589,5.4505,5.3368,5.29,5.2767,5.165,5.2109,5.3193,5.3501,5.2909,0.0,0.0,5.1775,0.0,5.0355,5.0152,4.9847,4.9171,4.9035,4.9001,4.9001,4.9001,4.9001,4.9001,0.0,0.0,0.0,4.9001,4.9001,4.9001,4.9001,4.9001,4.9001,4.9001,4.9001,4.9001,4.9001,4.9001,4.9001,4.9001,4.9001,4.9001,4.9001,4.9001,4.9001,4.9001,4.9001,4.9001,4.9001,4.9001,4.9001,4.9001,4.9001,4.9001,4.9001,4.9001,4.9001,4.9001,4.9001,4.9001,4.9001,4.9001,4.9001,4.9001,4.9001,4.9001,4.9001,4.9001,4.9001,4.9001,4.9001,4.9001,4.9001,4.9001,4.9001,4.9001,4.9001,4.9001,4.9001,4.9001,4.9001,4.9001,4.9001,4.8765,4.8058,0.0,0.0,0.0,0.0,0.0,0.0,4.7581,4.7973,0.0,0.0,0.0,0.0,0.0,4.8376,4.9052,4.9729,5.0473,5.1252,5.1961,5.2706,5.3501,5.3501,5.3907,5.4702,5.5308,5.5445,5.521,5.5752,5.5434,5.4589,5.4421,5.4421,5.4379,5.3237,5.2783,5.2649,5.1603,5.1214,5.1214,0.0,0.0,5.3213,5.3213,5.257,5.1978,5.1809,5.0811,5.0033,4.9847,4.9357,4.9001,4.9001,4.9001,4.9001,4.9001,4.9001,4.9001,4.9001,4.9001,4.9001,4.9001,4.9001,4.9001,4.9001,4.9001,4.9001,4.9001,4.9001,4.9001,4.9001,4.9001,4.9001,4.9001,4.9001,4.9001,4.9001,4.9001,4.9001,4.9001,4.9001,4.9001,4.9001,4.9001,4.9001,4.9001,4.9001,4.9001,4.9001,4.9001,4.9001,4.9001,4.9001,4.9001,4.9001,4.9001,4.9001,4.9001,4.9001,4.9001,4.9001,4.9001,4.9001,4.9001,4.9001,4.9001,4.9001,4.9001,4.9001,4.9001,4.9001,4.9001,4.9001,4.9001,4.9001,4.8951,4.8765,4.8748,0.0,0.0,4.8477,4.8477,4.8477,4.8646,4.8748,0.0,0.0,0.0,0.0,0.0,4.9661,4.9813,4.9999,5.071,5.2029,5.2215,5.2706,5.3501,5.3501,5.4194,5.5428,5.4728,5.496,5.5879,5.4326,5.4025,5.4463,5.2738,5.253,5.3193,5.2063,5.1588,5.1557,5.1308,5.1214,5.1214,5.3501,5.3501,5.3501,5.3501,5.3145,5.2723,5.2367,5.1623,5.0862,5.0185,4.9746,4.9373,4.9035,4.9001,4.9001,4.9001,4.9001,4.9001,4.9001,4.9001,4.9001,4.9001,4.9001,4.9001,4.9001,4.9001,4.9001,4.9001,4.9001,4.9001,4.9001,4.9001,4.9001,4.9001,4.9001,4.9001,4.9001,4.9001,4.9001,4.9001,4.9001,4.9001,4.9001,4.9001,4.9001,4.9001,4.9001,4.9001,4.9001,4.9001,4.9221,4.9492,4.9492,4.9729,5.0016,5.0016,4.9543,4.9001,4.9001,4.9001,4.9001,4.9001,4.9001,4.9001,4.9001,4.9001,4.9001,4.9001,4.9001,4.9001,4.9001,4.9001,4.9001,4.9001,4.9001,4.9001,4.9001,4.9001,0.0,4.9001,4.9001,4.9001,4.9001,4.9001,4.9001,4.9001,0.0,0.0,4.9492,5.0202,5.0439,5.0101,5.0744,5.1488,5.23,5.2655,5.3078,5.3501,5.3839,5.46,5.5681,5.487,5.488,5.5393,5.3656,5.2945,5.2945,5.1727,5.1896,5.2783,5.1635,5.1511,5.188,5.1386,5.1214,5.1214,5.3501,5.3501,5.3501,5.3501,5.3501,5.3281,5.2587,5.2384,5.1843,5.0591,5.0338,5.0033,4.9407,4.9238,4.9171,4.9171,4.9069,4.9001,4.9001,4.9001,4.9001,4.9001,4.9001,4.9001,4.9001,4.9001,4.9001,4.9001,4.9001,4.9001,4.9001,4.9001,4.9001,4.9001,4.9001,4.9001,4.9001,4.9001,4.9001,4.9001,4.9001,4.9001,4.9001,4.9001,4.9001,4.9018,4.9137,4.9171,4.9187,4.9289,4.9746,5.027,5.027,5.071,5.1185,5.1185,5.0321,4.934,4.934,4.934,4.934,4.934,4.934,4.934,4.934,4.934,4.934,4.934,4.934,4.934,4.934,4.934,4.9306,4.9187,4.9171,4.9137,4.9018,0.0,4.9035,4.9154,4.9171,4.9221,4.9323,4.934,4.934,4.934,4.9915,0.0,0.0,5.098,5.1082,5.0439,5.164,5.2367,5.2486,5.3162,5.3568,5.367,5.4296,5.4953,5.5585,5.5093,5.4648,5.4295,5.3149,5.2109,5.1214,5.1214,5.1758,5.2575,5.1603,5.1804,5.253,5.1557,5.1214,5.1214,5.3501,5.3501,5.3501,5.3501,5.3501,5.3467,5.3331,5.2739,5.2215,5.1995,5.142,5.0997,5.0847,5.0304,4.9915,4.9915,4.9357,4.9001,4.9001,4.9001,4.9001,4.9001,4.9001,4.9001,4.9001,4.9001,4.9001,4.9001,4.9001,4.9001,4.9001,4.9001,4.9001,4.9001,4.9001,4.9001,4.9001,4.9001,4.9001,4.9001,4.9001,4.9001,4.9001,4.9001,4.9001,4.9086,4.9695,4.9915,5.0016,5.0659,5.0947,5.1048,5.1048,5.1116,5.1185,5.1185,5.1048,5.0879,5.0879,5.0879,5.0879,5.0879,5.0879,5.0879,5.0879,5.0879,5.0879,5.0879,5.0879,5.0879,5.0879,5.0879,5.0659,5.0016,4.9915,4.9712,4.9086,0.0,4.9238,4.9847,4.9915,5.0168,5.0811,5.0879,5.0879,5.0879,5.0948,5.1048,5.1048,5.1742,5.208,5.1961,5.2181,5.2638,5.3315,5.345,5.3805,5.4431,5.4532,5.4821,5.5154,5.4186,5.3518,5.3121,5.1987,5.1339,5.1214,5.1214,5.1293,5.1433,5.1261,5.1308,5.1433,5.1261,5.1214,5.1214,5.3501,5.3501,5.3501,5.3501,5.3501,5.3501,5.3501,5.3179,5.279,5.2367,5.2012,5.1657,5.1251,5.0913,5.0693,5.0693,5.0388,5.0016,4.961,4.9221,4.9001,4.9001,4.9001,4.9001,4.9001,4.9001,4.9001,4.9001,4.9001,4.9001,4.9001,4.9001,4.9001,4.9001,4.9001,4.9001,4.9001,4.9001,4.9001,4.9001,4.9001,4.9238,4.9593,4.9593,4.9847,5.0236,5.0574,5.0693,5.0744,5.1099,5.1471,5.1792,5.1792,5.2097,5.2452,5.2452,5.186,5.1185,5.1185,5.1185,5.1185,5.1185,5.1185,5.1185,5.1185,5.1185,5.1185,5.1185,5.1185,5.1185,5.1185,5.1185,5.1099,5.076,5.0693,0.0,0.0,5.0185,5.0321,5.0659,5.0693,5.0828,5.1183,5.1185,5.1185,5.1185,5.1589,5.1792,5.1792,5.2536,5.2959,5.2959,5.2959,5.3129,5.3501,5.2921,5.3308,5.4583,5.3841,5.4053,5.5034,5.3751,5.3071,5.2827,5.1681,5.1214,5.1214,5.1214,5.1214,5.1214,5.1214,5.1214,5.1214,5.1214,5.1214,5.1214,5.3501,5.3501,5.3501,5.3501,5.3501,5.3501,5.3501,5.3501,5.3281,5.2655,5.2587,5.2367,5.1809,5.1589,5.1471,5.1471,5.1319,5.098,5.0388,4.983,4.9373,4.9018,4.9001,4.9001,4.9001,4.9001,4.9001,4.9001,4.9001,4.9001,4.9001,4.9001,4.9001,4.9001,4.9001,4.9001,4.9001,4.9001,4.9103,4.9255,4.9255,4.9695,5.0355,5.0355,5.071,5.1202,5.1371,5.1471,5.1472,5.1658,5.2114,5.2587,5.2587,5.301,5.3501,5.3501,5.2672,5.1742,5.1742,5.1742,5.1742,5.1742,5.1742,5.1742,5.1742,5.1742,5.1742,5.1742,5.1742,5.1742,5.1742,5.1742,5.1658,5.1505,0.0,0.0,0.0,5.1185,5.1268,5.1454,5.1471,5.1539,5.1725,5.1742,5.1742,5.1742,5.2266,5.2587,5.2587,5.3162,5.3382,5.3144,5.3382,5.3382,5.3144,5.2724,5.305,5.4102,5.3416,5.3607,5.4558,5.3404,5.2783,5.244,5.1603,5.1214,5.1214,5.1214,5.1214,5.1214,5.1214,5.1214,5.1214,5.1214,5.1214,5.1214,5.3501,5.3501,5.3501,5.3501,5.3501,5.3501,5.3501,5.3501,5.3484,5.3416,5.3416,5.3399,5.3348,5.2672,5.2232,5.2232,5.1606,5.1168,5.1133,5.1082,5.0439,4.9069,4.9001,4.9001,4.9001,4.9001,4.9001,4.9001,4.9001,4.9001,4.9001,4.9001,4.9001,4.9001,4.9001,4.9001,4.9001,4.9001,4.939,5.0016,5.0016,5.0456,5.1133,5.1133,5.1134,5.1269,5.1978,5.2232,5.2334,5.3078,5.3365,5.3416,5.3416,5.345,5.3501,5.3501,5.3416,5.3331,5.3331,5.3331,5.3331,5.3331,5.3331,5.3331,5.3331,5.3331,5.3331,5.3331,5.3331,5.3331,5.3331,5.3331,5.3095,5.235,0.0,0.0,5.1319,5.1185,5.1471,5.2147,5.2232,5.252,5.3264,5.3331,5.3331,5.3331,5.3382,5.3416,5.3416,5.3467,5.3025,5.2029,5.299,5.3025,5.2029,5.3609,5.3798,5.2675,5.4205,5.4253,5.3087,5.2973,5.2305,5.1293,5.1214,5.1214,5.1214,5.1214,5.1214,5.1214,5.1214,5.1214,5.1214,5.1214,5.1214,5.1214,5.3501,5.3501,5.3501,5.3501,5.3501,5.3501,5.3501,5.3501,5.3501,5.3501,5.3501,5.3501,5.3501,5.323,5.3044,5.3044,5.279,5.2418,5.1911,5.1894,5.1437,5.0422,4.9932,4.9678,4.9678,4.9238,4.9001,4.9001,4.9001,4.9001,4.9001,4.9001,4.9238,4.9678,4.9678,4.9932,5.0371,5.0371,5.0541,5.0777,5.0777,5.1234,5.1894,5.1894,5.2198,5.2672,5.2942,5.3044,5.3095,5.3399,5.3501,5.3501,5.3501,5.3501,5.3501,5.3501,5.3501,5.3501,5.3501,5.3501,5.3501,5.3501,5.3501,5.3501,5.3501,5.3501,5.3501,5.3501,5.3501,5.3501,5.3501,5.3501,5.3399,5.3095,0.0,5.2959,5.2672,5.2638,5.2739,5.301,5.3044,5.3162,5.3467,5.3501,5.3501,5.3501,5.3501,5.323,5.2557,5.2505,5.2511,5.2527,5.2904,5.2633,5.1593,5.1604,5.2132,5.3108,5.2423,5.2365,5.2856,5.2184,5.1588,5.1214,5.1214,5.1214,5.1214,5.1214,5.1214,5.1214,5.1214,5.1214,5.1214,5.1214,5.1214,5.1214,5.3501,5.3501,5.3501,5.3501,5.3501,5.3501,5.3501,5.3501,5.3501,5.3501,5.3501,5.3501,5.3501,5.3501,5.3501,5.3501,5.3501,5.3264,5.2706,5.2689,5.2232,5.1251,5.0727,5.0439,5.0439,4.9949,4.9695,4.9695,4.9695,4.9695,4.9695,4.9695,4.9965,5.0439,5.0439,5.0727,5.1185,5.1185,5.1352,5.1555,5.1555,5.2012,5.2689,5.2689,5.3027,5.3501,5.3501,5.3501,5.3501,5.3501,5.3501,5.3501,5.3501,5.3501,5.3501,5.3501,5.3501,5.3501,5.3501,5.3501,5.3501,5.3501,5.3501,5.3501,5.3501,5.3501,5.3501,5.3501,5.3501,5.3501,5.3501,5.3501,5.3501,5.3501,5.3501,5.3501,5.3501,5.3501,5.3501,5.3501,5.3501,5.3501,5.3501,5.3501,5.3501,5.3501,5.3501,5.3179,5.2435,5.2296,5.2282,5.2438,5.2307,5.1869,5.1027,5.097,5.1455,5.2453,5.1495,5.1486,5.235,5.1557,5.1214,5.1214,5.1214,5.1214,5.1214,5.1214,5.1214,5.1214,5.1214,5.1214,5.1214,5.1214,5.1214,5.1214,5.3501,5.3501,5.3501,5.3501,5.3501,5.3501,5.3501,5.3501,5.3501,5.3501,5.3501,5.3501,5.3501,5.3501,5.3501,5.3501,5.3501,5.3501,5.3501,5.3501,5.2824,5.1269,5.1202,5.1217,5.1217,5.1185,5.1185,5.1185,5.1185,5.1185,5.1185,5.1185,5.1185,5.1217,5.1217,5.1202,5.1202,5.1202,5.1657,5.2317,5.2317,5.279,5.3501,5.3501,5.3501,5.3501,5.3501,5.3501,5.3501,5.3501,5.3501,5.3501,5.3501,5.3501,5.3501,5.3501,5.3501,5.3501,5.3501,5.3501,5.3501,5.3501,5.3501,5.3501,5.3501,5.3501,5.3501,5.3501,5.3501,5.3501,5.3501,5.3501,5.3501,5.3501,5.3501,5.3501,5.3501,5.3501,5.3501,5.3501,5.3501,5.3501,5.3501,5.3501,5.3501,5.3501,5.3484,5.3467,5.3467,5.3097,5.2432,5.143,5.1002,5.0621,5.0196,5.2367,5.2352,5.0257,5.2044,5.2275,5.1214,5.1214,5.1214,5.1214,5.1214,5.1214,5.1214,5.1214,5.1214,5.1214,5.1214,5.1214,5.1214,5.1214,5.1214,5.1214,5.3501,5.3501,5.3501,5.3501,5.3501,5.3501,5.3501,5.3501,5.3501,5.3501,5.3501,5.3501,5.3501,5.3501,5.3501,5.3501,5.3501,5.3501,5.3501,5.3501,5.3298,5.2841,5.2283,5.1978,5.1978,5.1471,5.1185,5.1185,5.1185,5.1185,5.1185,5.1185,5.1488,5.1978,5.1978,5.23,5.2824,5.2824,5.2942,5.3145,5.3145,5.3298,5.3501,5.3501,5.3501,5.3501,5.3501,5.3501,5.3501,5.3501,5.3501,5.3501,5.3501,5.3501,5.3501,5.3501,5.3501,5.3501,5.3501,5.3501,5.3501,5.3501,5.3501,5.3501,5.3501,5.3501,5.3501,5.3501,5.3501,5.3501,5.3501,5.3501,5.3501,5.3501,5.3501,5.3501,5.3501,5.3501,5.3501,5.3501,5.3501,5.3501,5.3501,5.3501,5.3501,5.3501,5.2577,5.2048,5.2048,5.167,5.1501,5.17,5.1576,5.1311,5.0915,5.1091,5.1091,5.093,5.1467,5.1511,5.1214,5.1214,5.1214,5.1214,5.1214,5.1214,5.1214,5.1214,5.1214,5.1214,5.1214,5.1214,5.1214,5.1214,5.1214,5.1214,5.3501,5.3501,5.3501,5.3501,5.3501,5.3501,5.3501,5.3501,5.3501,5.3501,5.3501,5.3501,5.3501,5.3501,5.3501,5.3501,5.3501,5.3501,5.3501,5.3501,5.3501,5.3501,5.3044,5.2773,5.2773,5.235,5.2114,5.2114,5.2114,5.2114,5.2114,5.2114,5.235,5.2773,5.2773,5.3044,5.3501,5.3501,5.3501,5.3501,5.3501,5.3501,5.3501,5.3501,5.3501,5.3501,5.3501,5.3501,5.3501,5.3501,5.3501,5.3501,5.3501,5.3501,5.3501,5.3501,5.3501,5.3501,5.3501,5.3501,5.3501,5.3501,5.3501,5.3501,5.3501,5.3501,5.3501,5.3501,5.3501,5.3501,5.3501,5.3501,5.3501,5.3501,5.3501,5.3501,5.3501,5.3501,5.3501,5.3501,5.3501,5.3501,5.3501,5.3379,5.3194,5.3033,5.2236,5.1758,5.1758,5.1377,5.1389,5.1778,5.163,5.1455,5.1214,5.0779,5.0779,5.1214,5.1214,5.1214,5.1214,5.1214,5.1214,5.1214,5.1214,5.1214,5.1214,5.1214,5.1214,5.1214,5.1214,5.1214,5.1214,5.1214,5.1214,5.1214,5.3501,5.3501,5.3501,5.3501,5.3501,5.3501,5.3501,5.3501,5.3501,5.3501,5.3501,5.3501,5.3501,5.3501,5.3501,5.3501,5.3501,5.3501,5.3501,5.3501,5.3501,5.3501,5.3501,5.3501,5.3501,5.3501,5.3501,5.3501,5.3501,5.3501,5.3501,5.3501,5.3501,5.3501,5.3501,5.3501,5.3501,5.3501,5.3501,5.3501,5.3501,5.3501,5.3501,5.3501,5.3501,5.3501,5.3501,5.3501,5.3501,5.3501,5.3501,5.3501,5.3501,5.3501,5.3501,5.3501,5.3501,5.3501,5.3501,5.3501,5.3501,5.3501,5.3501,5.3501,5.3501,5.3501,5.3501,5.3501,5.3501,5.3501,5.3501,5.3501,5.3501,5.3501,5.3501,5.3501,5.3501,5.3501,5.3518,5.3602,5.3518,5.3467,5.3534,5.3108,5.2644,5.218,5.2211,5.2202,5.2136,5.19,5.1755,5.1755,5.1363,5.1214,5.1214,5.1214,5.1214,5.1214,5.1214,5.1214,5.1214,5.1214,5.1214,5.1214,5.1214,5.1214,5.1214,5.1214,5.1214,5.1214,5.1214,5.1214,5.1214,5.1214,5.1214,5.1229,5.3501,5.3501,5.3501,5.3501,5.3501,5.3501,5.3501,5.3501,5.3501,5.3501,5.3501,5.3501,5.3501,5.3501,5.3501,5.3501,5.3501,5.3501,5.3501,5.3501,5.3501,5.3501,5.3501,5.3501,5.3501,5.3501,5.3501,5.3501,5.3501,5.3501,5.3501,5.3501,5.3501,5.3501,5.3501,5.3501,5.3501,5.3501,5.3501,5.3501,5.3501,5.3501,5.3501,5.3501,5.3501,5.3501,5.3501,5.3501,5.3501,5.3501,5.3501,5.3501,5.3501,5.3501,5.3501,5.3501,5.3501,5.3501,5.3501,5.3501,5.3501,5.3501,5.3501,5.3501,5.3501,5.3501,5.3501,5.3501,5.3501,5.3501,5.3501,5.3501,5.3501,5.3501,5.3501,5.3501,5.3501,5.3501,5.3721,5.4279,5.3565,5.3265,5.3827,5.3002,5.2084,5.1189,5.1608,5.1546,5.0711,5.1061,5.1346,5.1346,5.1233,5.1214,5.1214,5.1214,5.1214,5.1214,5.1214,5.1214,5.1214,5.1214,5.1214,5.1214,5.1214,5.1214,5.1214,5.1214,5.1214,5.1214,5.1214,5.1214,5.1214,5.1214,5.1214,5.1364,5.3501,5.3501,5.3501,5.3501,5.3501,5.3501,5.3501,5.3501,5.3501,5.3501,5.3501,5.3501,5.3501,5.3501,5.3501,5.3501,5.3501,5.3501,5.3501,5.3501,5.3501,5.3501,5.3501,5.3501,5.3501,5.3501,5.3501,5.3501,5.3501,5.3501,5.3501,5.3501,5.3501,5.3501,5.3501,5.3501,5.3501,5.3501,5.3501,5.3501,5.3501,5.3501,5.3501,5.3501,5.3501,5.3501,5.3501,5.3501,5.3501,5.3501,5.3501,5.3501,5.3501,5.3501,5.3501,5.3501,5.3501,5.3501,5.3501,5.3501,5.3501,5.3501,5.3501,5.3501,5.3501,5.3501,5.3501,5.3501,5.3501,5.3501,5.3501,5.3501,5.3619,5.3974,5.4025,5.4143,5.4515,5.4065,5.3883,5.4267,5.3299,5.2702,5.2949,5.24,5.1759,5.1026,5.1302,5.1258,5.0705,5.0988,5.1214,5.1214,5.1214,5.1214,5.1214,5.1214,5.1214,5.1214,5.1214,5.1214,5.1214,5.1214,5.1214,5.1214,5.1214,5.1214,5.1214,5.1214,5.1214,5.1214,5.1214,5.1214,5.1214,5.1214,5.1409,5.1828,5.3501,5.3501,5.3501,5.3501,5.3501,5.3501,5.3501,5.3501,5.3501,5.3501,5.3501,5.3501,5.3501,5.3501,5.3501,5.3501,5.3501,5.3501,5.3501,5.3501,5.3501,5.3501,5.3501,5.3501,5.3501,5.3501,5.3501,5.3501,5.3501,5.3501,5.3501,5.3501,5.3501,5.3501,5.3501,5.3501,5.3501,5.3501,5.3501,5.3501,5.3501,5.3501,5.3501,5.3501,5.3501,5.3501,5.3501,5.3501,5.3501,5.3501,5.3501,5.3501,5.3501,5.3501,5.3501,5.3501,5.3501,5.3501,5.3501,5.3602,5.3687,5.3687,5.3788,5.389,5.389,5.3788,5.3687,5.3687,5.3788,5.389,5.389,5.389,5.4076,5.4685,5.4614,5.4711,5.5334,5.4431,5.3776,5.3907,5.3013,5.223,5.1726,5.1715,5.1559,5.1216,5.1214,5.1214,5.1214,5.1214,5.1214,5.1214,5.1214,5.1214,5.1214,5.1214,5.1214,5.1214,5.1214,5.1214,5.1214,5.1214,5.1214,5.1214,5.1214,5.1214,5.1214,5.1214,5.1214,5.1214,5.1214,5.1214,5.1214,5.1214,5.1633,5.2291,5.3501,5.3501,5.3501,5.3501,5.3501,5.3501,5.3501,5.3501,5.3501,5.3501,5.3501,5.3501,5.3501,5.3501,5.3501,5.3501,5.3501,5.3501,5.3501,5.3501,5.3501,5.3501,5.3501,5.3501,5.3501,5.3501,5.3501,5.3501,5.3501,5.3501,5.3501,5.3501,5.3501,5.3501,5.3501,5.3501,5.3501,5.3501,5.3501,5.3501,5.3501,5.3501,5.3501,5.3501,5.3501,5.3501,5.3501,5.3501,5.3501,5.3501,5.3501,5.3501,5.3501,5.3501,5.3501,5.3501,5.3501,5.3501,5.3501,5.3957,5.4448,5.4448,5.4938,5.5412,5.5412,5.4921,5.4448,5.4448,5.4955,5.5412,5.5412,5.5412,5.5446,5.5547,5.4734,5.4113,5.4212,5.325,5.2805,5.3487,5.3096,5.2402,5.1375,5.1297,5.1249,5.1214,5.1214,5.1214,5.1214,5.1214,5.1214,5.1214,5.1214,5.1214,5.1214,5.1214,5.1214,5.1214,5.1214,5.1214,5.1214,5.1214,5.1214,5.1214,5.1214,5.1214,5.1214,5.1214,5.1214,5.1214,5.1214,5.1214,5.1214,5.1214,5.1633,5.2291,5.3501,5.3501,5.3501,5.3501,5.3501,5.3501,5.3501,5.3501,5.3501,5.3501,5.3501,5.3501,5.3501,5.3501,5.3501,5.3501,5.3501,5.3501,5.3501,5.3501,5.3501,5.3501,5.3501,5.3501,5.3501,5.3501,5.3501,5.3501,5.3501,5.3501,5.3501,5.3501,5.3501,5.3501,5.3501,5.3501,5.3501,5.3501,5.3501,5.3501,5.3501,5.3501,5.3501,5.3501,5.3501,5.3501,5.3501,5.3501,5.3501,5.3501,5.3501,5.3501,5.3501,5.3501,5.3585,5.3991,5.411,5.4194,5.4634,5.4972,5.5209,5.5209,5.548,5.5506,5.4885,5.4825,5.4938,5.5189,5.548,5.5681,5.5681,5.5171,5.4892,5.5309,5.4443,5.3855,5.4283,5.334,5.2512,5.226,5.2062,5.1773,5.1261,5.1214,5.1214,5.1214,5.1214,5.1214,5.1214,5.1214,5.1214,5.1214,5.1214,5.1214,5.1214,5.1214,5.1214,5.1214,5.1214,5.1214,5.1214,5.1214,5.1214,5.1214,5.1214,5.1214,5.1214,5.1214,5.1214,5.1214,5.1214,5.1214,5.1214,5.1214,5.1872,5.2785]}]]